<?xml version='1.0' encoding='UTF-8'?><gpx version="1.1" creator="JPX - https://github.com/jenetics/jpx" xmlns="http://www.topografix.com/GPX/1/1"><trk><trkseg><trkpt lat="45.6526145" lon="10.1980206"><ele>268.0</ele><time>2026-04-09T15:02:19.972Z</time></trkpt><trkpt lat="45.6527386" lon="10.1979731"><ele>268.0</ele><time>2026-04-09T15:02:21.972Z</time></trkpt><trkpt lat="45.6528666" lon="10.1978977"><ele>268.0</ele><time>2026-04-09T15:02:22.972Z</time></trkpt><trkpt lat="45.6529788" lon="10.1978342"><ele>268.0</ele><time>2026-04-09T15:02:23.971Z</time></trkpt><trkpt lat="45.653041" lon="10.1977647"><ele>267.3333333333333</ele><time>2026-04-09T15:02:24.971Z</time></trkpt><trkpt lat="45.6530893" lon="10.1976059"><ele>266.66666666666663</ele><time>2026-04-09T15:02:26.972Z</time></trkpt><trkpt lat="45.6531031" lon="10.1974963"><ele>266.0</ele><time>2026-04-09T15:02:27.972Z</time></trkpt><trkpt lat="45.6531083" lon="10.1973811"><ele>265.3333333333333</ele><time>2026-04-09T15:02:28.972Z</time></trkpt><trkpt lat="45.6531067" lon="10.1972818"><ele>264.6666666666667</ele><time>2026-04-09T15:02:29.971Z</time></trkpt><trkpt lat="45.653144" lon="10.1971745"><ele>264.0</ele><time>2026-04-09T15:02:32.971Z</time></trkpt><trkpt lat="45.6532075" lon="10.1971448"><ele>265.4</ele><time>2026-04-09T15:02:33.971Z</time></trkpt><trkpt lat="45.6533284" lon="10.1971141"><ele>266.79999999999995</ele><time>2026-04-09T15:02:34.972Z</time></trkpt><trkpt lat="45.6534649" lon="10.1971053"><ele>268.20000000000005</ele><time>2026-04-09T15:02:35.972Z</time></trkpt><trkpt lat="45.65357" lon="10.197113"><ele>269.6</ele><time>2026-04-09T15:02:36.972Z</time></trkpt><trkpt lat="45.6536488" lon="10.197122"><ele>271.0</ele><time>2026-04-09T15:02:37.972Z</time></trkpt><trkpt lat="45.6537208" lon="10.1971189"><ele>271.0</ele><time>2026-04-09T15:02:38.971Z</time></trkpt><trkpt lat="45.6537888" lon="10.1971083"><ele>271.0</ele><time>2026-04-09T15:02:39.972Z</time></trkpt><trkpt lat="45.653856" lon="10.1970854"><ele>271.0</ele><time>2026-04-09T15:02:40.972Z</time></trkpt><trkpt lat="45.6539271" lon="10.1970454"><ele>271.0</ele><time>2026-04-09T15:02:41.971Z</time></trkpt><trkpt lat="45.6539914" lon="10.1970141"><ele>271.0</ele><time>2026-04-09T15:02:42.972Z</time></trkpt><trkpt lat="45.6540922" lon="10.1969194"><ele>271.0</ele><time>2026-04-09T15:02:44.972Z</time></trkpt><trkpt lat="45.6541593" lon="10.1968562"><ele>271.0</ele><time>2026-04-09T15:02:45.971Z</time></trkpt><trkpt lat="45.654245" lon="10.1968154"><ele>271.0</ele><time>2026-04-09T15:02:46.972Z</time></trkpt><trkpt lat="45.6543417" lon="10.1967777"><ele>271.0</ele><time>2026-04-09T15:02:47.971Z</time></trkpt><trkpt lat="45.6544195" lon="10.1967152"><ele>271.0</ele><time>2026-04-09T15:02:48.972Z</time></trkpt><trkpt lat="45.6544818" lon="10.196635"><ele>271.0</ele><time>2026-04-09T15:02:49.972Z</time></trkpt><trkpt lat="45.6545352" lon="10.1965594"><ele>271.0</ele><time>2026-04-09T15:02:50.972Z</time></trkpt><trkpt lat="45.6545928" lon="10.1964921"><ele>274.16666666666663</ele><time>2026-04-09T15:02:51.971Z</time></trkpt><trkpt lat="45.6546562" lon="10.1964331"><ele>277.3333333333333</ele><time>2026-04-09T15:02:52.971Z</time></trkpt><trkpt lat="45.6547166" lon="10.1963707"><ele>280.5</ele><time>2026-04-09T15:02:53.972Z</time></trkpt><trkpt lat="45.6547672" lon="10.1963058"><ele>283.6666666666667</ele><time>2026-04-09T15:02:54.971Z</time></trkpt><trkpt lat="45.6548522" lon="10.1962291"><ele>286.83333333333337</ele><time>2026-04-09T15:02:56.971Z</time></trkpt><trkpt lat="45.6549418" lon="10.196297"><ele>290.0</ele><time>2026-04-09T15:02:58.971Z</time></trkpt><trkpt lat="45.6549957" lon="10.1963907"><ele>286.0</ele><time>2026-04-09T15:02:59.972Z</time></trkpt><trkpt lat="45.6550395" lon="10.1965219"><ele>282.0</ele><time>2026-04-09T15:03:00.971Z</time></trkpt><trkpt lat="45.6550649" lon="10.1966375"><ele>278.0</ele><time>2026-04-09T15:03:01.972Z</time></trkpt><trkpt lat="45.6550728" lon="10.1967488"><ele>274.0</ele><time>2026-04-09T15:03:02.972Z</time></trkpt><trkpt lat="45.6550812" lon="10.1968408"><ele>270.0</ele><time>2026-04-09T15:03:03.972Z</time></trkpt><trkpt lat="45.6550934" lon="10.1969356"><ele>266.0</ele><time>2026-04-09T15:03:04.972Z</time></trkpt><trkpt lat="45.6551051" lon="10.1970554"><ele>266.0</ele><time>2026-04-09T15:03:05.972Z</time></trkpt><trkpt lat="45.6551229" lon="10.1972054"><ele>266.0</ele><time>2026-04-09T15:03:06.972Z</time></trkpt><trkpt lat="45.6551396" lon="10.1973735"><ele>266.0</ele><time>2026-04-09T15:03:07.972Z</time></trkpt><trkpt lat="45.6551636" lon="10.1975473"><ele>266.0</ele><time>2026-04-09T15:03:08.971Z</time></trkpt><trkpt lat="45.6551891" lon="10.1977276"><ele>266.0</ele><time>2026-04-09T15:03:09.972Z</time></trkpt><trkpt lat="45.6552122" lon="10.1979189"><ele>266.0</ele><time>2026-04-09T15:03:10.971Z</time></trkpt><trkpt lat="45.6552343" lon="10.1981023"><ele>266.0</ele><time>2026-04-09T15:03:11.972Z</time></trkpt><trkpt lat="45.6552518" lon="10.1982771"><ele>266.0</ele><time>2026-04-09T15:03:12.972Z</time></trkpt><trkpt lat="45.6552752" lon="10.1984412"><ele>266.40000000000003</ele><time>2026-04-09T15:03:13.972Z</time></trkpt><trkpt lat="45.6552956" lon="10.1985968"><ele>266.8</ele><time>2026-04-09T15:03:14.971Z</time></trkpt><trkpt lat="45.6553129" lon="10.1987244"><ele>267.20000000000005</ele><time>2026-04-09T15:03:15.972Z</time></trkpt><trkpt lat="45.6553256" lon="10.198843"><ele>267.6</ele><time>2026-04-09T15:03:16.972Z</time></trkpt><trkpt lat="45.6553335" lon="10.1989404"><ele>268.0</ele><time>2026-04-09T15:03:17.971Z</time></trkpt><trkpt lat="45.6553045" lon="10.1990837"><ele>267.8</ele><time>2026-04-09T15:03:19.972Z</time></trkpt><trkpt lat="45.6552523" lon="10.1991724"><ele>267.6</ele><time>2026-04-09T15:03:21.972Z</time></trkpt><trkpt lat="45.6552041" lon="10.199294"><ele>267.4</ele><time>2026-04-09T15:03:24.972Z</time></trkpt><trkpt lat="45.6550822" lon="10.1993809"><ele>267.2</ele><time>2026-04-09T15:03:26.972Z</time></trkpt><trkpt lat="45.654994" lon="10.1993974"><ele>267.0</ele><time>2026-04-09T15:03:27.972Z</time></trkpt><trkpt lat="45.6548935" lon="10.1994316"><ele>267.0</ele><time>2026-04-09T15:03:28.972Z</time></trkpt><trkpt lat="45.6547747" lon="10.1994635"><ele>267.0</ele><time>2026-04-09T15:03:29.972Z</time></trkpt><trkpt lat="45.6546751" lon="10.1995004"><ele>267.0</ele><time>2026-04-09T15:03:30.972Z</time></trkpt><trkpt lat="45.6545838" lon="10.1995412"><ele>267.0</ele><time>2026-04-09T15:03:31.972Z</time></trkpt><trkpt lat="45.6544947" lon="10.1995856"><ele>267.0</ele><time>2026-04-09T15:03:32.972Z</time></trkpt><trkpt lat="45.6544058" lon="10.1996273"><ele>266.8333333333333</ele><time>2026-04-09T15:03:33.972Z</time></trkpt><trkpt lat="45.6543418" lon="10.1996611"><ele>266.6666666666667</ele><time>2026-04-09T15:03:34.972Z</time></trkpt><trkpt lat="45.6542692" lon="10.1997169"><ele>266.5</ele><time>2026-04-09T15:03:36.971Z</time></trkpt><trkpt lat="45.6542027" lon="10.1997635"><ele>266.33333333333337</ele><time>2026-04-09T15:03:39.972Z</time></trkpt><trkpt lat="45.6541448" lon="10.1998046"><ele>266.1666666666667</ele><time>2026-04-09T15:03:41.972Z</time></trkpt><trkpt lat="45.6540472" lon="10.19983"><ele>266.0</ele><time>2026-04-09T15:03:43.971Z</time></trkpt><trkpt lat="45.6539283" lon="10.199862"><ele>266.1666666666667</ele><time>2026-04-09T15:03:45.972Z</time></trkpt><trkpt lat="45.6538472" lon="10.1999227"><ele>266.33333333333337</ele><time>2026-04-09T15:03:47.971Z</time></trkpt><trkpt lat="45.6537873" lon="10.1999615"><ele>266.5</ele><time>2026-04-09T15:03:48.972Z</time></trkpt><trkpt lat="45.6537208" lon="10.1999844"><ele>266.6666666666667</ele><time>2026-04-09T15:03:49.972Z</time></trkpt><trkpt lat="45.6536469" lon="10.2000059"><ele>266.8333333333333</ele><time>2026-04-09T15:03:50.972Z</time></trkpt><trkpt lat="45.6535421" lon="10.2000352"><ele>267.0</ele><time>2026-04-09T15:03:51.972Z</time></trkpt><trkpt lat="45.6534347" lon="10.2000649"><ele>267.0</ele><time>2026-04-09T15:03:52.972Z</time></trkpt><trkpt lat="45.6533145" lon="10.2001047"><ele>267.0</ele><time>2026-04-09T15:03:53.972Z</time></trkpt><trkpt lat="45.6531854" lon="10.200142"><ele>267.0</ele><time>2026-04-09T15:03:54.972Z</time></trkpt><trkpt lat="45.6530202" lon="10.2002007"><ele>267.0</ele><time>2026-04-09T15:03:55.972Z</time></trkpt><trkpt lat="45.6528683" lon="10.2002743"><ele>266.6666666666667</ele><time>2026-04-09T15:03:56.972Z</time></trkpt><trkpt lat="45.6527193" lon="10.2003416"><ele>266.33333333333337</ele><time>2026-04-09T15:03:57.972Z</time></trkpt><trkpt lat="45.6525683" lon="10.2004006"><ele>266.0</ele><time>2026-04-09T15:03:58.972Z</time></trkpt><trkpt lat="45.6524141" lon="10.2004748"><ele>266.0</ele><time>2026-04-09T15:03:59.972Z</time></trkpt><trkpt lat="45.6522562" lon="10.2005509"><ele>266.0</ele><time>2026-04-09T15:04:00.972Z</time></trkpt><trkpt lat="45.6520977" lon="10.2006317"><ele>266.0</ele><time>2026-04-09T15:04:01.972Z</time></trkpt><trkpt lat="45.6519454" lon="10.2006843"><ele>265.6666666666667</ele><time>2026-04-09T15:04:02.971Z</time></trkpt><trkpt lat="45.6517936" lon="10.2007218"><ele>265.3333333333333</ele><time>2026-04-09T15:04:03.972Z</time></trkpt><trkpt lat="45.6516387" lon="10.2007534"><ele>265.0</ele><time>2026-04-09T15:04:04.971Z</time></trkpt><trkpt lat="45.6514822" lon="10.2007809"><ele>265.0</ele><time>2026-04-09T15:04:05.972Z</time></trkpt><trkpt lat="45.6513255" lon="10.2008094"><ele>265.0</ele><time>2026-04-09T15:04:06.972Z</time></trkpt><trkpt lat="45.6511715" lon="10.200826"><ele>265.0</ele><time>2026-04-09T15:04:07.972Z</time></trkpt><trkpt lat="45.6510296" lon="10.2008448"><ele>264.5</ele><time>2026-04-09T15:04:08.972Z</time></trkpt><trkpt lat="45.6508921" lon="10.2008572"><ele>264.0</ele><time>2026-04-09T15:04:09.972Z</time></trkpt><trkpt lat="45.6507539" lon="10.2008758"><ele>263.5</ele><time>2026-04-09T15:04:10.971Z</time></trkpt><trkpt lat="45.6506238" lon="10.2008912"><ele>263.0</ele><time>2026-04-09T15:04:11.971Z</time></trkpt><trkpt lat="45.6505023" lon="10.2009108"><ele>263.0</ele><time>2026-04-09T15:04:12.972Z</time></trkpt><trkpt lat="45.6503925" lon="10.2009234"><ele>263.0</ele><time>2026-04-09T15:04:13.971Z</time></trkpt><trkpt lat="45.650286" lon="10.2009408"><ele>263.0</ele><time>2026-04-09T15:04:14.972Z</time></trkpt><trkpt lat="45.6501859" lon="10.2009573"><ele>263.0</ele><time>2026-04-09T15:04:15.972Z</time></trkpt><trkpt lat="45.6500905" lon="10.2009677"><ele>263.0</ele><time>2026-04-09T15:04:16.972Z</time></trkpt><trkpt lat="45.6500021" lon="10.2009725"><ele>262.6666666666667</ele><time>2026-04-09T15:04:17.972Z</time></trkpt><trkpt lat="45.6499241" lon="10.2009795"><ele>262.33333333333337</ele><time>2026-04-09T15:04:18.972Z</time></trkpt><trkpt lat="45.6498524" lon="10.2009883"><ele>262.0</ele><time>2026-04-09T15:04:19.972Z</time></trkpt><trkpt lat="45.649737" lon="10.2010036"><ele>261.6666666666667</ele><time>2026-04-09T15:04:21.972Z</time></trkpt><trkpt lat="45.6496572" lon="10.2010192"><ele>261.3333333333333</ele><time>2026-04-09T15:04:23.971Z</time></trkpt><trkpt lat="45.6495776" lon="10.2010357"><ele>261.0</ele><time>2026-04-09T15:04:26.972Z</time></trkpt><trkpt lat="45.6494642" lon="10.2010568"><ele>260.8333333333333</ele><time>2026-04-09T15:04:58.972Z</time></trkpt><trkpt lat="45.6493493" lon="10.2010663"><ele>260.6666666666667</ele><time>2026-04-09T15:05:00.972Z</time></trkpt><trkpt lat="45.6492747" lon="10.2010727"><ele>260.5</ele><time>2026-04-09T15:05:01.972Z</time></trkpt><trkpt lat="45.6492064" lon="10.2010827"><ele>260.33333333333337</ele><time>2026-04-09T15:05:02.972Z</time></trkpt><trkpt lat="45.6491313" lon="10.2010894"><ele>260.1666666666667</ele><time>2026-04-09T15:05:03.971Z</time></trkpt><trkpt lat="45.6490574" lon="10.2011031"><ele>260.0</ele><time>2026-04-09T15:05:04.97Z</time></trkpt><trkpt lat="45.6489835" lon="10.2011088"><ele>260.0</ele><time>2026-04-09T15:05:05.97Z</time></trkpt><trkpt lat="45.6488708" lon="10.2011374"><ele>260.0</ele><time>2026-04-09T15:05:07.971Z</time></trkpt><trkpt lat="45.6487918" lon="10.2012254"><ele>260.0</ele><time>2026-04-09T15:05:09.97Z</time></trkpt><trkpt lat="45.6487703" lon="10.2013483"><ele>260.0</ele><time>2026-04-09T15:05:11.971Z</time></trkpt><trkpt lat="45.6488117" lon="10.2014837"><ele>260.0</ele><time>2026-04-09T15:05:13.971Z</time></trkpt><trkpt lat="45.6488893" lon="10.2016193"><ele>260.1666666666667</ele><time>2026-04-09T15:05:15.971Z</time></trkpt><trkpt lat="45.6489336" lon="10.2017054"><ele>260.33333333333337</ele><time>2026-04-09T15:05:16.97Z</time></trkpt><trkpt lat="45.6489897" lon="10.2018094"><ele>260.5</ele><time>2026-04-09T15:05:17.971Z</time></trkpt><trkpt lat="45.6490332" lon="10.2019293"><ele>260.6666666666667</ele><time>2026-04-09T15:05:18.971Z</time></trkpt><trkpt lat="45.6490595" lon="10.2020471"><ele>260.8333333333333</ele><time>2026-04-09T15:05:19.971Z</time></trkpt><trkpt lat="45.6490796" lon="10.2021567"><ele>261.0</ele><time>2026-04-09T15:05:20.97Z</time></trkpt><trkpt lat="45.649098" lon="10.2022709"><ele>261.0</ele><time>2026-04-09T15:05:21.97Z</time></trkpt><trkpt lat="45.6491059" lon="10.2023845"><ele>261.0</ele><time>2026-04-09T15:05:22.971Z</time></trkpt><trkpt lat="45.649119" lon="10.2025141"><ele>261.0</ele><time>2026-04-09T15:05:23.97Z</time></trkpt><trkpt lat="45.6491181" lon="10.2026418"><ele>261.0</ele><time>2026-04-09T15:05:24.97Z</time></trkpt><trkpt lat="45.6491339" lon="10.2027907"><ele>261.0</ele><time>2026-04-09T15:05:25.971Z</time></trkpt><trkpt lat="45.6491464" lon="10.2029635"><ele>261.0</ele><time>2026-04-09T15:05:26.971Z</time></trkpt><trkpt lat="45.6491612" lon="10.2031492"><ele>261.0</ele><time>2026-04-09T15:05:27.971Z</time></trkpt><trkpt lat="45.6491752" lon="10.2033814"><ele>261.0</ele><time>2026-04-09T15:05:28.971Z</time></trkpt><trkpt lat="45.6491843" lon="10.2036298"><ele>261.25</ele><time>2026-04-09T15:05:29.971Z</time></trkpt><trkpt lat="45.6492025" lon="10.2038478"><ele>261.5</ele><time>2026-04-09T15:05:30.971Z</time></trkpt><trkpt lat="45.6492071" lon="10.2040452"><ele>261.75</ele><time>2026-04-09T15:05:31.97Z</time></trkpt><trkpt lat="45.6492216" lon="10.2042373"><ele>262.0</ele><time>2026-04-09T15:05:32.971Z</time></trkpt><trkpt lat="45.6492289" lon="10.2044226"><ele>262.25</ele><time>2026-04-09T15:05:33.97Z</time></trkpt><trkpt lat="45.649234" lon="10.2046129"><ele>262.5</ele><time>2026-04-09T15:05:34.971Z</time></trkpt><trkpt lat="45.6492373" lon="10.2047927"><ele>262.75</ele><time>2026-04-09T15:05:35.971Z</time></trkpt><trkpt lat="45.6492469" lon="10.2049493"><ele>263.0</ele><time>2026-04-09T15:05:36.971Z</time></trkpt><trkpt lat="45.6492554" lon="10.2051002"><ele>263.2</ele><time>2026-04-09T15:05:37.971Z</time></trkpt><trkpt lat="45.6492599" lon="10.2052515"><ele>263.4</ele><time>2026-04-09T15:05:38.97Z</time></trkpt><trkpt lat="45.6492674" lon="10.2053989"><ele>263.59999999999997</ele><time>2026-04-09T15:05:39.971Z</time></trkpt><trkpt lat="45.6492792" lon="10.2055346"><ele>263.8</ele><time>2026-04-09T15:05:40.97Z</time></trkpt><trkpt lat="45.6492918" lon="10.2056724"><ele>264.0</ele><time>2026-04-09T15:05:41.971Z</time></trkpt><trkpt lat="45.6493082" lon="10.2058128"><ele>264.59999999999997</ele><time>2026-04-09T15:05:42.971Z</time></trkpt><trkpt lat="45.6493132" lon="10.2059562"><ele>265.2</ele><time>2026-04-09T15:05:43.971Z</time></trkpt><trkpt lat="45.649317" lon="10.2060941"><ele>265.79999999999995</ele><time>2026-04-09T15:05:44.971Z</time></trkpt><trkpt lat="45.6493241" lon="10.2062516"><ele>266.4</ele><time>2026-04-09T15:05:45.971Z</time></trkpt><trkpt lat="45.649334" lon="10.2064129"><ele>267.0</ele><time>2026-04-09T15:05:46.971Z</time></trkpt><trkpt lat="45.6493387" lon="10.2065779"><ele>267.2</ele><time>2026-04-09T15:05:47.971Z</time></trkpt><trkpt lat="45.6493465" lon="10.2067305"><ele>267.4</ele><time>2026-04-09T15:05:48.97Z</time></trkpt><trkpt lat="45.6493515" lon="10.2068804"><ele>267.6</ele><time>2026-04-09T15:05:49.971Z</time></trkpt><trkpt lat="45.6493495" lon="10.2070351"><ele>267.8</ele><time>2026-04-09T15:05:50.971Z</time></trkpt><trkpt lat="45.6493476" lon="10.2071947"><ele>268.0</ele><time>2026-04-09T15:05:51.97Z</time></trkpt><trkpt lat="45.6493457" lon="10.207358"><ele>268.5</ele><time>2026-04-09T15:05:52.971Z</time></trkpt><trkpt lat="45.6493397" lon="10.2075298"><ele>269.0</ele><time>2026-04-09T15:05:53.971Z</time></trkpt><trkpt lat="45.6493318" lon="10.2077062"><ele>269.5</ele><time>2026-04-09T15:05:54.971Z</time></trkpt><trkpt lat="45.6493234" lon="10.2078912"><ele>270.0</ele><time>2026-04-09T15:05:55.971Z</time></trkpt><trkpt lat="45.6493109" lon="10.2080767"><ele>270.0</ele><time>2026-04-09T15:05:56.971Z</time></trkpt><trkpt lat="45.6492945" lon="10.2082533"><ele>270.0</ele><time>2026-04-09T15:05:57.971Z</time></trkpt><trkpt lat="45.6492787" lon="10.2084189"><ele>270.0</ele><time>2026-04-09T15:05:58.97Z</time></trkpt><trkpt lat="45.6492604" lon="10.208581"><ele>270.0</ele><time>2026-04-09T15:05:59.971Z</time></trkpt><trkpt lat="45.649245" lon="10.2087365"><ele>270.0</ele><time>2026-04-09T15:06:00.971Z</time></trkpt><trkpt lat="45.6492192" lon="10.2088914"><ele>270.0</ele><time>2026-04-09T15:06:01.97Z</time></trkpt><trkpt lat="45.6492099" lon="10.2090465"><ele>270.0</ele><time>2026-04-09T15:06:02.971Z</time></trkpt><trkpt lat="45.6491956" lon="10.2092012"><ele>270.0</ele><time>2026-04-09T15:06:03.971Z</time></trkpt><trkpt lat="45.6491803" lon="10.209371"><ele>270.0</ele><time>2026-04-09T15:06:04.971Z</time></trkpt><trkpt lat="45.6491585" lon="10.2095549"><ele>270.75</ele><time>2026-04-09T15:06:05.971Z</time></trkpt><trkpt lat="45.6491375" lon="10.2097487"><ele>271.5</ele><time>2026-04-09T15:06:06.971Z</time></trkpt><trkpt lat="45.6491177" lon="10.2099391"><ele>272.25</ele><time>2026-04-09T15:06:07.971Z</time></trkpt><trkpt lat="45.6490997" lon="10.2101358"><ele>273.0</ele><time>2026-04-09T15:06:08.971Z</time></trkpt><trkpt lat="45.6490922" lon="10.2103219"><ele>273.25</ele><time>2026-04-09T15:06:09.97Z</time></trkpt><trkpt lat="45.649074" lon="10.2105117"><ele>273.5</ele><time>2026-04-09T15:06:10.97Z</time></trkpt><trkpt lat="45.6490538" lon="10.2107004"><ele>273.75</ele><time>2026-04-09T15:06:11.971Z</time></trkpt><trkpt lat="45.6490347" lon="10.2108931"><ele>274.0</ele><time>2026-04-09T15:06:12.971Z</time></trkpt><trkpt lat="45.6490184" lon="10.2110768"><ele>274.0</ele><time>2026-04-09T15:06:13.97Z</time></trkpt><trkpt lat="45.6490045" lon="10.2112601"><ele>274.0</ele><time>2026-04-09T15:06:14.97Z</time></trkpt><trkpt lat="45.6489889" lon="10.2114228"><ele>274.0</ele><time>2026-04-09T15:06:15.971Z</time></trkpt><trkpt lat="45.6489731" lon="10.2115798"><ele>274.0</ele><time>2026-04-09T15:06:16.97Z</time></trkpt><trkpt lat="45.6489575" lon="10.2117388"><ele>274.4</ele><time>2026-04-09T15:06:17.97Z</time></trkpt><trkpt lat="45.6489445" lon="10.2118844"><ele>274.79999999999995</ele><time>2026-04-09T15:06:18.971Z</time></trkpt><trkpt lat="45.6489299" lon="10.2120394"><ele>275.20000000000005</ele><time>2026-04-09T15:06:19.971Z</time></trkpt><trkpt lat="45.6489197" lon="10.2121891"><ele>275.6</ele><time>2026-04-09T15:06:20.97Z</time></trkpt><trkpt lat="45.648908" lon="10.2123345"><ele>276.0</ele><time>2026-04-09T15:06:21.97Z</time></trkpt><trkpt lat="45.6488906" lon="10.2124821"><ele>276.6</ele><time>2026-04-09T15:06:22.97Z</time></trkpt><trkpt lat="45.6488944" lon="10.2126191"><ele>277.20000000000005</ele><time>2026-04-09T15:06:23.971Z</time></trkpt><trkpt lat="45.6489002" lon="10.2127495"><ele>277.79999999999995</ele><time>2026-04-09T15:06:24.971Z</time></trkpt><trkpt lat="45.648905" lon="10.2128812"><ele>278.4</ele><time>2026-04-09T15:06:25.971Z</time></trkpt><trkpt lat="45.6489198" lon="10.213024"><ele>279.0</ele><time>2026-04-09T15:06:26.971Z</time></trkpt><trkpt lat="45.648942" lon="10.2131704"><ele>279.0</ele><time>2026-04-09T15:06:27.971Z</time></trkpt><trkpt lat="45.6489649" lon="10.213322"><ele>279.0</ele><time>2026-04-09T15:06:28.971Z</time></trkpt><trkpt lat="45.648988" lon="10.2134696"><ele>279.0</ele><time>2026-04-09T15:06:29.97Z</time></trkpt><trkpt lat="45.6490222" lon="10.2136148"><ele>279.0</ele><time>2026-04-09T15:06:30.971Z</time></trkpt><trkpt lat="45.6490649" lon="10.2137622"><ele>279.0</ele><time>2026-04-09T15:06:31.971Z</time></trkpt><trkpt lat="45.649111" lon="10.2139198"><ele>279.0</ele><time>2026-04-09T15:06:32.971Z</time></trkpt><trkpt lat="45.6491598" lon="10.2140856"><ele>279.0</ele><time>2026-04-09T15:06:33.971Z</time></trkpt><trkpt lat="45.6492148" lon="10.2142611"><ele>279.0</ele><time>2026-04-09T15:06:34.971Z</time></trkpt><trkpt lat="45.6492812" lon="10.2144395"><ele>279.0</ele><time>2026-04-09T15:06:35.971Z</time></trkpt><trkpt lat="45.6493479" lon="10.214645"><ele>279.3333333333333</ele><time>2026-04-09T15:06:36.97Z</time></trkpt><trkpt lat="45.6494145" lon="10.2148614"><ele>279.66666666666663</ele><time>2026-04-09T15:06:37.97Z</time></trkpt><trkpt lat="45.6494781" lon="10.2150812"><ele>280.0</ele><time>2026-04-09T15:06:38.971Z</time></trkpt><trkpt lat="45.6495507" lon="10.2153102"><ele>287.3333333333333</ele><time>2026-04-09T15:06:39.97Z</time></trkpt><trkpt lat="45.6496207" lon="10.215536"><ele>294.6666666666667</ele><time>2026-04-09T15:06:40.971Z</time></trkpt><trkpt lat="45.6496845" lon="10.21575"><ele>302.0</ele><time>2026-04-09T15:06:41.97Z</time></trkpt><trkpt lat="45.6497488" lon="10.2159473"><ele>302.5</ele><time>2026-04-09T15:06:42.97Z</time></trkpt><trkpt lat="45.6498013" lon="10.216138"><ele>303.0</ele><time>2026-04-09T15:06:43.971Z</time></trkpt><trkpt lat="45.6498572" lon="10.2163122"><ele>303.5</ele><time>2026-04-09T15:06:44.971Z</time></trkpt><trkpt lat="45.6499181" lon="10.2164937"><ele>304.0</ele><time>2026-04-09T15:06:45.971Z</time></trkpt><trkpt lat="45.6499857" lon="10.2166902"><ele>300.66666666666663</ele><time>2026-04-09T15:06:46.971Z</time></trkpt><trkpt lat="45.6500456" lon="10.2168946"><ele>297.3333333333333</ele><time>2026-04-09T15:06:47.97Z</time></trkpt><trkpt lat="45.6501041" lon="10.2170966"><ele>294.0</ele><time>2026-04-09T15:06:48.971Z</time></trkpt><trkpt lat="45.6501649" lon="10.2173048"><ele>293.3333333333333</ele><time>2026-04-09T15:06:49.971Z</time></trkpt><trkpt lat="45.6502354" lon="10.217525"><ele>292.66666666666663</ele><time>2026-04-09T15:06:50.97Z</time></trkpt><trkpt lat="45.6503081" lon="10.21775"><ele>292.0</ele><time>2026-04-09T15:06:51.97Z</time></trkpt><trkpt lat="45.6503838" lon="10.2179678"><ele>297.0</ele><time>2026-04-09T15:06:52.971Z</time></trkpt><trkpt lat="45.6504553" lon="10.2181788"><ele>302.0</ele><time>2026-04-09T15:06:53.971Z</time></trkpt><trkpt lat="45.6505238" lon="10.2183787"><ele>307.0</ele><time>2026-04-09T15:06:54.971Z</time></trkpt><trkpt lat="45.650598" lon="10.2185741"><ele>307.0</ele><time>2026-04-09T15:06:55.971Z</time></trkpt><trkpt lat="45.6506736" lon="10.2187653"><ele>307.0</ele><time>2026-04-09T15:06:56.971Z</time></trkpt><trkpt lat="45.6507495" lon="10.2189521"><ele>307.0</ele><time>2026-04-09T15:06:57.971Z</time></trkpt><trkpt lat="45.6508285" lon="10.219126"><ele>304.0</ele><time>2026-04-09T15:06:58.97Z</time></trkpt><trkpt lat="45.6508926" lon="10.2192794"><ele>301.0</ele><time>2026-04-09T15:06:59.971Z</time></trkpt><trkpt lat="45.6509476" lon="10.2194189"><ele>298.0</ele><time>2026-04-09T15:07:00.971Z</time></trkpt><trkpt lat="45.651" lon="10.2195592"><ele>295.0</ele><time>2026-04-09T15:07:01.971Z</time></trkpt><trkpt lat="45.6510609" lon="10.2197125"><ele>299.5</ele><time>2026-04-09T15:07:02.971Z</time></trkpt><trkpt lat="45.6511286" lon="10.2198747"><ele>304.0</ele><time>2026-04-09T15:07:03.97Z</time></trkpt><trkpt lat="45.6512087" lon="10.2200412"><ele>308.5</ele><time>2026-04-09T15:07:04.971Z</time></trkpt><trkpt lat="45.6512906" lon="10.2202247"><ele>313.0</ele><time>2026-04-09T15:07:05.971Z</time></trkpt><trkpt lat="45.6513763" lon="10.2204262"><ele>313.0</ele><time>2026-04-09T15:07:06.97Z</time></trkpt><trkpt lat="45.6514614" lon="10.2206352"><ele>313.0</ele><time>2026-04-09T15:07:07.971Z</time></trkpt><trkpt lat="45.651549" lon="10.220855"><ele>313.0</ele><time>2026-04-09T15:07:08.971Z</time></trkpt><trkpt lat="45.6516395" lon="10.2210782"><ele>310.0</ele><time>2026-04-09T15:07:09.971Z</time></trkpt><trkpt lat="45.6517268" lon="10.2213051"><ele>307.0</ele><time>2026-04-09T15:07:10.971Z</time></trkpt><trkpt lat="45.6518167" lon="10.2215282"><ele>304.0</ele><time>2026-04-09T15:07:11.97Z</time></trkpt><trkpt lat="45.6519003" lon="10.2217464"><ele>311.0</ele><time>2026-04-09T15:07:12.971Z</time></trkpt><trkpt lat="45.6519874" lon="10.2219588"><ele>318.0</ele><time>2026-04-09T15:07:13.971Z</time></trkpt><trkpt lat="45.6520734" lon="10.2221584"><ele>325.0</ele><time>2026-04-09T15:07:14.97Z</time></trkpt><trkpt lat="45.6521564" lon="10.2223556"><ele>325.0</ele><time>2026-04-09T15:07:15.971Z</time></trkpt><trkpt lat="45.6522309" lon="10.2225487"><ele>325.0</ele><time>2026-04-09T15:07:16.97Z</time></trkpt><trkpt lat="45.6523078" lon="10.2227384"><ele>325.0</ele><time>2026-04-09T15:07:17.97Z</time></trkpt><trkpt lat="45.6523783" lon="10.2229249"><ele>325.0</ele><time>2026-04-09T15:07:18.971Z</time></trkpt><trkpt lat="45.6524554" lon="10.2231131"><ele>325.0</ele><time>2026-04-09T15:07:19.971Z</time></trkpt><trkpt lat="45.6525321" lon="10.2233037"><ele>325.0</ele><time>2026-04-09T15:07:20.971Z</time></trkpt><trkpt lat="45.6526009" lon="10.2234867"><ele>322.75</ele><time>2026-04-09T15:07:21.97Z</time></trkpt><trkpt lat="45.6526582" lon="10.2236645"><ele>320.5</ele><time>2026-04-09T15:07:22.971Z</time></trkpt><trkpt lat="45.6527052" lon="10.2238345"><ele>318.25</ele><time>2026-04-09T15:07:23.97Z</time></trkpt><trkpt lat="45.6527449" lon="10.2240012"><ele>316.0</ele><time>2026-04-09T15:07:24.971Z</time></trkpt><trkpt lat="45.6527773" lon="10.2241685"><ele>317.20000000000005</ele><time>2026-04-09T15:07:25.971Z</time></trkpt><trkpt lat="45.6527952" lon="10.2243292"><ele>318.40000000000003</ele><time>2026-04-09T15:07:26.97Z</time></trkpt><trkpt lat="45.6528069" lon="10.224486"><ele>319.6</ele><time>2026-04-09T15:07:27.971Z</time></trkpt><trkpt lat="45.6528142" lon="10.2246378"><ele>320.8</ele><time>2026-04-09T15:07:28.971Z</time></trkpt><trkpt lat="45.6528169" lon="10.224791"><ele>322.0</ele><time>2026-04-09T15:07:29.971Z</time></trkpt><trkpt lat="45.6528156" lon="10.224948"><ele>322.0</ele><time>2026-04-09T15:07:30.971Z</time></trkpt><trkpt lat="45.6528133" lon="10.2251134"><ele>322.0</ele><time>2026-04-09T15:07:31.971Z</time></trkpt><trkpt lat="45.6528083" lon="10.2252869"><ele>322.0</ele><time>2026-04-09T15:07:32.971Z</time></trkpt><trkpt lat="45.6527997" lon="10.2254666"><ele>322.0</ele><time>2026-04-09T15:07:33.971Z</time></trkpt><trkpt lat="45.6527781" lon="10.2256402"><ele>319.5</ele><time>2026-04-09T15:07:34.971Z</time></trkpt><trkpt lat="45.652762" lon="10.2258221"><ele>317.0</ele><time>2026-04-09T15:07:35.97Z</time></trkpt><trkpt lat="45.6527534" lon="10.2260251"><ele>314.5</ele><time>2026-04-09T15:07:36.97Z</time></trkpt><trkpt lat="45.6527555" lon="10.2262369"><ele>312.0</ele><time>2026-04-09T15:07:37.97Z</time></trkpt><trkpt lat="45.6527559" lon="10.2264618"><ele>314.0</ele><time>2026-04-09T15:07:38.971Z</time></trkpt><trkpt lat="45.6527738" lon="10.2267079"><ele>316.0</ele><time>2026-04-09T15:07:39.971Z</time></trkpt><trkpt lat="45.6527916" lon="10.2269687"><ele>318.0</ele><time>2026-04-09T15:07:40.971Z</time></trkpt><trkpt lat="45.6528164" lon="10.2272133"><ele>320.6666666666667</ele><time>2026-04-09T15:07:41.97Z</time></trkpt><trkpt lat="45.6528467" lon="10.2274427"><ele>323.33333333333337</ele><time>2026-04-09T15:07:42.971Z</time></trkpt><trkpt lat="45.6528721" lon="10.2276582"><ele>326.0</ele><time>2026-04-09T15:07:43.971Z</time></trkpt><trkpt lat="45.6528897" lon="10.2278607"><ele>326.0</ele><time>2026-04-09T15:07:44.97Z</time></trkpt><trkpt lat="45.65292" lon="10.2280672"><ele>326.0</ele><time>2026-04-09T15:07:45.971Z</time></trkpt><trkpt lat="45.6529451" lon="10.2282655"><ele>326.0</ele><time>2026-04-09T15:07:46.971Z</time></trkpt><trkpt lat="45.6529777" lon="10.2284654"><ele>326.0</ele><time>2026-04-09T15:07:47.971Z</time></trkpt><trkpt lat="45.6530279" lon="10.2286756"><ele>325.0</ele><time>2026-04-09T15:07:48.971Z</time></trkpt><trkpt lat="45.653094" lon="10.2289373"><ele>324.0</ele><time>2026-04-09T15:07:49.971Z</time></trkpt><trkpt lat="45.6531753" lon="10.2292191"><ele>323.0</ele><time>2026-04-09T15:07:50.971Z</time></trkpt><trkpt lat="45.6532305" lon="10.2294723"><ele>322.6666666666667</ele><time>2026-04-09T15:07:51.971Z</time></trkpt><trkpt lat="45.653281" lon="10.2297011"><ele>322.3333333333333</ele><time>2026-04-09T15:07:52.97Z</time></trkpt><trkpt lat="45.6533325" lon="10.2298991"><ele>322.0</ele><time>2026-04-09T15:07:53.97Z</time></trkpt><trkpt lat="45.653365" lon="10.2300952"><ele>322.0</ele><time>2026-04-09T15:07:54.971Z</time></trkpt><trkpt lat="45.6533867" lon="10.2302798"><ele>322.0</ele><time>2026-04-09T15:07:55.971Z</time></trkpt><trkpt lat="45.6533932" lon="10.2304615"><ele>322.0</ele><time>2026-04-09T15:07:56.97Z</time></trkpt><trkpt lat="45.6533854" lon="10.2306483"><ele>322.0</ele><time>2026-04-09T15:07:57.971Z</time></trkpt><trkpt lat="45.6533712" lon="10.23084"><ele>323.0</ele><time>2026-04-09T15:07:58.971Z</time></trkpt><trkpt lat="45.6533475" lon="10.2310399"><ele>324.0</ele><time>2026-04-09T15:07:59.971Z</time></trkpt><trkpt lat="45.6533225" lon="10.2312246"><ele>325.0</ele><time>2026-04-09T15:08:00.971Z</time></trkpt><trkpt lat="45.653296" lon="10.2313923"><ele>326.0</ele><time>2026-04-09T15:08:01.971Z</time></trkpt><trkpt lat="45.6532605" lon="10.2315458"><ele>327.5</ele><time>2026-04-09T15:08:02.971Z</time></trkpt><trkpt lat="45.6532167" lon="10.2317019"><ele>329.0</ele><time>2026-04-09T15:08:03.97Z</time></trkpt><trkpt lat="45.6531628" lon="10.2318356"><ele>330.5</ele><time>2026-04-09T15:08:04.97Z</time></trkpt><trkpt lat="45.6530984" lon="10.2319737"><ele>332.0</ele><time>2026-04-09T15:08:05.97Z</time></trkpt><trkpt lat="45.6530091" lon="10.2321056"><ele>332.0</ele><time>2026-04-09T15:08:06.971Z</time></trkpt><trkpt lat="45.652902" lon="10.232229"><ele>332.0</ele><time>2026-04-09T15:08:07.969Z</time></trkpt><trkpt lat="45.6527864" lon="10.2323349"><ele>332.0</ele><time>2026-04-09T15:08:08.97Z</time></trkpt><trkpt lat="45.6526841" lon="10.2324294"><ele>332.0</ele><time>2026-04-09T15:08:09.97Z</time></trkpt><trkpt lat="45.6525894" lon="10.2325265"><ele>331.5</ele><time>2026-04-09T15:08:10.97Z</time></trkpt><trkpt lat="45.6525087" lon="10.2326406"><ele>331.0</ele><time>2026-04-09T15:08:11.969Z</time></trkpt><trkpt lat="45.6524331" lon="10.2327613"><ele>330.5</ele><time>2026-04-09T15:08:12.969Z</time></trkpt><trkpt lat="45.6523668" lon="10.2328862"><ele>330.0</ele><time>2026-04-09T15:08:13.969Z</time></trkpt><trkpt lat="45.6523073" lon="10.2330253"><ele>330.75</ele><time>2026-04-09T15:08:14.97Z</time></trkpt><trkpt lat="45.652266" lon="10.2331776"><ele>331.5</ele><time>2026-04-09T15:08:15.97Z</time></trkpt><trkpt lat="45.6522407" lon="10.2333387"><ele>332.25</ele><time>2026-04-09T15:08:16.97Z</time></trkpt><trkpt lat="45.6522248" lon="10.2335078"><ele>333.0</ele><time>2026-04-09T15:08:17.97Z</time></trkpt><trkpt lat="45.6522231" lon="10.2336913"><ele>333.0</ele><time>2026-04-09T15:08:18.969Z</time></trkpt><trkpt lat="45.6522328" lon="10.2338661"><ele>333.0</ele><time>2026-04-09T15:08:19.969Z</time></trkpt><trkpt lat="45.652244" lon="10.2340356"><ele>333.0</ele><time>2026-04-09T15:08:20.97Z</time></trkpt><trkpt lat="45.6522675" lon="10.2342089"><ele>333.0</ele><time>2026-04-09T15:08:21.97Z</time></trkpt><trkpt lat="45.6522888" lon="10.2343866"><ele>334.59999999999997</ele><time>2026-04-09T15:08:22.97Z</time></trkpt><trkpt lat="45.6523078" lon="10.2345483"><ele>336.2</ele><time>2026-04-09T15:08:23.969Z</time></trkpt><trkpt lat="45.6523265" lon="10.2346967"><ele>337.8</ele><time>2026-04-09T15:08:24.97Z</time></trkpt><trkpt lat="45.65234" lon="10.2348318"><ele>339.4</ele><time>2026-04-09T15:08:25.97Z</time></trkpt><trkpt lat="45.6523335" lon="10.2349661"><ele>341.0</ele><time>2026-04-09T15:08:26.97Z</time></trkpt><trkpt lat="45.6523149" lon="10.2350905"><ele>342.4</ele><time>2026-04-09T15:08:27.97Z</time></trkpt><trkpt lat="45.6522831" lon="10.2352166"><ele>343.8</ele><time>2026-04-09T15:08:28.969Z</time></trkpt><trkpt lat="45.6522416" lon="10.2353377"><ele>345.2</ele><time>2026-04-09T15:08:29.969Z</time></trkpt><trkpt lat="45.6521847" lon="10.2354577"><ele>346.59999999999997</ele><time>2026-04-09T15:08:30.97Z</time></trkpt><trkpt lat="45.6521185" lon="10.2355768"><ele>348.0</ele><time>2026-04-09T15:08:31.97Z</time></trkpt><trkpt lat="45.6520452" lon="10.2356974"><ele>350.25</ele><time>2026-04-09T15:08:32.97Z</time></trkpt><trkpt lat="45.6519644" lon="10.235805"><ele>352.5</ele><time>2026-04-09T15:08:33.969Z</time></trkpt><trkpt lat="45.651887" lon="10.2359299"><ele>354.75</ele><time>2026-04-09T15:08:34.97Z</time></trkpt><trkpt lat="45.6518047" lon="10.2360508"><ele>357.0</ele><time>2026-04-09T15:08:35.97Z</time></trkpt><trkpt lat="45.651729" lon="10.2361744"><ele>353.0</ele><time>2026-04-09T15:08:36.97Z</time></trkpt><trkpt lat="45.6516581" lon="10.2363218"><ele>349.0</ele><time>2026-04-09T15:08:37.97Z</time></trkpt><trkpt lat="45.6515981" lon="10.2364787"><ele>345.0</ele><time>2026-04-09T15:08:38.97Z</time></trkpt><trkpt lat="45.6515342" lon="10.2366455"><ele>341.0</ele><time>2026-04-09T15:08:39.97Z</time></trkpt><trkpt lat="45.6514973" lon="10.2368365"><ele>341.0</ele><time>2026-04-09T15:08:40.97Z</time></trkpt><trkpt lat="45.6514722" lon="10.2370208"><ele>341.0</ele><time>2026-04-09T15:08:41.97Z</time></trkpt><trkpt lat="45.6514455" lon="10.2371985"><ele>341.0</ele><time>2026-04-09T15:08:42.969Z</time></trkpt><trkpt lat="45.6514262" lon="10.2373685"><ele>341.0</ele><time>2026-04-09T15:08:43.969Z</time></trkpt><trkpt lat="45.6513969" lon="10.2375475"><ele>341.75</ele><time>2026-04-09T15:08:44.969Z</time></trkpt><trkpt lat="45.6513659" lon="10.2377253"><ele>342.5</ele><time>2026-04-09T15:08:45.97Z</time></trkpt><trkpt lat="45.6513311" lon="10.2379022"><ele>343.25</ele><time>2026-04-09T15:08:46.97Z</time></trkpt><trkpt lat="45.6512929" lon="10.2380742"><ele>344.0</ele><time>2026-04-09T15:08:47.97Z</time></trkpt><trkpt lat="45.6512615" lon="10.2382334"><ele>345.25</ele><time>2026-04-09T15:08:48.97Z</time></trkpt><trkpt lat="45.6512246" lon="10.2383863"><ele>346.5</ele><time>2026-04-09T15:08:49.97Z</time></trkpt><trkpt lat="45.6511888" lon="10.2385447"><ele>347.75</ele><time>2026-04-09T15:08:50.97Z</time></trkpt><trkpt lat="45.6511554" lon="10.2387092"><ele>349.0</ele><time>2026-04-09T15:08:51.97Z</time></trkpt><trkpt lat="45.651116" lon="10.238889"><ele>349.25</ele><time>2026-04-09T15:08:52.97Z</time></trkpt><trkpt lat="45.6510837" lon="10.239066"><ele>349.5</ele><time>2026-04-09T15:08:53.97Z</time></trkpt><trkpt lat="45.6510489" lon="10.2392326"><ele>349.75</ele><time>2026-04-09T15:08:54.97Z</time></trkpt><trkpt lat="45.6510135" lon="10.2393791"><ele>350.0</ele><time>2026-04-09T15:08:55.97Z</time></trkpt><trkpt lat="45.6509895" lon="10.2395175"><ele>350.0</ele><time>2026-04-09T15:08:56.969Z</time></trkpt><trkpt lat="45.6509782" lon="10.2396557"><ele>350.0</ele><time>2026-04-09T15:08:57.97Z</time></trkpt><trkpt lat="45.6509657" lon="10.2397916"><ele>350.0</ele><time>2026-04-09T15:08:58.97Z</time></trkpt><trkpt lat="45.6509391" lon="10.2399038"><ele>350.0</ele><time>2026-04-09T15:08:59.97Z</time></trkpt><trkpt lat="45.6509256" lon="10.2400139"><ele>350.0</ele><time>2026-04-09T15:09:00.97Z</time></trkpt><trkpt lat="45.6509006" lon="10.2401134"><ele>350.0</ele><time>2026-04-09T15:09:01.97Z</time></trkpt><trkpt lat="45.6508825" lon="10.2402078"><ele>350.1666666666667</ele><time>2026-04-09T15:09:02.969Z</time></trkpt><trkpt lat="45.6508632" lon="10.2403007"><ele>350.33333333333337</ele><time>2026-04-09T15:09:03.97Z</time></trkpt><trkpt lat="45.6508373" lon="10.2403862"><ele>350.5</ele><time>2026-04-09T15:09:04.97Z</time></trkpt><trkpt lat="45.6508192" lon="10.2404779"><ele>350.6666666666667</ele><time>2026-04-09T15:09:05.969Z</time></trkpt><trkpt lat="45.650788" lon="10.2406587"><ele>350.8333333333333</ele><time>2026-04-09T15:09:07.97Z</time></trkpt><trkpt lat="45.6507596" lon="10.2407722"><ele>351.0</ele><time>2026-04-09T15:09:08.97Z</time></trkpt><trkpt lat="45.650735" lon="10.2408883"><ele>351.20000000000005</ele><time>2026-04-09T15:09:09.97Z</time></trkpt><trkpt lat="45.6507143" lon="10.2410159"><ele>351.40000000000003</ele><time>2026-04-09T15:09:10.97Z</time></trkpt><trkpt lat="45.6506874" lon="10.2411478"><ele>351.6</ele><time>2026-04-09T15:09:11.969Z</time></trkpt><trkpt lat="45.6506525" lon="10.2412856"><ele>351.8</ele><time>2026-04-09T15:09:12.97Z</time></trkpt><trkpt lat="45.6506148" lon="10.2414335"><ele>352.0</ele><time>2026-04-09T15:09:13.969Z</time></trkpt><trkpt lat="45.6505717" lon="10.2415767"><ele>353.0</ele><time>2026-04-09T15:09:14.969Z</time></trkpt><trkpt lat="45.6505098" lon="10.2417136"><ele>354.0</ele><time>2026-04-09T15:09:15.97Z</time></trkpt><trkpt lat="45.6504578" lon="10.2418269"><ele>355.0</ele><time>2026-04-09T15:09:16.97Z</time></trkpt><trkpt lat="45.6504142" lon="10.2419451"><ele>356.0</ele><time>2026-04-09T15:09:17.969Z</time></trkpt><trkpt lat="45.650371" lon="10.2420612"><ele>357.0</ele><time>2026-04-09T15:09:18.97Z</time></trkpt><trkpt lat="45.6503299" lon="10.2421894"><ele>356.8</ele><time>2026-04-09T15:09:19.97Z</time></trkpt><trkpt lat="45.6503026" lon="10.2423273"><ele>356.6</ele><time>2026-04-09T15:09:20.969Z</time></trkpt><trkpt lat="45.6502898" lon="10.2424684"><ele>356.40000000000003</ele><time>2026-04-09T15:09:21.969Z</time></trkpt><trkpt lat="45.6502845" lon="10.2426167"><ele>356.20000000000005</ele><time>2026-04-09T15:09:22.97Z</time></trkpt><trkpt lat="45.6502891" lon="10.242773"><ele>356.0</ele><time>2026-04-09T15:09:23.97Z</time></trkpt><trkpt lat="45.6503077" lon="10.2429131"><ele>356.0</ele><time>2026-04-09T15:09:24.97Z</time></trkpt><trkpt lat="45.6503322" lon="10.2430225"><ele>356.0</ele><time>2026-04-09T15:09:25.97Z</time></trkpt><trkpt lat="45.6503719" lon="10.2431249"><ele>356.0</ele><time>2026-04-09T15:09:26.97Z</time></trkpt><trkpt lat="45.650422" lon="10.2432311"><ele>356.0</ele><time>2026-04-09T15:09:27.97Z</time></trkpt><trkpt lat="45.6504627" lon="10.24332"><ele>356.0</ele><time>2026-04-09T15:09:28.97Z</time></trkpt><trkpt lat="45.6505096" lon="10.2434022"><ele>356.0</ele><time>2026-04-09T15:09:29.97Z</time></trkpt><trkpt lat="45.6505562" lon="10.2434638"><ele>356.5</ele><time>2026-04-09T15:09:30.97Z</time></trkpt><trkpt lat="45.6506354" lon="10.2435571"><ele>357.0</ele><time>2026-04-09T15:09:32.97Z</time></trkpt><trkpt lat="45.6507214" lon="10.2435923"><ele>357.5</ele><time>2026-04-09T15:09:34.969Z</time></trkpt><trkpt lat="45.6507884" lon="10.2436179"><ele>358.0</ele><time>2026-04-09T15:09:36.969Z</time></trkpt><trkpt lat="45.650852" lon="10.2436708"><ele>358.5</ele><time>2026-04-09T15:09:38.969Z</time></trkpt><trkpt lat="45.6509272" lon="10.2437348"><ele>359.0</ele><time>2026-04-09T15:09:40.969Z</time></trkpt><trkpt lat="45.6510154" lon="10.2437579"><ele>359.0</ele><time>2026-04-09T15:09:42.97Z</time></trkpt><trkpt lat="45.6510682" lon="10.2437043"><ele>359.0</ele><time>2026-04-09T15:09:43.969Z</time></trkpt><trkpt lat="45.651085" lon="10.2435998"><ele>359.0</ele><time>2026-04-09T15:09:44.97Z</time></trkpt><trkpt lat="45.651077" lon="10.2434941"><ele>359.0</ele><time>2026-04-09T15:09:45.97Z</time></trkpt><trkpt lat="45.6510528" lon="10.2433962"><ele>359.0</ele><time>2026-04-09T15:09:46.97Z</time></trkpt><trkpt lat="45.6510121" lon="10.2432478"><ele>359.0</ele><time>2026-04-09T15:09:48.97Z</time></trkpt><trkpt lat="45.6509726" lon="10.243082"><ele>358.57142857142856</ele><time>2026-04-09T15:09:50.969Z</time></trkpt><trkpt lat="45.6509584" lon="10.2429793"><ele>358.14285714285717</ele><time>2026-04-09T15:09:51.97Z</time></trkpt><trkpt lat="45.6509456" lon="10.242875"><ele>357.71428571428567</ele><time>2026-04-09T15:09:52.97Z</time></trkpt><trkpt lat="45.6509307" lon="10.2427714"><ele>357.2857142857143</ele><time>2026-04-09T15:09:53.97Z</time></trkpt><trkpt lat="45.6509225" lon="10.242678"><ele>356.85714285714283</ele><time>2026-04-09T15:09:54.97Z</time></trkpt><trkpt lat="45.650916" lon="10.2425812"><ele>356.4285714285714</ele><time>2026-04-09T15:09:55.97Z</time></trkpt><trkpt lat="45.6509062" lon="10.2424653"><ele>356.0</ele><time>2026-04-09T15:09:56.97Z</time></trkpt><trkpt lat="45.6508995" lon="10.2423611"><ele>356.1666666666667</ele><time>2026-04-09T15:09:57.97Z</time></trkpt><trkpt lat="45.6509018" lon="10.2422541"><ele>356.33333333333337</ele><time>2026-04-09T15:09:58.97Z</time></trkpt><trkpt lat="45.6509167" lon="10.2421489"><ele>356.5</ele><time>2026-04-09T15:09:59.969Z</time></trkpt><trkpt lat="45.6509529" lon="10.2420448"><ele>356.6666666666667</ele><time>2026-04-09T15:10:00.97Z</time></trkpt><trkpt lat="45.6510015" lon="10.2419445"><ele>356.8333333333333</ele><time>2026-04-09T15:10:01.97Z</time></trkpt><trkpt lat="45.6510413" lon="10.241868"><ele>357.0</ele><time>2026-04-09T15:10:02.969Z</time></trkpt><trkpt lat="45.6510932" lon="10.2417503"><ele>362.1666666666667</ele><time>2026-04-09T15:10:04.969Z</time></trkpt><trkpt lat="45.6511807" lon="10.2417793"><ele>367.33333333333337</ele><time>2026-04-09T15:10:06.97Z</time></trkpt><trkpt lat="45.6512289" lon="10.2418727"><ele>372.5</ele><time>2026-04-09T15:10:07.97Z</time></trkpt><trkpt lat="45.651278" lon="10.2419891"><ele>377.6666666666667</ele><time>2026-04-09T15:10:08.97Z</time></trkpt><trkpt lat="45.6513137" lon="10.2420883"><ele>382.83333333333337</ele><time>2026-04-09T15:10:09.97Z</time></trkpt><trkpt lat="45.6513726" lon="10.2421628"><ele>388.0</ele><time>2026-04-09T15:10:10.97Z</time></trkpt><trkpt lat="45.6514652" lon="10.2421904"><ele>388.0</ele><time>2026-04-09T15:10:11.97Z</time></trkpt><trkpt lat="45.651578" lon="10.2422173"><ele>388.0</ele><time>2026-04-09T15:10:12.969Z</time></trkpt><trkpt lat="45.6517072" lon="10.2422528"><ele>388.0</ele><time>2026-04-09T15:10:13.97Z</time></trkpt><trkpt lat="45.6518487" lon="10.2423028"><ele>388.0</ele><time>2026-04-09T15:10:14.97Z</time></trkpt><trkpt lat="45.6519736" lon="10.2423666"><ele>388.79999999999995</ele><time>2026-04-09T15:10:15.97Z</time></trkpt><trkpt lat="45.6520911" lon="10.2424164"><ele>389.6</ele><time>2026-04-09T15:10:16.97Z</time></trkpt><trkpt lat="45.6521653" lon="10.2424745"><ele>390.4</ele><time>2026-04-09T15:10:17.97Z</time></trkpt><trkpt lat="45.652263" lon="10.2425892"><ele>391.20000000000005</ele><time>2026-04-09T15:10:19.97Z</time></trkpt><trkpt lat="45.6523434" lon="10.2425466"><ele>392.0</ele><time>2026-04-09T15:10:21.969Z</time></trkpt><trkpt lat="45.6523209" lon="10.2424203"><ele>392.0</ele><time>2026-04-09T15:10:23.97Z</time></trkpt><trkpt lat="45.6522446" lon="10.2423495"><ele>392.0</ele><time>2026-04-09T15:10:24.97Z</time></trkpt><trkpt lat="45.652169" lon="10.2422787"><ele>392.0</ele><time>2026-04-09T15:10:25.97Z</time></trkpt><trkpt lat="45.6521006" lon="10.2422008"><ele>392.0</ele><time>2026-04-09T15:10:26.97Z</time></trkpt><trkpt lat="45.6520272" lon="10.2421221"><ele>392.0</ele><time>2026-04-09T15:10:27.97Z</time></trkpt><trkpt lat="45.6519407" lon="10.2420759"><ele>391.3333333333333</ele><time>2026-04-09T15:10:28.97Z</time></trkpt><trkpt lat="45.6518498" lon="10.2420389"><ele>390.66666666666663</ele><time>2026-04-09T15:10:29.97Z</time></trkpt><trkpt lat="45.6517625" lon="10.2419852"><ele>390.0</ele><time>2026-04-09T15:10:30.97Z</time></trkpt><trkpt lat="45.6516871" lon="10.2419209"><ele>389.33333333333337</ele><time>2026-04-09T15:10:31.97Z</time></trkpt><trkpt lat="45.6516232" lon="10.241856"><ele>388.6666666666667</ele><time>2026-04-09T15:10:32.97Z</time></trkpt><trkpt lat="45.6515769" lon="10.2417727"><ele>388.0</ele><time>2026-04-09T15:10:33.97Z</time></trkpt><trkpt lat="45.6515286" lon="10.2416756"><ele>388.0</ele><time>2026-04-09T15:10:34.97Z</time></trkpt><trkpt lat="45.6515017" lon="10.2415733"><ele>388.0</ele><time>2026-04-09T15:10:35.97Z</time></trkpt><trkpt lat="45.6514902" lon="10.2414576"><ele>388.0</ele><time>2026-04-09T15:10:36.97Z</time></trkpt><trkpt lat="45.6514782" lon="10.2413297"><ele>388.0</ele><time>2026-04-09T15:10:37.969Z</time></trkpt><trkpt lat="45.6514972" lon="10.2411836"><ele>388.0</ele><time>2026-04-09T15:10:38.969Z</time></trkpt><trkpt lat="45.651519" lon="10.2409703"><ele>387.33333333333337</ele><time>2026-04-09T15:10:39.969Z</time></trkpt><trkpt lat="45.6515486" lon="10.2407032"><ele>386.66666666666663</ele><time>2026-04-09T15:10:40.97Z</time></trkpt><trkpt lat="45.6515688" lon="10.2404637"><ele>386.0</ele><time>2026-04-09T15:10:41.97Z</time></trkpt><trkpt lat="45.6515851" lon="10.2402526"><ele>384.66666666666663</ele><time>2026-04-09T15:10:42.97Z</time></trkpt><trkpt lat="45.6516414" lon="10.2400439"><ele>383.3333333333333</ele><time>2026-04-09T15:10:43.97Z</time></trkpt><trkpt lat="45.6517252" lon="10.2398585"><ele>382.0</ele><time>2026-04-09T15:10:44.97Z</time></trkpt><trkpt lat="45.6518309" lon="10.2397163"><ele>379.8</ele><time>2026-04-09T15:10:45.97Z</time></trkpt><trkpt lat="45.6519447" lon="10.2395857"><ele>377.6</ele><time>2026-04-09T15:10:46.97Z</time></trkpt><trkpt lat="45.6520406" lon="10.2395"><ele>375.40000000000003</ele><time>2026-04-09T15:10:47.97Z</time></trkpt><trkpt lat="45.652123" lon="10.2394481"><ele>373.20000000000005</ele><time>2026-04-09T15:10:48.969Z</time></trkpt><trkpt lat="45.6521821" lon="10.2393921"><ele>371.0</ele><time>2026-04-09T15:10:49.97Z</time></trkpt><trkpt lat="45.652236" lon="10.2393423"><ele>377.0</ele><time>2026-04-09T15:10:50.969Z</time></trkpt><trkpt lat="45.6523077" lon="10.2392585"><ele>383.0</ele><time>2026-04-09T15:10:52.97Z</time></trkpt><trkpt lat="45.6523784" lon="10.2391752"><ele>389.0</ele><time>2026-04-09T15:10:54.97Z</time></trkpt><trkpt lat="45.6524872" lon="10.2391419"><ele>395.0</ele><time>2026-04-09T15:10:56.969Z</time></trkpt><trkpt lat="45.6525921" lon="10.2391545"><ele>401.0</ele><time>2026-04-09T15:10:58.97Z</time></trkpt><trkpt lat="45.6526738" lon="10.2392358"><ele>401.0</ele><time>2026-04-09T15:11:00.97Z</time></trkpt><trkpt lat="45.6527722" lon="10.2393657"><ele>401.0</ele><time>2026-04-09T15:11:02.97Z</time></trkpt><trkpt lat="45.6528396" lon="10.2394566"><ele>401.0</ele><time>2026-04-09T15:11:03.969Z</time></trkpt><trkpt lat="45.652904" lon="10.2395525"><ele>401.0</ele><time>2026-04-09T15:11:04.97Z</time></trkpt><trkpt lat="45.652964" lon="10.2396747"><ele>401.0</ele><time>2026-04-09T15:11:05.97Z</time></trkpt><trkpt lat="45.6530332" lon="10.2398074"><ele>404.0</ele><time>2026-04-09T15:11:06.97Z</time></trkpt><trkpt lat="45.6531049" lon="10.2399393"><ele>407.0</ele><time>2026-04-09T15:11:07.97Z</time></trkpt><trkpt lat="45.6531824" lon="10.2400575"><ele>410.0</ele><time>2026-04-09T15:11:08.969Z</time></trkpt><trkpt lat="45.6532689" lon="10.2401815"><ele>413.0</ele><time>2026-04-09T15:11:09.97Z</time></trkpt><trkpt lat="45.6533745" lon="10.2403042"><ele>413.0</ele><time>2026-04-09T15:11:10.969Z</time></trkpt><trkpt lat="45.6534858" lon="10.2404003"><ele>413.0</ele><time>2026-04-09T15:11:11.968Z</time></trkpt><trkpt lat="45.6535934" lon="10.2404715"><ele>413.0</ele><time>2026-04-09T15:11:12.969Z</time></trkpt><trkpt lat="45.6537068" lon="10.2405388"><ele>413.0</ele><time>2026-04-09T15:11:13.968Z</time></trkpt><trkpt lat="45.6538291" lon="10.2406166"><ele>414.75</ele><time>2026-04-09T15:11:14.968Z</time></trkpt><trkpt lat="45.6539596" lon="10.240692"><ele>416.5</ele><time>2026-04-09T15:11:15.969Z</time></trkpt><trkpt lat="45.6540912" lon="10.2407648"><ele>418.25</ele><time>2026-04-09T15:11:16.969Z</time></trkpt><trkpt lat="45.6542215" lon="10.2408236"><ele>420.0</ele><time>2026-04-09T15:11:17.969Z</time></trkpt><trkpt lat="45.654345" lon="10.2408856"><ele>420.0</ele><time>2026-04-09T15:11:18.969Z</time></trkpt><trkpt lat="45.654451" lon="10.2409733"><ele>420.0</ele><time>2026-04-09T15:11:19.969Z</time></trkpt><trkpt lat="45.6545463" lon="10.2410811"><ele>420.0</ele><time>2026-04-09T15:11:20.969Z</time></trkpt><trkpt lat="45.6546378" lon="10.2411908"><ele>420.0</ele><time>2026-04-09T15:11:21.969Z</time></trkpt><trkpt lat="45.6547057" lon="10.2413119"><ele>421.0</ele><time>2026-04-09T15:11:22.969Z</time></trkpt><trkpt lat="45.6547571" lon="10.2414162"><ele>422.0</ele><time>2026-04-09T15:11:23.969Z</time></trkpt><trkpt lat="45.6548016" lon="10.2415197"><ele>423.0</ele><time>2026-04-09T15:11:24.969Z</time></trkpt><trkpt lat="45.6548342" lon="10.2416002"><ele>424.0</ele><time>2026-04-09T15:11:25.969Z</time></trkpt><trkpt lat="45.6548871" lon="10.2416772"><ele>425.0</ele><time>2026-04-09T15:11:28.969Z</time></trkpt><trkpt lat="45.6549206" lon="10.2417583"><ele>426.0</ele><time>2026-04-09T15:12:15.969Z</time></trkpt><trkpt lat="45.6549907" lon="10.2418655"><ele>426.20000000000005</ele><time>2026-04-09T15:12:17.968Z</time></trkpt><trkpt lat="45.6550182" lon="10.2420041"><ele>426.40000000000003</ele><time>2026-04-09T15:12:19.969Z</time></trkpt><trkpt lat="45.655001" lon="10.2421269"><ele>426.6</ele><time>2026-04-09T15:12:20.969Z</time></trkpt><trkpt lat="45.6550007" lon="10.2422756"><ele>426.8</ele><time>2026-04-09T15:12:21.969Z</time></trkpt><trkpt lat="45.6550275" lon="10.2424529"><ele>427.0</ele><time>2026-04-09T15:12:22.968Z</time></trkpt><trkpt lat="45.6550644" lon="10.242647"><ele>427.0</ele><time>2026-04-09T15:12:23.969Z</time></trkpt><trkpt lat="45.6551008" lon="10.242841"><ele>427.0</ele><time>2026-04-09T15:12:24.969Z</time></trkpt><trkpt lat="45.6551319" lon="10.2430344"><ele>427.0</ele><time>2026-04-09T15:12:25.969Z</time></trkpt><trkpt lat="45.6551499" lon="10.2432382"><ele>427.0</ele><time>2026-04-09T15:12:26.969Z</time></trkpt><trkpt lat="45.6551531" lon="10.2434539"><ele>426.25</ele><time>2026-04-09T15:12:27.969Z</time></trkpt><trkpt lat="45.6551404" lon="10.2436647"><ele>425.5</ele><time>2026-04-09T15:12:28.969Z</time></trkpt><trkpt lat="45.6551045" lon="10.2438756"><ele>424.75</ele><time>2026-04-09T15:12:29.968Z</time></trkpt><trkpt lat="45.6550547" lon="10.2440749"><ele>424.0</ele><time>2026-04-09T15:12:30.969Z</time></trkpt><trkpt lat="45.6549951" lon="10.2442774"><ele>426.0</ele><time>2026-04-09T15:12:31.969Z</time></trkpt><trkpt lat="45.6549316" lon="10.2444817"><ele>428.0</ele><time>2026-04-09T15:12:32.969Z</time></trkpt><trkpt lat="45.6548756" lon="10.2446918"><ele>430.0</ele><time>2026-04-09T15:12:33.968Z</time></trkpt><trkpt lat="45.65482" lon="10.244903"><ele>431.33333333333337</ele><time>2026-04-09T15:12:34.969Z</time></trkpt><trkpt lat="45.6547636" lon="10.2451106"><ele>432.66666666666663</ele><time>2026-04-09T15:12:35.969Z</time></trkpt><trkpt lat="45.6547092" lon="10.245316"><ele>434.0</ele><time>2026-04-09T15:12:36.969Z</time></trkpt><trkpt lat="45.6546585" lon="10.245512"><ele>434.75</ele><time>2026-04-09T15:12:37.969Z</time></trkpt><trkpt lat="45.6546093" lon="10.2457067"><ele>435.5</ele><time>2026-04-09T15:12:38.968Z</time></trkpt><trkpt lat="45.6545553" lon="10.2458979"><ele>436.25</ele><time>2026-04-09T15:12:39.969Z</time></trkpt><trkpt lat="45.6545006" lon="10.2460814"><ele>437.0</ele><time>2026-04-09T15:12:40.968Z</time></trkpt><trkpt lat="45.654447" lon="10.2462743"><ele>435.66666666666663</ele><time>2026-04-09T15:12:41.968Z</time></trkpt><trkpt lat="45.6543938" lon="10.2464733"><ele>434.33333333333337</ele><time>2026-04-09T15:12:42.969Z</time></trkpt><trkpt lat="45.6543448" lon="10.2466719"><ele>433.0</ele><time>2026-04-09T15:12:43.969Z</time></trkpt><trkpt lat="45.6542921" lon="10.2468785"><ele>433.0</ele><time>2026-04-09T15:12:44.969Z</time></trkpt><trkpt lat="45.6542345" lon="10.247086"><ele>433.0</ele><time>2026-04-09T15:12:45.969Z</time></trkpt><trkpt lat="45.6541742" lon="10.2472924"><ele>433.0</ele><time>2026-04-09T15:12:46.969Z</time></trkpt><trkpt lat="45.6541223" lon="10.24751"><ele>435.33333333333337</ele><time>2026-04-09T15:12:47.969Z</time></trkpt><trkpt lat="45.6540653" lon="10.2477316"><ele>437.66666666666663</ele><time>2026-04-09T15:12:48.969Z</time></trkpt><trkpt lat="45.6540296" lon="10.2479448"><ele>440.0</ele><time>2026-04-09T15:12:49.968Z</time></trkpt><trkpt lat="45.6540272" lon="10.2481506"><ele>441.0</ele><time>2026-04-09T15:12:50.969Z</time></trkpt><trkpt lat="45.6540483" lon="10.2483331"><ele>442.0</ele><time>2026-04-09T15:12:51.969Z</time></trkpt><trkpt lat="45.6540698" lon="10.2485385"><ele>443.0</ele><time>2026-04-09T15:12:52.968Z</time></trkpt><trkpt lat="45.6541071" lon="10.2487474"><ele>444.0</ele><time>2026-04-09T15:12:53.968Z</time></trkpt><trkpt lat="45.6541527" lon="10.2489737"><ele>445.0</ele><time>2026-04-09T15:12:54.969Z</time></trkpt><trkpt lat="45.6541907" lon="10.2491951"><ele>446.0</ele><time>2026-04-09T15:12:55.969Z</time></trkpt><trkpt lat="45.6542356" lon="10.2494295"><ele>447.0</ele><time>2026-04-09T15:12:56.968Z</time></trkpt><trkpt lat="45.6542728" lon="10.2496639"><ele>446.33333333333337</ele><time>2026-04-09T15:12:57.969Z</time></trkpt><trkpt lat="45.6543177" lon="10.2499167"><ele>445.6666666666667</ele><time>2026-04-09T15:12:58.969Z</time></trkpt><trkpt lat="45.654361" lon="10.2501754"><ele>445.0</ele><time>2026-04-09T15:12:59.969Z</time></trkpt><trkpt lat="45.6544016" lon="10.2504254"><ele>445.6666666666667</ele><time>2026-04-09T15:13:00.969Z</time></trkpt><trkpt lat="45.6544396" lon="10.250656"><ele>446.33333333333337</ele><time>2026-04-09T15:13:01.969Z</time></trkpt><trkpt lat="45.6544751" lon="10.2508747"><ele>447.0</ele><time>2026-04-09T15:13:02.969Z</time></trkpt><trkpt lat="45.6545095" lon="10.2510702"><ele>451.6</ele><time>2026-04-09T15:13:03.969Z</time></trkpt><trkpt lat="45.6545388" lon="10.2512437"><ele>456.20000000000005</ele><time>2026-04-09T15:13:04.969Z</time></trkpt><trkpt lat="45.6545649" lon="10.2514112"><ele>460.8</ele><time>2026-04-09T15:13:05.969Z</time></trkpt><trkpt lat="45.654568" lon="10.2515568"><ele>465.4</ele><time>2026-04-09T15:13:06.968Z</time></trkpt><trkpt lat="45.6545532" lon="10.2517025"><ele>470.0</ele><time>2026-04-09T15:13:07.968Z</time></trkpt><trkpt lat="45.6544965" lon="10.251809"><ele>466.0</ele><time>2026-04-09T15:13:08.969Z</time></trkpt><trkpt lat="45.6544058" lon="10.2518903"><ele>462.0</ele><time>2026-04-09T15:13:09.968Z</time></trkpt><trkpt lat="45.6542951" lon="10.2519763"><ele>458.0</ele><time>2026-04-09T15:13:10.969Z</time></trkpt><trkpt lat="45.6541737" lon="10.2520486"><ele>454.0</ele><time>2026-04-09T15:13:11.969Z</time></trkpt><trkpt lat="45.6540638" lon="10.252116"><ele>454.0</ele><time>2026-04-09T15:13:12.969Z</time></trkpt><trkpt lat="45.6539646" lon="10.2521654"><ele>454.0</ele><time>2026-04-09T15:13:13.968Z</time></trkpt><trkpt lat="45.6538687" lon="10.2522063"><ele>454.0</ele><time>2026-04-09T15:13:14.969Z</time></trkpt><trkpt lat="45.6537661" lon="10.2522466"><ele>454.0</ele><time>2026-04-09T15:13:15.969Z</time></trkpt><trkpt lat="45.6536632" lon="10.2522497"><ele>454.0</ele><time>2026-04-09T15:13:16.969Z</time></trkpt><trkpt lat="45.653556" lon="10.2522354"><ele>454.79999999999995</ele><time>2026-04-09T15:13:17.969Z</time></trkpt><trkpt lat="45.6534702" lon="10.2521995"><ele>455.59999999999997</ele><time>2026-04-09T15:13:18.969Z</time></trkpt><trkpt lat="45.6534083" lon="10.2521494"><ele>456.4</ele><time>2026-04-09T15:13:19.969Z</time></trkpt><trkpt lat="45.6533568" lon="10.2520501"><ele>457.2</ele><time>2026-04-09T15:13:20.968Z</time></trkpt><trkpt lat="45.6532882" lon="10.2519519"><ele>458.0</ele><time>2026-04-09T15:13:21.969Z</time></trkpt><trkpt lat="45.6532102" lon="10.2518111"><ele>458.0</ele><time>2026-04-09T15:13:22.969Z</time></trkpt><trkpt lat="45.6531322" lon="10.2516486"><ele>458.0</ele><time>2026-04-09T15:13:23.969Z</time></trkpt><trkpt lat="45.6530521" lon="10.2514787"><ele>458.0</ele><time>2026-04-09T15:13:24.969Z</time></trkpt><trkpt lat="45.652982" lon="10.2513404"><ele>458.0</ele><time>2026-04-09T15:13:25.969Z</time></trkpt><trkpt lat="45.6529119" lon="10.2512185"><ele>457.66666666666663</ele><time>2026-04-09T15:13:26.968Z</time></trkpt><trkpt lat="45.6528319" lon="10.2511495"><ele>457.3333333333333</ele><time>2026-04-09T15:13:27.968Z</time></trkpt><trkpt lat="45.6527638" lon="10.251085"><ele>457.0</ele><time>2026-04-09T15:13:28.969Z</time></trkpt><trkpt lat="45.6526939" lon="10.2510677"><ele>456.66666666666663</ele><time>2026-04-09T15:13:29.969Z</time></trkpt><trkpt lat="45.6526256" lon="10.2510638"><ele>456.3333333333333</ele><time>2026-04-09T15:13:30.969Z</time></trkpt><trkpt lat="45.65255" lon="10.2510851"><ele>456.0</ele><time>2026-04-09T15:13:31.968Z</time></trkpt><trkpt lat="45.6524796" lon="10.2511128"><ele>456.0</ele><time>2026-04-09T15:13:32.969Z</time></trkpt><trkpt lat="45.6523722" lon="10.2512482"><ele>456.0</ele><time>2026-04-09T15:13:34.968Z</time></trkpt><trkpt lat="45.6523051" lon="10.2513521"><ele>456.0</ele><time>2026-04-09T15:13:35.969Z</time></trkpt><trkpt lat="45.652235" lon="10.251454"><ele>456.0</ele><time>2026-04-09T15:13:36.969Z</time></trkpt><trkpt lat="45.6521575" lon="10.251557"><ele>456.0</ele><time>2026-04-09T15:13:37.969Z</time></trkpt><trkpt lat="45.6520911" lon="10.2516805"><ele>456.20000000000005</ele><time>2026-04-09T15:13:38.969Z</time></trkpt><trkpt lat="45.6520418" lon="10.2518197"><ele>456.40000000000003</ele><time>2026-04-09T15:13:39.968Z</time></trkpt><trkpt lat="45.6520029" lon="10.251966"><ele>456.6</ele><time>2026-04-09T15:13:40.969Z</time></trkpt><trkpt lat="45.6519613" lon="10.2521053"><ele>456.8</ele><time>2026-04-09T15:13:41.968Z</time></trkpt><trkpt lat="45.651914" lon="10.2522457"><ele>457.0</ele><time>2026-04-09T15:13:42.969Z</time></trkpt><trkpt lat="45.6518693" lon="10.2523912"><ele>457.0</ele><time>2026-04-09T15:13:43.969Z</time></trkpt><trkpt lat="45.651831" lon="10.2525482"><ele>457.0</ele><time>2026-04-09T15:13:44.969Z</time></trkpt><trkpt lat="45.6518106" lon="10.2527177"><ele>457.0</ele><time>2026-04-09T15:13:45.968Z</time></trkpt><trkpt lat="45.6518017" lon="10.2528884"><ele>457.0</ele><time>2026-04-09T15:13:46.969Z</time></trkpt><trkpt lat="45.6517971" lon="10.2530561"><ele>458.25</ele><time>2026-04-09T15:13:47.968Z</time></trkpt><trkpt lat="45.6517792" lon="10.253238"><ele>459.5</ele><time>2026-04-09T15:13:48.969Z</time></trkpt><trkpt lat="45.651762" lon="10.2534133"><ele>460.75</ele><time>2026-04-09T15:13:49.969Z</time></trkpt><trkpt lat="45.6517499" lon="10.2535757"><ele>462.0</ele><time>2026-04-09T15:13:50.969Z</time></trkpt><trkpt lat="45.6517263" lon="10.2537471"><ele>462.0</ele><time>2026-04-09T15:13:51.969Z</time></trkpt><trkpt lat="45.6517106" lon="10.2539025"><ele>462.0</ele><time>2026-04-09T15:13:52.969Z</time></trkpt><trkpt lat="45.6517005" lon="10.2540609"><ele>462.0</ele><time>2026-04-09T15:13:53.969Z</time></trkpt><trkpt lat="45.6516879" lon="10.2542281"><ele>462.0</ele><time>2026-04-09T15:13:54.969Z</time></trkpt><trkpt lat="45.651668" lon="10.2544047"><ele>463.5</ele><time>2026-04-09T15:13:55.969Z</time></trkpt><trkpt lat="45.6516528" lon="10.2545743"><ele>465.0</ele><time>2026-04-09T15:13:56.969Z</time></trkpt><trkpt lat="45.6516384" lon="10.2547483"><ele>466.5</ele><time>2026-04-09T15:13:57.969Z</time></trkpt><trkpt lat="45.651628" lon="10.2549144"><ele>468.0</ele><time>2026-04-09T15:13:58.968Z</time></trkpt><trkpt lat="45.6516101" lon="10.2550893"><ele>468.5</ele><time>2026-04-09T15:13:59.969Z</time></trkpt><trkpt lat="45.6515994" lon="10.2552748"><ele>469.0</ele><time>2026-04-09T15:14:00.969Z</time></trkpt><trkpt lat="45.6515879" lon="10.255454"><ele>469.5</ele><time>2026-04-09T15:14:01.969Z</time></trkpt><trkpt lat="45.6515925" lon="10.2556339"><ele>470.0</ele><time>2026-04-09T15:14:02.969Z</time></trkpt><trkpt lat="45.6515841" lon="10.2558054"><ele>470.8</ele><time>2026-04-09T15:14:03.969Z</time></trkpt><trkpt lat="45.6515738" lon="10.2559655"><ele>471.6</ele><time>2026-04-09T15:14:04.968Z</time></trkpt><trkpt lat="45.6515701" lon="10.2561121"><ele>472.4</ele><time>2026-04-09T15:14:05.969Z</time></trkpt><trkpt lat="45.6515637" lon="10.2562639"><ele>473.2</ele><time>2026-04-09T15:14:06.968Z</time></trkpt><trkpt lat="45.6515633" lon="10.2564227"><ele>474.0</ele><time>2026-04-09T15:14:07.969Z</time></trkpt><trkpt lat="45.6515597" lon="10.256579"><ele>474.5</ele><time>2026-04-09T15:14:08.968Z</time></trkpt><trkpt lat="45.6515694" lon="10.2567331"><ele>475.0</ele><time>2026-04-09T15:14:09.969Z</time></trkpt><trkpt lat="45.6515727" lon="10.2568841"><ele>475.5</ele><time>2026-04-09T15:14:10.968Z</time></trkpt><trkpt lat="45.6516005" lon="10.2570608"><ele>476.0</ele><time>2026-04-09T15:14:11.968Z</time></trkpt><trkpt lat="45.6516029" lon="10.2572292"><ele>476.4</ele><time>2026-04-09T15:14:12.969Z</time></trkpt><trkpt lat="45.6516092" lon="10.2573898"><ele>476.8</ele><time>2026-04-09T15:14:13.968Z</time></trkpt><trkpt lat="45.651608" lon="10.2575269"><ele>477.19999999999993</ele><time>2026-04-09T15:14:14.967Z</time></trkpt><trkpt lat="45.6516081" lon="10.2576587"><ele>477.59999999999997</ele><time>2026-04-09T15:14:15.967Z</time></trkpt><trkpt lat="45.6516097" lon="10.257777"><ele>478.0</ele><time>2026-04-09T15:14:16.968Z</time></trkpt><trkpt lat="45.6516008" lon="10.2578916"><ele>478.00000000000006</ele><time>2026-04-09T15:14:17.967Z</time></trkpt><trkpt lat="45.6515755" lon="10.2579906"><ele>478.0</ele><time>2026-04-09T15:14:18.967Z</time></trkpt><trkpt lat="45.6515443" lon="10.2580753"><ele>478.0</ele><time>2026-04-09T15:14:19.967Z</time></trkpt><trkpt lat="45.6514795" lon="10.2581884"><ele>478.0</ele><time>2026-04-09T15:14:21.967Z</time></trkpt><trkpt lat="45.6514244" lon="10.2582397"><ele>478.00000000000006</ele><time>2026-04-09T15:14:23.968Z</time></trkpt><trkpt lat="45.6513127" lon="10.2582981"><ele>478.0</ele><time>2026-04-09T15:14:25.967Z</time></trkpt><trkpt lat="45.6512444" lon="10.258318"><ele>479.75</ele><time>2026-04-09T15:14:26.968Z</time></trkpt><trkpt lat="45.6511515" lon="10.2583576"><ele>481.5</ele><time>2026-04-09T15:14:28.968Z</time></trkpt><trkpt lat="45.6511078" lon="10.2585239"><ele>483.25</ele><time>2026-04-09T15:14:30.967Z</time></trkpt><trkpt lat="45.6510773" lon="10.2586723"><ele>485.0</ele><time>2026-04-09T15:14:31.967Z</time></trkpt><trkpt lat="45.6510261" lon="10.25883"><ele>483.5</ele><time>2026-04-09T15:14:32.968Z</time></trkpt><trkpt lat="45.6509659" lon="10.258998"><ele>482.0</ele><time>2026-04-09T15:14:33.968Z</time></trkpt><trkpt lat="45.6509223" lon="10.2591714"><ele>480.5</ele><time>2026-04-09T15:14:34.967Z</time></trkpt><trkpt lat="45.6508732" lon="10.2593566"><ele>479.0</ele><time>2026-04-09T15:14:35.967Z</time></trkpt><trkpt lat="45.6508417" lon="10.2595577"><ele>479.0</ele><time>2026-04-09T15:14:36.968Z</time></trkpt><trkpt lat="45.6508216" lon="10.2597369"><ele>479.0</ele><time>2026-04-09T15:14:37.968Z</time></trkpt><trkpt lat="45.6507964" lon="10.259892"><ele>479.0</ele><time>2026-04-09T15:14:38.968Z</time></trkpt><trkpt lat="45.6507893" lon="10.26002"><ele>479.0</ele><time>2026-04-09T15:14:39.968Z</time></trkpt><trkpt lat="45.6507865" lon="10.2601487"><ele>479.0</ele><time>2026-04-09T15:14:40.968Z</time></trkpt><trkpt lat="45.6507911" lon="10.2602466"><ele>480.0</ele><time>2026-04-09T15:14:41.967Z</time></trkpt><trkpt lat="45.6508027" lon="10.2603537"><ele>481.0</ele><time>2026-04-09T15:14:42.968Z</time></trkpt><trkpt lat="45.6508281" lon="10.2605024"><ele>482.0</ele><time>2026-04-09T15:14:43.968Z</time></trkpt><trkpt lat="45.6508673" lon="10.2606865"><ele>483.0</ele><time>2026-04-09T15:14:44.967Z</time></trkpt><trkpt lat="45.6509141" lon="10.2608914"><ele>483.0</ele><time>2026-04-09T15:14:45.967Z</time></trkpt><trkpt lat="45.6509507" lon="10.2611125"><ele>483.0</ele><time>2026-04-09T15:14:46.968Z</time></trkpt><trkpt lat="45.650981" lon="10.261317"><ele>483.0</ele><time>2026-04-09T15:14:47.968Z</time></trkpt><trkpt lat="45.6510019" lon="10.2615165"><ele>483.0</ele><time>2026-04-09T15:14:48.968Z</time></trkpt><trkpt lat="45.6510329" lon="10.2616978"><ele>483.0</ele><time>2026-04-09T15:14:49.968Z</time></trkpt><trkpt lat="45.6510573" lon="10.2618668"><ele>482.99999999999994</ele><time>2026-04-09T15:14:50.968Z</time></trkpt><trkpt lat="45.6510792" lon="10.2620281"><ele>482.99999999999994</ele><time>2026-04-09T15:14:51.968Z</time></trkpt><trkpt lat="45.6510946" lon="10.2621697"><ele>483.0</ele><time>2026-04-09T15:14:52.968Z</time></trkpt><trkpt lat="45.6511006" lon="10.2623064"><ele>483.0</ele><time>2026-04-09T15:14:53.968Z</time></trkpt><trkpt lat="45.6511057" lon="10.2624237"><ele>483.0</ele><time>2026-04-09T15:14:54.968Z</time></trkpt><trkpt lat="45.6511063" lon="10.2625322"><ele>482.99999999999994</ele><time>2026-04-09T15:14:55.968Z</time></trkpt><trkpt lat="45.6511078" lon="10.2626539"><ele>482.99999999999994</ele><time>2026-04-09T15:14:56.967Z</time></trkpt><trkpt lat="45.6511098" lon="10.2628115"><ele>483.0</ele><time>2026-04-09T15:14:57.968Z</time></trkpt><trkpt lat="45.6511111" lon="10.2630109"><ele>483.0</ele><time>2026-04-09T15:14:58.968Z</time></trkpt><trkpt lat="45.6511215" lon="10.2632042"><ele>483.59999999999997</ele><time>2026-04-09T15:14:59.968Z</time></trkpt><trkpt lat="45.6511296" lon="10.263371"><ele>484.19999999999993</ele><time>2026-04-09T15:15:00.968Z</time></trkpt><trkpt lat="45.6511264" lon="10.2635124"><ele>484.8</ele><time>2026-04-09T15:15:01.967Z</time></trkpt><trkpt lat="45.6511212" lon="10.2636255"><ele>485.4</ele><time>2026-04-09T15:15:02.968Z</time></trkpt><trkpt lat="45.651134" lon="10.2637183"><ele>486.0</ele><time>2026-04-09T15:15:03.968Z</time></trkpt><trkpt lat="45.651165" lon="10.2638924"><ele>490.8333333333333</ele><time>2026-04-09T15:15:05.968Z</time></trkpt><trkpt lat="45.6511882" lon="10.2640019"><ele>495.66666666666663</ele><time>2026-04-09T15:15:06.968Z</time></trkpt><trkpt lat="45.651219" lon="10.2641133"><ele>500.5</ele><time>2026-04-09T15:15:07.968Z</time></trkpt><trkpt lat="45.6512511" lon="10.2642153"><ele>505.3333333333333</ele><time>2026-04-09T15:15:08.968Z</time></trkpt><trkpt lat="45.6512639" lon="10.2643143"><ele>510.16666666666663</ele><time>2026-04-09T15:15:09.968Z</time></trkpt><trkpt lat="45.6513039" lon="10.2644339"><ele>515.0</ele><time>2026-04-09T15:15:11.967Z</time></trkpt><trkpt lat="45.6513127" lon="10.2645669"><ele>515.0</ele><time>2026-04-09T15:15:13.968Z</time></trkpt><trkpt lat="45.6512932" lon="10.2646629"><ele>515.0</ele><time>2026-04-09T15:15:15.968Z</time></trkpt><trkpt lat="45.6512239" lon="10.2647428"><ele>515.0</ele><time>2026-04-09T15:15:17.968Z</time></trkpt><trkpt lat="45.6511568" lon="10.2647914"><ele>515.0</ele><time>2026-04-09T15:15:19.968Z</time></trkpt><trkpt lat="45.6510777" lon="10.264879"><ele>515.0</ele><time>2026-04-09T15:15:22.968Z</time></trkpt><trkpt lat="45.6510514" lon="10.2650136"><ele>515.0</ele><time>2026-04-09T15:15:24.967Z</time></trkpt><trkpt lat="45.6510359" lon="10.2651361"><ele>515.0</ele><time>2026-04-09T15:15:26.967Z</time></trkpt><trkpt lat="45.651072" lon="10.2652406"><ele>515.0</ele><time>2026-04-09T15:15:28.968Z</time></trkpt><trkpt lat="45.6511693" lon="10.2653069"><ele>515.0</ele><time>2026-04-09T15:15:31.967Z</time></trkpt><trkpt lat="45.6512271" lon="10.2654347"><ele>515.0</ele><time>2026-04-09T15:15:33.968Z</time></trkpt><trkpt lat="45.6512609" lon="10.2655317"><ele>515.0</ele><time>2026-04-09T15:15:34.968Z</time></trkpt><trkpt lat="45.6512869" lon="10.2656272"><ele>515.0</ele><time>2026-04-09T15:15:35.968Z</time></trkpt><trkpt lat="45.6512985" lon="10.2657271"><ele>515.0</ele><time>2026-04-09T15:15:36.968Z</time></trkpt><trkpt lat="45.651317" lon="10.2658504"><ele>515.0</ele><time>2026-04-09T15:15:37.968Z</time></trkpt><trkpt lat="45.6513436" lon="10.2659751"><ele>515.0</ele><time>2026-04-09T15:15:38.968Z</time></trkpt><trkpt lat="45.6513772" lon="10.2660834"><ele>515.0</ele><time>2026-04-09T15:15:39.967Z</time></trkpt><trkpt lat="45.6514213" lon="10.2661983"><ele>515.0</ele><time>2026-04-09T15:15:40.967Z</time></trkpt><trkpt lat="45.6514521" lon="10.2663168"><ele>515.0</ele><time>2026-04-09T15:15:41.968Z</time></trkpt><trkpt lat="45.651465" lon="10.2664335"><ele>516.0</ele><time>2026-04-09T15:15:42.967Z</time></trkpt><trkpt lat="45.6514714" lon="10.2665574"><ele>517.0</ele><time>2026-04-09T15:15:43.968Z</time></trkpt><trkpt lat="45.6514727" lon="10.2666823"><ele>518.0</ele><time>2026-04-09T15:15:44.968Z</time></trkpt><trkpt lat="45.6514749" lon="10.2668251"><ele>519.0</ele><time>2026-04-09T15:15:45.968Z</time></trkpt><trkpt lat="45.6514851" lon="10.2669759"><ele>520.0</ele><time>2026-04-09T15:15:46.967Z</time></trkpt><trkpt lat="45.6514908" lon="10.267124"><ele>520.0</ele><time>2026-04-09T15:15:47.968Z</time></trkpt><trkpt lat="45.6514978" lon="10.2672586"><ele>520.0</ele><time>2026-04-09T15:15:48.967Z</time></trkpt><trkpt lat="45.651504" lon="10.2673863"><ele>520.0</ele><time>2026-04-09T15:15:49.967Z</time></trkpt><trkpt lat="45.6515152" lon="10.2675197"><ele>520.0</ele><time>2026-04-09T15:15:50.967Z</time></trkpt><trkpt lat="45.6515232" lon="10.2676568"><ele>520.0</ele><time>2026-04-09T15:15:51.968Z</time></trkpt><trkpt lat="45.6515226" lon="10.267801"><ele>521.4</ele><time>2026-04-09T15:15:52.968Z</time></trkpt><trkpt lat="45.6515263" lon="10.2679376"><ele>522.8</ele><time>2026-04-09T15:15:53.968Z</time></trkpt><trkpt lat="45.6515064" lon="10.2680871"><ele>524.2</ele><time>2026-04-09T15:15:54.968Z</time></trkpt><trkpt lat="45.6514736" lon="10.2682446"><ele>525.6</ele><time>2026-04-09T15:15:55.968Z</time></trkpt><trkpt lat="45.6514147" lon="10.2684106"><ele>527.0</ele><time>2026-04-09T15:15:56.967Z</time></trkpt><trkpt lat="45.6513593" lon="10.2685717"><ele>528.5</ele><time>2026-04-09T15:15:57.968Z</time></trkpt><trkpt lat="45.6513172" lon="10.2687137"><ele>530.0</ele><time>2026-04-09T15:15:58.968Z</time></trkpt><trkpt lat="45.6513043" lon="10.268834"><ele>531.5</ele><time>2026-04-09T15:15:59.968Z</time></trkpt><trkpt lat="45.6512913" lon="10.2689479"><ele>533.0</ele><time>2026-04-09T15:16:00.967Z</time></trkpt><trkpt lat="45.6512964" lon="10.2690531"><ele>534.5</ele><time>2026-04-09T15:16:01.967Z</time></trkpt><trkpt lat="45.6513127" lon="10.2691554"><ele>536.0</ele><time>2026-04-09T15:16:02.967Z</time></trkpt><trkpt lat="45.6513405" lon="10.2692372"><ele>536.5</ele><time>2026-04-09T15:16:03.968Z</time></trkpt><trkpt lat="45.6513885" lon="10.2693596"><ele>537.0</ele><time>2026-04-09T15:16:05.968Z</time></trkpt><trkpt lat="45.6514314" lon="10.2694495"><ele>537.5</ele><time>2026-04-09T15:16:07.968Z</time></trkpt><trkpt lat="45.6514595" lon="10.2695319"><ele>538.0</ele><time>2026-04-09T15:16:09.968Z</time></trkpt><trkpt lat="45.6514742" lon="10.269629"><ele>538.5</ele><time>2026-04-09T15:16:11.967Z</time></trkpt><trkpt lat="45.6514452" lon="10.2697886"><ele>539.0</ele><time>2026-04-09T15:16:13.968Z</time></trkpt><trkpt lat="45.6514079" lon="10.2699063"><ele>540.0</ele><time>2026-04-09T15:16:14.967Z</time></trkpt><trkpt lat="45.6513644" lon="10.2700481"><ele>541.0</ele><time>2026-04-09T15:16:15.968Z</time></trkpt><trkpt lat="45.6513207" lon="10.2701978"><ele>542.0</ele><time>2026-04-09T15:16:16.967Z</time></trkpt><trkpt lat="45.6512713" lon="10.2703584"><ele>543.0</ele><time>2026-04-09T15:16:17.968Z</time></trkpt><trkpt lat="45.6512076" lon="10.2705491"><ele>542.75</ele><time>2026-04-09T15:16:18.968Z</time></trkpt><trkpt lat="45.6511381" lon="10.270734"><ele>542.5</ele><time>2026-04-09T15:16:19.968Z</time></trkpt><trkpt lat="45.6510759" lon="10.2709013"><ele>542.25</ele><time>2026-04-09T15:16:20.968Z</time></trkpt><trkpt lat="45.6510234" lon="10.2710586"><ele>542.0</ele><time>2026-04-09T15:16:21.968Z</time></trkpt><trkpt lat="45.6509825" lon="10.2712269"><ele>542.0</ele><time>2026-04-09T15:16:22.968Z</time></trkpt><trkpt lat="45.6509474" lon="10.2713986"><ele>542.0</ele><time>2026-04-09T15:16:23.968Z</time></trkpt><trkpt lat="45.6509202" lon="10.2715726"><ele>542.0</ele><time>2026-04-09T15:16:24.967Z</time></trkpt><trkpt lat="45.6509167" lon="10.2717416"><ele>542.0</ele><time>2026-04-09T15:16:25.968Z</time></trkpt><trkpt lat="45.650947" lon="10.2719121"><ele>542.5</ele><time>2026-04-09T15:16:26.968Z</time></trkpt><trkpt lat="45.6509755" lon="10.2720946"><ele>543.0</ele><time>2026-04-09T15:16:27.967Z</time></trkpt><trkpt lat="45.651013" lon="10.2722752"><ele>543.5</ele><time>2026-04-09T15:16:28.967Z</time></trkpt><trkpt lat="45.6510442" lon="10.272459"><ele>544.0</ele><time>2026-04-09T15:16:29.968Z</time></trkpt><trkpt lat="45.651061" lon="10.2726356"><ele>544.0</ele><time>2026-04-09T15:16:30.968Z</time></trkpt><trkpt lat="45.6510797" lon="10.2728065"><ele>544.0</ele><time>2026-04-09T15:16:31.968Z</time></trkpt><trkpt lat="45.6510992" lon="10.2729737"><ele>544.0</ele><time>2026-04-09T15:16:32.968Z</time></trkpt><trkpt lat="45.6511202" lon="10.2731315"><ele>544.0</ele><time>2026-04-09T15:16:33.967Z</time></trkpt><trkpt lat="45.6511412" lon="10.2732749"><ele>547.2</ele><time>2026-04-09T15:16:34.968Z</time></trkpt><trkpt lat="45.6511526" lon="10.2733995"><ele>550.4</ele><time>2026-04-09T15:16:35.968Z</time></trkpt><trkpt lat="45.6511549" lon="10.2734996"><ele>553.6</ele><time>2026-04-09T15:16:36.967Z</time></trkpt><trkpt lat="45.6511976" lon="10.273647"><ele>556.8</ele><time>2026-04-09T15:16:38.968Z</time></trkpt><trkpt lat="45.6512885" lon="10.2736726"><ele>560.0</ele><time>2026-04-09T15:16:40.967Z</time></trkpt><trkpt lat="45.6513786" lon="10.2735378"><ele>560.0</ele><time>2026-04-09T15:16:42.968Z</time></trkpt><trkpt lat="45.6514156" lon="10.2733984"><ele>560.0</ele><time>2026-04-09T15:16:43.968Z</time></trkpt><trkpt lat="45.651452" lon="10.2732588"><ele>560.0</ele><time>2026-04-09T15:16:44.967Z</time></trkpt><trkpt lat="45.651494" lon="10.273121"><ele>560.0</ele><time>2026-04-09T15:16:45.968Z</time></trkpt><trkpt lat="45.6515297" lon="10.2730101"><ele>560.0</ele><time>2026-04-09T15:16:46.968Z</time></trkpt><trkpt lat="45.6515662" lon="10.2729137"><ele>560.0</ele><time>2026-04-09T15:16:47.968Z</time></trkpt><trkpt lat="45.6516338" lon="10.2727843"><ele>560.0</ele><time>2026-04-09T15:16:49.967Z</time></trkpt><trkpt lat="45.6517255" lon="10.2728109"><ele>560.0</ele><time>2026-04-09T15:16:51.968Z</time></trkpt><trkpt lat="45.6517723" lon="10.272927"><ele>560.0</ele><time>2026-04-09T15:16:53.968Z</time></trkpt><trkpt lat="45.6517748" lon="10.2730258"><ele>560.0</ele><time>2026-04-09T15:16:54.968Z</time></trkpt><trkpt lat="45.6517859" lon="10.2731208"><ele>560.0</ele><time>2026-04-09T15:16:55.968Z</time></trkpt><trkpt lat="45.6518125" lon="10.2732549"><ele>560.0</ele><time>2026-04-09T15:16:57.967Z</time></trkpt><trkpt lat="45.6518267" lon="10.2733577"><ele>560.0</ele><time>2026-04-09T15:17:00.968Z</time></trkpt><trkpt lat="45.6518287" lon="10.273461"><ele>560.0</ele><time>2026-04-09T15:17:12.968Z</time></trkpt><trkpt lat="45.6518594" lon="10.2735418"><ele>560.0</ele><time>2026-04-09T15:17:18.966Z</time></trkpt><trkpt lat="45.6518761" lon="10.2736405"><ele>560.0</ele><time>2026-04-09T15:17:20.967Z</time></trkpt><trkpt lat="45.6518913" lon="10.2737565"><ele>560.0</ele><time>2026-04-09T15:17:22.967Z</time></trkpt><trkpt lat="45.6519016" lon="10.2738743"><ele>560.0</ele><time>2026-04-09T15:17:24.967Z</time></trkpt><trkpt lat="45.6519229" lon="10.274"><ele>559.6</ele><time>2026-04-09T15:17:26.967Z</time></trkpt><trkpt lat="45.6519337" lon="10.2741042"><ele>559.2</ele><time>2026-04-09T15:17:28.967Z</time></trkpt><trkpt lat="45.6519609" lon="10.2742454"><ele>558.8</ele><time>2026-04-09T15:17:32.966Z</time></trkpt><trkpt lat="45.6520475" lon="10.2743192"><ele>558.4</ele><time>2026-04-09T15:17:34.967Z</time></trkpt><trkpt lat="45.6521408" lon="10.2743708"><ele>558.0</ele><time>2026-04-09T15:17:36.967Z</time></trkpt><trkpt lat="45.6521837" lon="10.2745424"><ele>561.1999999999999</ele><time>2026-04-09T15:17:38.967Z</time></trkpt><trkpt lat="45.6522015" lon="10.2746562"><ele>564.4</ele><time>2026-04-09T15:17:39.967Z</time></trkpt><trkpt lat="45.6522165" lon="10.2747848"><ele>567.5999999999999</ele><time>2026-04-09T15:17:40.967Z</time></trkpt><trkpt lat="45.6522427" lon="10.2749468"><ele>570.8</ele><time>2026-04-09T15:17:41.967Z</time></trkpt><trkpt lat="45.6522535" lon="10.2751209"><ele>574.0</ele><time>2026-04-09T15:17:42.967Z</time></trkpt><trkpt lat="45.6522746" lon="10.2752997"><ele>574.6</ele><time>2026-04-09T15:17:43.967Z</time></trkpt><trkpt lat="45.6522924" lon="10.2754723"><ele>575.2</ele><time>2026-04-09T15:17:44.967Z</time></trkpt><trkpt lat="45.6523065" lon="10.2756235"><ele>575.8000000000001</ele><time>2026-04-09T15:17:45.967Z</time></trkpt><trkpt lat="45.6523336" lon="10.2757668"><ele>576.4</ele><time>2026-04-09T15:17:46.967Z</time></trkpt><trkpt lat="45.6523546" lon="10.2759076"><ele>577.0</ele><time>2026-04-09T15:17:47.966Z</time></trkpt><trkpt lat="45.6523731" lon="10.2760327"><ele>577.6666666666667</ele><time>2026-04-09T15:17:48.967Z</time></trkpt><trkpt lat="45.6523985" lon="10.276141"><ele>578.3333333333334</ele><time>2026-04-09T15:17:49.966Z</time></trkpt><trkpt lat="45.6524676" lon="10.2762268"><ele>579.0</ele><time>2026-04-09T15:17:50.967Z</time></trkpt><trkpt lat="45.6525437" lon="10.2762616"><ele>579.6666666666666</ele><time>2026-04-09T15:17:51.967Z</time></trkpt><trkpt lat="45.6526365" lon="10.2762489"><ele>580.3333333333333</ele><time>2026-04-09T15:17:52.967Z</time></trkpt><trkpt lat="45.6527278" lon="10.2762114"><ele>581.0</ele><time>2026-04-09T15:17:53.967Z</time></trkpt><trkpt lat="45.6527985" lon="10.2761318"><ele>584.75</ele><time>2026-04-09T15:17:54.967Z</time></trkpt><trkpt lat="45.6528264" lon="10.2759721"><ele>588.5</ele><time>2026-04-09T15:17:55.967Z</time></trkpt><trkpt lat="45.6528375" lon="10.2757747"><ele>592.25</ele><time>2026-04-09T15:17:56.967Z</time></trkpt><trkpt lat="45.6528624" lon="10.2755232"><ele>596.0</ele><time>2026-04-09T15:17:57.967Z</time></trkpt><trkpt lat="45.652884" lon="10.2753029"><ele>596.0</ele><time>2026-04-09T15:17:58.967Z</time></trkpt><trkpt lat="45.6528989" lon="10.2751001"><ele>596.0</ele><time>2026-04-09T15:17:59.967Z</time></trkpt><trkpt lat="45.6529129" lon="10.2749482"><ele>596.0</ele><time>2026-04-09T15:18:00.967Z</time></trkpt><trkpt lat="45.6529252" lon="10.274849"><ele>596.0</ele><time>2026-04-09T15:18:01.967Z</time></trkpt><trkpt lat="45.6530105" lon="10.2748055"><ele>596.0</ele><time>2026-04-09T15:18:03.966Z</time></trkpt><trkpt lat="45.6530806" lon="10.2749293"><ele>596.0</ele><time>2026-04-09T15:18:05.967Z</time></trkpt><trkpt lat="45.6530951" lon="10.2750613"><ele>596.0</ele><time>2026-04-09T15:18:06.967Z</time></trkpt><trkpt lat="45.6531079" lon="10.2752461"><ele>596.0</ele><time>2026-04-09T15:18:07.966Z</time></trkpt><trkpt lat="45.6531186" lon="10.2754692"><ele>596.0</ele><time>2026-04-09T15:18:08.966Z</time></trkpt><trkpt lat="45.6531289" lon="10.2757128"><ele>596.2</ele><time>2026-04-09T15:18:09.967Z</time></trkpt><trkpt lat="45.6531481" lon="10.2758981"><ele>596.4000000000001</ele><time>2026-04-09T15:18:10.966Z</time></trkpt><trkpt lat="45.6532052" lon="10.2760181"><ele>596.6</ele><time>2026-04-09T15:18:11.966Z</time></trkpt><trkpt lat="45.6532863" lon="10.2761202"><ele>596.8000000000001</ele><time>2026-04-09T15:18:12.967Z</time></trkpt><trkpt lat="45.6533783" lon="10.2761525"><ele>597.0</ele><time>2026-04-09T15:18:13.967Z</time></trkpt><trkpt lat="45.6534823" lon="10.2761363"><ele>597.0</ele><time>2026-04-09T15:18:14.967Z</time></trkpt><trkpt lat="45.6535799" lon="10.2760711"><ele>597.0</ele><time>2026-04-09T15:18:15.967Z</time></trkpt><trkpt lat="45.6536449" lon="10.2759648"><ele>597.0</ele><time>2026-04-09T15:18:16.967Z</time></trkpt><trkpt lat="45.6536662" lon="10.2758188"><ele>597.0</ele><time>2026-04-09T15:18:17.966Z</time></trkpt><trkpt lat="45.6536721" lon="10.2756602"><ele>597.0</ele><time>2026-04-09T15:18:18.967Z</time></trkpt><trkpt lat="45.6536378" lon="10.275464"><ele>596.6666666666666</ele><time>2026-04-09T15:18:19.966Z</time></trkpt><trkpt lat="45.6536059" lon="10.2752373"><ele>596.3333333333333</ele><time>2026-04-09T15:18:20.967Z</time></trkpt><trkpt lat="45.6535873" lon="10.2750007"><ele>596.0</ele><time>2026-04-09T15:18:21.967Z</time></trkpt><trkpt lat="45.6535907" lon="10.274775"><ele>596.3333333333333</ele><time>2026-04-09T15:18:22.967Z</time></trkpt><trkpt lat="45.6536142" lon="10.2745315"><ele>596.6666666666666</ele><time>2026-04-09T15:18:23.967Z</time></trkpt><trkpt lat="45.6536516" lon="10.2742868"><ele>597.0</ele><time>2026-04-09T15:18:24.967Z</time></trkpt><trkpt lat="45.6537282" lon="10.273998"><ele>603.0</ele><time>2026-04-09T15:18:25.967Z</time></trkpt><trkpt lat="45.6538023" lon="10.2737054"><ele>609.0</ele><time>2026-04-09T15:18:26.967Z</time></trkpt><trkpt lat="45.6538674" lon="10.2734118"><ele>615.0</ele><time>2026-04-09T15:18:27.967Z</time></trkpt><trkpt lat="45.6539288" lon="10.2731177"><ele>613.3333333333334</ele><time>2026-04-09T15:18:28.967Z</time></trkpt><trkpt lat="45.6540123" lon="10.2728587"><ele>611.6666666666667</ele><time>2026-04-09T15:18:29.967Z</time></trkpt><trkpt lat="45.6541225" lon="10.2726509"><ele>610.0</ele><time>2026-04-09T15:18:30.967Z</time></trkpt><trkpt lat="45.6542533" lon="10.2724584"><ele>610.0</ele><time>2026-04-09T15:18:31.967Z</time></trkpt><trkpt lat="45.6543789" lon="10.2722734"><ele>610.0</ele><time>2026-04-09T15:18:32.967Z</time></trkpt><trkpt lat="45.6544868" lon="10.2720978"><ele>610.0</ele><time>2026-04-09T15:18:33.967Z</time></trkpt><trkpt lat="45.6545789" lon="10.2719645"><ele>612.3333333333334</ele><time>2026-04-09T15:18:34.966Z</time></trkpt><trkpt lat="45.6546644" lon="10.2718739"><ele>614.6666666666667</ele><time>2026-04-09T15:18:35.966Z</time></trkpt><trkpt lat="45.6547529" lon="10.2718384"><ele>617.0</ele><time>2026-04-09T15:18:36.967Z</time></trkpt><trkpt lat="45.6548276" lon="10.2718663"><ele>619.3333333333334</ele><time>2026-04-09T15:18:37.967Z</time></trkpt><trkpt lat="45.6548791" lon="10.271959"><ele>621.6666666666666</ele><time>2026-04-09T15:18:38.966Z</time></trkpt><trkpt lat="45.6549283" lon="10.2720533"><ele>624.0</ele><time>2026-04-09T15:18:39.967Z</time></trkpt><trkpt lat="45.6549426" lon="10.2721857"><ele>624.5</ele><time>2026-04-09T15:18:40.967Z</time></trkpt><trkpt lat="45.6549148" lon="10.272359"><ele>625.0</ele><time>2026-04-09T15:18:41.967Z</time></trkpt><trkpt lat="45.6548538" lon="10.2725552"><ele>625.5</ele><time>2026-04-09T15:18:42.967Z</time></trkpt><trkpt lat="45.6548047" lon="10.27276"><ele>626.0</ele><time>2026-04-09T15:18:43.967Z</time></trkpt><trkpt lat="45.6547464" lon="10.2729739"><ele>628.0</ele><time>2026-04-09T15:18:44.967Z</time></trkpt><trkpt lat="45.6546956" lon="10.2731916"><ele>630.0</ele><time>2026-04-09T15:18:45.967Z</time></trkpt><trkpt lat="45.6546594" lon="10.2734241"><ele>632.0</ele><time>2026-04-09T15:18:46.967Z</time></trkpt><trkpt lat="45.654644" lon="10.2736662"><ele>632.0</ele><time>2026-04-09T15:18:47.967Z</time></trkpt><trkpt lat="45.6546421" lon="10.2738923"><ele>632.0</ele><time>2026-04-09T15:18:48.967Z</time></trkpt><trkpt lat="45.6546401" lon="10.2741263"><ele>632.0</ele><time>2026-04-09T15:18:49.966Z</time></trkpt><trkpt lat="45.6546534" lon="10.274367"><ele>633.6666666666666</ele><time>2026-04-09T15:18:50.967Z</time></trkpt><trkpt lat="45.6546632" lon="10.274613"><ele>635.3333333333334</ele><time>2026-04-09T15:18:51.967Z</time></trkpt><trkpt lat="45.6546648" lon="10.2748504"><ele>637.0</ele><time>2026-04-09T15:18:52.967Z</time></trkpt><trkpt lat="45.6546727" lon="10.2750699"><ele>638.75</ele><time>2026-04-09T15:18:53.966Z</time></trkpt><trkpt lat="45.6546809" lon="10.2752764"><ele>640.5</ele><time>2026-04-09T15:18:54.966Z</time></trkpt><trkpt lat="45.6546778" lon="10.2754772"><ele>642.25</ele><time>2026-04-09T15:18:55.967Z</time></trkpt><trkpt lat="45.6546655" lon="10.2756818"><ele>644.0</ele><time>2026-04-09T15:18:56.967Z</time></trkpt><trkpt lat="45.6546408" lon="10.2758561"><ele>644.0</ele><time>2026-04-09T15:18:57.967Z</time></trkpt><trkpt lat="45.6546077" lon="10.2760181"><ele>644.0</ele><time>2026-04-09T15:18:58.966Z</time></trkpt><trkpt lat="45.6545878" lon="10.2761525"><ele>644.0</ele><time>2026-04-09T15:18:59.967Z</time></trkpt><trkpt lat="45.6546046" lon="10.2762726"><ele>644.0</ele><time>2026-04-09T15:19:00.967Z</time></trkpt><trkpt lat="45.654649" lon="10.2763638"><ele>644.0</ele><time>2026-04-09T15:19:01.966Z</time></trkpt><trkpt lat="45.6547144" lon="10.2764186"><ele>644.0</ele><time>2026-04-09T15:19:02.966Z</time></trkpt><trkpt lat="45.6547858" lon="10.2764334"><ele>644.0</ele><time>2026-04-09T15:19:03.967Z</time></trkpt><trkpt lat="45.6548616" lon="10.2764012"><ele>644.0</ele><time>2026-04-09T15:19:04.967Z</time></trkpt><trkpt lat="45.654916" lon="10.2763027"><ele>644.0</ele><time>2026-04-09T15:19:05.967Z</time></trkpt><trkpt lat="45.6549382" lon="10.2761577"><ele>644.0</ele><time>2026-04-09T15:19:06.966Z</time></trkpt><trkpt lat="45.6549202" lon="10.2760001"><ele>644.0</ele><time>2026-04-09T15:19:07.966Z</time></trkpt><trkpt lat="45.6548872" lon="10.2758114"><ele>644.0</ele><time>2026-04-09T15:19:08.967Z</time></trkpt><trkpt lat="45.6548652" lon="10.2756159"><ele>644.0</ele><time>2026-04-09T15:19:09.967Z</time></trkpt><trkpt lat="45.6548637" lon="10.2754401"><ele>644.0</ele><time>2026-04-09T15:19:10.967Z</time></trkpt><trkpt lat="45.6548929" lon="10.2752525"><ele>644.0</ele><time>2026-04-09T15:19:11.967Z</time></trkpt><trkpt lat="45.6549509" lon="10.275062"><ele>644.0</ele><time>2026-04-09T15:19:12.967Z</time></trkpt><trkpt lat="45.655035" lon="10.2748614"><ele>644.0</ele><time>2026-04-09T15:19:13.967Z</time></trkpt><trkpt lat="45.6551311" lon="10.2746444"><ele>646.0</ele><time>2026-04-09T15:19:14.966Z</time></trkpt><trkpt lat="45.6552391" lon="10.2743964"><ele>648.0</ele><time>2026-04-09T15:19:15.967Z</time></trkpt><trkpt lat="45.6553472" lon="10.274145"><ele>650.0</ele><time>2026-04-09T15:19:16.967Z</time></trkpt><trkpt lat="45.6554583" lon="10.2739007"><ele>650.0</ele><time>2026-04-09T15:19:17.967Z</time></trkpt><trkpt lat="45.6555631" lon="10.2736748"><ele>650.0</ele><time>2026-04-09T15:19:18.967Z</time></trkpt><trkpt lat="45.6556556" lon="10.2734681"><ele>650.0</ele><time>2026-04-09T15:19:19.966Z</time></trkpt><trkpt lat="45.6557425" lon="10.2732803"><ele>650.0</ele><time>2026-04-09T15:19:20.966Z</time></trkpt><trkpt lat="45.6558186" lon="10.2731267"><ele>650.0</ele><time>2026-04-09T15:19:21.966Z</time></trkpt><trkpt lat="45.6558877" lon="10.2730102"><ele>650.0</ele><time>2026-04-09T15:19:22.967Z</time></trkpt><trkpt lat="45.6559663" lon="10.2729209"><ele>650.0</ele><time>2026-04-09T15:19:23.967Z</time></trkpt><trkpt lat="45.6560557" lon="10.2728884"><ele>650.0</ele><time>2026-04-09T15:19:24.967Z</time></trkpt><trkpt lat="45.6561544" lon="10.2729003"><ele>653.6</ele><time>2026-04-09T15:19:25.967Z</time></trkpt><trkpt lat="45.6562299" lon="10.272981"><ele>657.2</ele><time>2026-04-09T15:19:26.967Z</time></trkpt><trkpt lat="45.656263" lon="10.2731059"><ele>660.8</ele><time>2026-04-09T15:19:27.967Z</time></trkpt><trkpt lat="45.6562698" lon="10.2732489"><ele>664.4</ele><time>2026-04-09T15:19:28.967Z</time></trkpt><trkpt lat="45.6562513" lon="10.2734029"><ele>668.0</ele><time>2026-04-09T15:19:29.966Z</time></trkpt><trkpt lat="45.6562145" lon="10.2735702"><ele>670.6666666666666</ele><time>2026-04-09T15:19:30.966Z</time></trkpt><trkpt lat="45.6561467" lon="10.2737681"><ele>673.3333333333334</ele><time>2026-04-09T15:19:31.966Z</time></trkpt><trkpt lat="45.6560687" lon="10.2739852"><ele>676.0</ele><time>2026-04-09T15:19:32.967Z</time></trkpt><trkpt lat="45.6559829" lon="10.2742089"><ele>670.6666666666667</ele><time>2026-04-09T15:19:33.967Z</time></trkpt><trkpt lat="45.6558945" lon="10.2744355"><ele>665.3333333333334</ele><time>2026-04-09T15:19:34.967Z</time></trkpt><trkpt lat="45.65581" lon="10.2746828"><ele>660.0</ele><time>2026-04-09T15:19:35.966Z</time></trkpt><trkpt lat="45.6557139" lon="10.2749482"><ele>660.0</ele><time>2026-04-09T15:19:36.966Z</time></trkpt><trkpt lat="45.6556208" lon="10.2752231"><ele>660.0</ele><time>2026-04-09T15:19:37.966Z</time></trkpt><trkpt lat="45.6555316" lon="10.2755048"><ele>660.0</ele><time>2026-04-09T15:19:38.967Z</time></trkpt><trkpt lat="45.6554428" lon="10.2757803"><ele>655.3333333333334</ele><time>2026-04-09T15:19:39.967Z</time></trkpt><trkpt lat="45.6553532" lon="10.2760608"><ele>650.6666666666667</ele><time>2026-04-09T15:19:40.966Z</time></trkpt><trkpt lat="45.6552926" lon="10.2763675"><ele>646.0</ele><time>2026-04-09T15:19:41.967Z</time></trkpt><trkpt lat="45.6552649" lon="10.2766838"><ele>646.0</ele><time>2026-04-09T15:19:42.966Z</time></trkpt><trkpt lat="45.6552658" lon="10.2769931"><ele>646.0</ele><time>2026-04-09T15:19:43.967Z</time></trkpt><trkpt lat="45.6552877" lon="10.2772956"><ele>646.0</ele><time>2026-04-09T15:19:44.967Z</time></trkpt><trkpt lat="45.6553329" lon="10.2775942"><ele>654.6666666666667</ele><time>2026-04-09T15:19:45.967Z</time></trkpt><trkpt lat="45.6553761" lon="10.2779033"><ele>663.3333333333334</ele><time>2026-04-09T15:19:46.967Z</time></trkpt><trkpt lat="45.6553953" lon="10.2782256"><ele>672.0</ele><time>2026-04-09T15:19:47.967Z</time></trkpt><trkpt lat="45.6554" lon="10.2785547"><ele>672.0</ele><time>2026-04-09T15:19:48.967Z</time></trkpt><trkpt lat="45.6553916" lon="10.2788765"><ele>672.0</ele><time>2026-04-09T15:19:49.967Z</time></trkpt><trkpt lat="45.6553839" lon="10.279199"><ele>672.6666666666666</ele><time>2026-04-09T15:19:50.967Z</time></trkpt><trkpt lat="45.6553799" lon="10.2795243"><ele>673.3333333333333</ele><time>2026-04-09T15:19:51.967Z</time></trkpt><trkpt lat="45.6553766" lon="10.279829"><ele>674.0</ele><time>2026-04-09T15:19:52.967Z</time></trkpt><trkpt lat="45.6553687" lon="10.2801276"><ele>676.6666666666666</ele><time>2026-04-09T15:19:53.967Z</time></trkpt><trkpt lat="45.6553772" lon="10.2804135"><ele>679.3333333333334</ele><time>2026-04-09T15:19:54.967Z</time></trkpt><trkpt lat="45.6554238" lon="10.280687"><ele>682.0</ele><time>2026-04-09T15:19:55.966Z</time></trkpt><trkpt lat="45.6554919" lon="10.2809258"><ele>683.3333333333334</ele><time>2026-04-09T15:19:56.966Z</time></trkpt><trkpt lat="45.6555714" lon="10.2811378"><ele>684.6666666666666</ele><time>2026-04-09T15:19:57.967Z</time></trkpt><trkpt lat="45.6556378" lon="10.2813342"><ele>686.0</ele><time>2026-04-09T15:19:58.967Z</time></trkpt><trkpt lat="45.6556639" lon="10.2815177"><ele>686.25</ele><time>2026-04-09T15:19:59.967Z</time></trkpt><trkpt lat="45.6556468" lon="10.2816952"><ele>686.5</ele><time>2026-04-09T15:20:00.966Z</time></trkpt><trkpt lat="45.65558" lon="10.2818501"><ele>686.75</ele><time>2026-04-09T15:20:01.967Z</time></trkpt><trkpt lat="45.6554879" lon="10.2819774"><ele>687.0</ele><time>2026-04-09T15:20:02.967Z</time></trkpt><trkpt lat="45.6553639" lon="10.2820737"><ele>682.75</ele><time>2026-04-09T15:20:03.966Z</time></trkpt><trkpt lat="45.6552343" lon="10.2820856"><ele>678.5</ele><time>2026-04-09T15:20:04.966Z</time></trkpt><trkpt lat="45.6550951" lon="10.282044"><ele>674.25</ele><time>2026-04-09T15:20:05.967Z</time></trkpt><trkpt lat="45.6549498" lon="10.2819966"><ele>670.0</ele><time>2026-04-09T15:20:06.967Z</time></trkpt><trkpt lat="45.6548012" lon="10.2819588"><ele>670.0</ele><time>2026-04-09T15:20:07.967Z</time></trkpt><trkpt lat="45.654664" lon="10.281981"><ele>670.0</ele><time>2026-04-09T15:20:08.967Z</time></trkpt><trkpt lat="45.6545496" lon="10.2820481"><ele>670.0</ele><time>2026-04-09T15:20:09.967Z</time></trkpt><trkpt lat="45.6544533" lon="10.2821668"><ele>670.0</ele><time>2026-04-09T15:20:10.967Z</time></trkpt><trkpt lat="45.6543876" lon="10.2823305"><ele>667.6666666666667</ele><time>2026-04-09T15:20:11.967Z</time></trkpt><trkpt lat="45.6543481" lon="10.2825314"><ele>665.3333333333334</ele><time>2026-04-09T15:20:12.967Z</time></trkpt><trkpt lat="45.6543491" lon="10.282772"><ele>663.0</ele><time>2026-04-09T15:20:13.967Z</time></trkpt><trkpt lat="45.6543498" lon="10.2830391"><ele>664.0</ele><time>2026-04-09T15:20:14.967Z</time></trkpt><trkpt lat="45.6543492" lon="10.2832966"><ele>665.0</ele><time>2026-04-09T15:20:15.967Z</time></trkpt><trkpt lat="45.6543523" lon="10.2835628"><ele>666.0</ele><time>2026-04-09T15:20:16.967Z</time></trkpt><trkpt lat="45.6543497" lon="10.2838115"><ele>668.3333333333334</ele><time>2026-04-09T15:20:17.967Z</time></trkpt><trkpt lat="45.6543221" lon="10.284051"><ele>670.6666666666667</ele><time>2026-04-09T15:20:18.966Z</time></trkpt><trkpt lat="45.6542618" lon="10.28428"><ele>673.0</ele><time>2026-04-09T15:20:19.966Z</time></trkpt><trkpt lat="45.6541693" lon="10.2844871"><ele>673.0</ele><time>2026-04-09T15:20:20.966Z</time></trkpt><trkpt lat="45.6540455" lon="10.2846832"><ele>673.0</ele><time>2026-04-09T15:20:21.967Z</time></trkpt><trkpt lat="45.6539068" lon="10.2848881"><ele>673.0</ele><time>2026-04-09T15:20:22.966Z</time></trkpt><trkpt lat="45.6537682" lon="10.2851043"><ele>673.0</ele><time>2026-04-09T15:20:23.966Z</time></trkpt><trkpt lat="45.6536382" lon="10.2853237"><ele>673.0</ele><time>2026-04-09T15:20:24.965Z</time></trkpt><trkpt lat="45.6535044" lon="10.2855418"><ele>673.0</ele><time>2026-04-09T15:20:25.965Z</time></trkpt><trkpt lat="45.6533841" lon="10.285762"><ele>674.6666666666667</ele><time>2026-04-09T15:20:26.966Z</time></trkpt><trkpt lat="45.6532894" lon="10.285992"><ele>676.3333333333334</ele><time>2026-04-09T15:20:27.965Z</time></trkpt><trkpt lat="45.6532147" lon="10.2862359"><ele>678.0</ele><time>2026-04-09T15:20:28.966Z</time></trkpt><trkpt lat="45.6531522" lon="10.2864992"><ele>681.3333333333334</ele><time>2026-04-09T15:20:29.965Z</time></trkpt><trkpt lat="45.6530895" lon="10.2867763"><ele>684.6666666666667</ele><time>2026-04-09T15:20:30.965Z</time></trkpt><trkpt lat="45.6530384" lon="10.2870665"><ele>688.0</ele><time>2026-04-09T15:20:31.966Z</time></trkpt><trkpt lat="45.6529873" lon="10.2873761"><ele>691.6666666666667</ele><time>2026-04-09T15:20:32.965Z</time></trkpt><trkpt lat="45.6529353" lon="10.2876667"><ele>695.3333333333334</ele><time>2026-04-09T15:20:33.966Z</time></trkpt><trkpt lat="45.6528843" lon="10.28796"><ele>699.0</ele><time>2026-04-09T15:20:34.966Z</time></trkpt><trkpt lat="45.6528225" lon="10.288252"><ele>690.3333333333334</ele><time>2026-04-09T15:20:35.966Z</time></trkpt><trkpt lat="45.6527397" lon="10.2885318"><ele>681.6666666666667</ele><time>2026-04-09T15:20:36.966Z</time></trkpt><trkpt lat="45.6526189" lon="10.2887908"><ele>673.0</ele><time>2026-04-09T15:20:37.966Z</time></trkpt><trkpt lat="45.6524749" lon="10.2890269"><ele>673.0</ele><time>2026-04-09T15:20:38.965Z</time></trkpt><trkpt lat="45.6523112" lon="10.2892358"><ele>673.0</ele><time>2026-04-09T15:20:39.965Z</time></trkpt><trkpt lat="45.6521355" lon="10.2894279"><ele>673.0</ele><time>2026-04-09T15:20:40.965Z</time></trkpt><trkpt lat="45.6519568" lon="10.2896167"><ele>676.0</ele><time>2026-04-09T15:20:41.966Z</time></trkpt><trkpt lat="45.6517668" lon="10.2898129"><ele>679.0</ele><time>2026-04-09T15:20:42.966Z</time></trkpt><trkpt lat="45.6515791" lon="10.2900099"><ele>679.0</ele><time>2026-04-09T15:20:43.966Z</time></trkpt><trkpt lat="45.6514017" lon="10.2902087"><ele>679.0</ele><time>2026-04-09T15:20:44.966Z</time></trkpt><trkpt lat="45.6512239" lon="10.2904054"><ele>679.5</ele><time>2026-04-09T15:20:45.966Z</time></trkpt><trkpt lat="45.6510453" lon="10.2906024"><ele>680.0</ele><time>2026-04-09T15:20:46.965Z</time></trkpt><trkpt lat="45.6508647" lon="10.2908"><ele>680.0</ele><time>2026-04-09T15:20:47.966Z</time></trkpt><trkpt lat="45.6506858" lon="10.2909959"><ele>680.0</ele><time>2026-04-09T15:20:48.966Z</time></trkpt><trkpt lat="45.6505152" lon="10.2911898"><ele>680.0</ele><time>2026-04-09T15:20:49.965Z</time></trkpt><trkpt lat="45.6503628" lon="10.291391"><ele>677.6666666666666</ele><time>2026-04-09T15:20:50.966Z</time></trkpt><trkpt lat="45.6502212" lon="10.2915779"><ele>675.3333333333334</ele><time>2026-04-09T15:20:51.966Z</time></trkpt><trkpt lat="45.6500886" lon="10.2917667"><ele>673.0</ele><time>2026-04-09T15:20:52.966Z</time></trkpt><trkpt lat="45.6499594" lon="10.291956"><ele>673.0</ele><time>2026-04-09T15:20:53.966Z</time></trkpt><trkpt lat="45.6498333" lon="10.2921629"><ele>673.0</ele><time>2026-04-09T15:20:54.966Z</time></trkpt><trkpt lat="45.6497182" lon="10.2923861"><ele>673.0</ele><time>2026-04-09T15:20:55.966Z</time></trkpt><trkpt lat="45.6496196" lon="10.2926296"><ele>675.6666666666667</ele><time>2026-04-09T15:20:56.965Z</time></trkpt><trkpt lat="45.6495256" lon="10.2929036"><ele>678.3333333333334</ele><time>2026-04-09T15:20:57.966Z</time></trkpt><trkpt lat="45.6494351" lon="10.2932146"><ele>681.0</ele><time>2026-04-09T15:20:58.966Z</time></trkpt><trkpt lat="45.6493387" lon="10.2935467"><ele>681.0</ele><time>2026-04-09T15:20:59.965Z</time></trkpt><trkpt lat="45.6492215" lon="10.2939034"><ele>681.0</ele><time>2026-04-09T15:21:00.965Z</time></trkpt><trkpt lat="45.6490907" lon="10.2942687"><ele>688.5</ele><time>2026-04-09T15:21:01.966Z</time></trkpt><trkpt lat="45.6489572" lon="10.2946498"><ele>696.0</ele><time>2026-04-09T15:21:02.966Z</time></trkpt><trkpt lat="45.6488301" lon="10.2950433"><ele>696.0</ele><time>2026-04-09T15:21:03.966Z</time></trkpt><trkpt lat="45.6487018" lon="10.2954544"><ele>696.0</ele><time>2026-04-09T15:21:04.966Z</time></trkpt><trkpt lat="45.6485732" lon="10.2958607"><ele>752.0</ele><time>2026-04-09T15:21:05.966Z</time></trkpt><trkpt lat="45.6478077" lon="10.2982647"><ele>752.3333333333333</ele><time>2026-04-09T15:21:12.965Z</time></trkpt><trkpt lat="45.6477823" lon="10.2985904"><ele>752.6666666666666</ele><time>2026-04-09T15:21:13.966Z</time></trkpt><trkpt lat="45.6477685" lon="10.2988584"><ele>753.0</ele><time>2026-04-09T15:21:14.965Z</time></trkpt><trkpt lat="45.6478114" lon="10.2991613"><ele>753.0</ele><time>2026-04-09T15:21:15.966Z</time></trkpt><trkpt lat="45.6478656" lon="10.2994813"><ele>753.0</ele><time>2026-04-09T15:21:16.965Z</time></trkpt><trkpt lat="45.6479073" lon="10.2998045"><ele>749.0</ele><time>2026-04-09T15:21:17.966Z</time></trkpt><trkpt lat="45.6479543" lon="10.3001253"><ele>745.0</ele><time>2026-04-09T15:21:18.966Z</time></trkpt><trkpt lat="45.6479637" lon="10.30045"><ele>744.6666666666667</ele><time>2026-04-09T15:21:19.966Z</time></trkpt><trkpt lat="45.6479271" lon="10.3007485"><ele>744.3333333333334</ele><time>2026-04-09T15:21:20.966Z</time></trkpt><trkpt lat="45.6478671" lon="10.3010519"><ele>744.0</ele><time>2026-04-09T15:21:21.966Z</time></trkpt><trkpt lat="45.6477882" lon="10.3013481"><ele>730.0</ele><time>2026-04-09T15:21:22.965Z</time></trkpt><trkpt lat="45.6477072" lon="10.3016524"><ele>716.0</ele><time>2026-04-09T15:21:23.966Z</time></trkpt><trkpt lat="45.6476347" lon="10.3019674"><ele>721.0</ele><time>2026-04-09T15:21:24.966Z</time></trkpt><trkpt lat="45.6475681" lon="10.3022642"><ele>726.0</ele><time>2026-04-09T15:21:25.965Z</time></trkpt><trkpt lat="45.6474969" lon="10.3025566"><ele>731.0</ele><time>2026-04-09T15:21:26.965Z</time></trkpt><trkpt lat="45.6474322" lon="10.3028434"><ele>736.6666666666666</ele><time>2026-04-09T15:21:27.965Z</time></trkpt><trkpt lat="45.6473702" lon="10.3031066"><ele>742.3333333333334</ele><time>2026-04-09T15:21:28.966Z</time></trkpt><trkpt lat="45.6473114" lon="10.3033509"><ele>748.0</ele><time>2026-04-09T15:21:29.966Z</time></trkpt><trkpt lat="45.6472545" lon="10.3035755"><ele>748.0</ele><time>2026-04-09T15:21:30.966Z</time></trkpt><trkpt lat="45.6472075" lon="10.3037913"><ele>748.0</ele><time>2026-04-09T15:21:31.965Z</time></trkpt><trkpt lat="45.6471589" lon="10.3039912"><ele>748.0</ele><time>2026-04-09T15:21:32.966Z</time></trkpt><trkpt lat="45.6471194" lon="10.3041884"><ele>748.0</ele><time>2026-04-09T15:21:33.966Z</time></trkpt><trkpt lat="45.6470911" lon="10.3043866"><ele>748.25</ele><time>2026-04-09T15:21:34.966Z</time></trkpt><trkpt lat="45.6470721" lon="10.3045957"><ele>748.5</ele><time>2026-04-09T15:21:35.966Z</time></trkpt><trkpt lat="45.6470702" lon="10.3048025"><ele>748.75</ele><time>2026-04-09T15:21:36.966Z</time></trkpt><trkpt lat="45.6470808" lon="10.3050143"><ele>749.0</ele><time>2026-04-09T15:21:37.966Z</time></trkpt><trkpt lat="45.6470923" lon="10.3052252"><ele>746.3333333333333</ele><time>2026-04-09T15:21:38.966Z</time></trkpt><trkpt lat="45.6471074" lon="10.3054473"><ele>743.6666666666666</ele><time>2026-04-09T15:21:39.966Z</time></trkpt><trkpt lat="45.6471272" lon="10.3056717"><ele>741.0</ele><time>2026-04-09T15:21:40.966Z</time></trkpt><trkpt lat="45.6471514" lon="10.3059045"><ele>734.6666666666666</ele><time>2026-04-09T15:21:41.966Z</time></trkpt><trkpt lat="45.6471745" lon="10.3061404"><ele>728.3333333333333</ele><time>2026-04-09T15:21:42.966Z</time></trkpt><trkpt lat="45.6471926" lon="10.3063819"><ele>722.0</ele><time>2026-04-09T15:21:43.966Z</time></trkpt><trkpt lat="45.6472131" lon="10.3066393"><ele>718.0</ele><time>2026-04-09T15:21:44.966Z</time></trkpt><trkpt lat="45.6472357" lon="10.3069071"><ele>714.0</ele><time>2026-04-09T15:21:45.966Z</time></trkpt><trkpt lat="45.6472609" lon="10.3071928"><ele>710.0</ele><time>2026-04-09T15:21:46.966Z</time></trkpt><trkpt lat="45.6472928" lon="10.3074823"><ele>705.0</ele><time>2026-04-09T15:21:47.965Z</time></trkpt><trkpt lat="45.6473233" lon="10.3077922"><ele>700.0</ele><time>2026-04-09T15:21:48.966Z</time></trkpt><trkpt lat="45.6473563" lon="10.3081246"><ele>700.0</ele><time>2026-04-09T15:21:49.966Z</time></trkpt><trkpt lat="45.6473897" lon="10.3084627"><ele>700.0</ele><time>2026-04-09T15:21:50.966Z</time></trkpt><trkpt lat="45.647417" lon="10.3088106"><ele>707.0</ele><time>2026-04-09T15:21:51.966Z</time></trkpt><trkpt lat="45.6474377" lon="10.3091623"><ele>714.0</ele><time>2026-04-09T15:21:52.966Z</time></trkpt><trkpt lat="45.6474678" lon="10.30952"><ele>719.5</ele><time>2026-04-09T15:21:53.965Z</time></trkpt><trkpt lat="45.6474961" lon="10.3098696"><ele>725.0</ele><time>2026-04-09T15:21:54.965Z</time></trkpt><trkpt lat="45.6475248" lon="10.3102194"><ele>730.5</ele><time>2026-04-09T15:21:55.966Z</time></trkpt><trkpt lat="45.6475572" lon="10.3105789"><ele>736.0</ele><time>2026-04-09T15:21:56.966Z</time></trkpt><trkpt lat="45.6475899" lon="10.3109539"><ele>694.0</ele><time>2026-04-09T15:21:57.966Z</time></trkpt><trkpt lat="45.6479865" lon="10.3141386"><ele>694.0</ele><time>2026-04-09T15:22:06.965Z</time></trkpt><trkpt lat="45.6480723" lon="10.3144899"><ele>694.0</ele><time>2026-04-09T15:22:07.965Z</time></trkpt><trkpt lat="45.6481429" lon="10.314847"><ele>682.0</ele><time>2026-04-09T15:22:08.966Z</time></trkpt><trkpt lat="45.6482019" lon="10.3151968"><ele>670.0</ele><time>2026-04-09T15:22:09.965Z</time></trkpt><trkpt lat="45.6482525" lon="10.3155231"><ele>675.3333333333334</ele><time>2026-04-09T15:22:10.966Z</time></trkpt><trkpt lat="45.6482966" lon="10.3158413"><ele>680.6666666666666</ele><time>2026-04-09T15:22:11.966Z</time></trkpt><trkpt lat="45.6483474" lon="10.3161466"><ele>686.0</ele><time>2026-04-09T15:22:12.966Z</time></trkpt><trkpt lat="45.6483986" lon="10.316444"><ele>691.6666666666666</ele><time>2026-04-09T15:22:13.966Z</time></trkpt><trkpt lat="45.6484366" lon="10.3167411"><ele>697.3333333333334</ele><time>2026-04-09T15:22:14.966Z</time></trkpt><trkpt lat="45.6484462" lon="10.3170441"><ele>703.0</ele><time>2026-04-09T15:22:15.966Z</time></trkpt><trkpt lat="45.6484093" lon="10.3173569"><ele>709.0</ele><time>2026-04-09T15:22:16.966Z</time></trkpt><trkpt lat="45.6483447" lon="10.3176692"><ele>715.0</ele><time>2026-04-09T15:22:17.966Z</time></trkpt><trkpt lat="45.6482648" lon="10.3179746"><ele>715.0</ele><time>2026-04-09T15:22:18.965Z</time></trkpt><trkpt lat="45.6481707" lon="10.3182769"><ele>715.0</ele><time>2026-04-09T15:22:19.966Z</time></trkpt><trkpt lat="45.6462357" lon="10.3241487"><ele>715.0</ele><time>2026-04-09T15:22:38.966Z</time></trkpt><trkpt lat="45.646193" lon="10.3243046"><ele>715.0</ele><time>2026-04-09T15:22:39.966Z</time></trkpt><trkpt lat="45.6460938" lon="10.3246274"><ele>715.0</ele><time>2026-04-09T15:22:40.965Z</time></trkpt><trkpt lat="45.6471157" lon="10.3336461"><ele>698.0</ele><time>2026-04-09T15:23:07.966Z</time></trkpt><trkpt lat="45.6471398" lon="10.3339606"><ele>681.0</ele><time>2026-04-09T15:23:08.966Z</time></trkpt><trkpt lat="45.6471435" lon="10.3343081"><ele>681.0</ele><time>2026-04-09T15:23:09.966Z</time></trkpt><trkpt lat="45.6471295" lon="10.3346193"><ele>681.0</ele><time>2026-04-09T15:23:10.966Z</time></trkpt><trkpt lat="45.647113" lon="10.3349168"><ele>681.0</ele><time>2026-04-09T15:23:11.966Z</time></trkpt><trkpt lat="45.6471013" lon="10.3352019"><ele>680.6666666666666</ele><time>2026-04-09T15:23:12.966Z</time></trkpt><trkpt lat="45.6470818" lon="10.3354897"><ele>680.3333333333333</ele><time>2026-04-09T15:23:13.966Z</time></trkpt><trkpt lat="45.6470695" lon="10.335772"><ele>680.0</ele><time>2026-04-09T15:23:14.966Z</time></trkpt><trkpt lat="45.647067" lon="10.3360415"><ele>680.3333333333333</ele><time>2026-04-09T15:23:15.966Z</time></trkpt><trkpt lat="45.6470695" lon="10.3363047"><ele>680.6666666666666</ele><time>2026-04-09T15:23:16.966Z</time></trkpt><trkpt lat="45.6470818" lon="10.3365595"><ele>681.0</ele><time>2026-04-09T15:23:17.965Z</time></trkpt><trkpt lat="45.6471133" lon="10.3368082"><ele>681.0</ele><time>2026-04-09T15:23:18.966Z</time></trkpt><trkpt lat="45.6471714" lon="10.3370469"><ele>681.0</ele><time>2026-04-09T15:23:19.966Z</time></trkpt><trkpt lat="45.6472449" lon="10.3372659"><ele>681.0</ele><time>2026-04-09T15:23:20.966Z</time></trkpt><trkpt lat="45.6473286" lon="10.3374683"><ele>673.6666666666666</ele><time>2026-04-09T15:23:21.966Z</time></trkpt><trkpt lat="45.6474341" lon="10.3376531"><ele>666.3333333333333</ele><time>2026-04-09T15:23:22.966Z</time></trkpt><trkpt lat="45.6475412" lon="10.3378189"><ele>659.0</ele><time>2026-04-09T15:23:23.966Z</time></trkpt><trkpt lat="45.6476588" lon="10.3379746"><ele>657.0</ele><time>2026-04-09T15:23:24.966Z</time></trkpt><trkpt lat="45.6477861" lon="10.3381019"><ele>655.0</ele><time>2026-04-09T15:23:25.966Z</time></trkpt><trkpt lat="45.6479157" lon="10.3382008"><ele>653.0</ele><time>2026-04-09T15:23:26.966Z</time></trkpt><trkpt lat="45.6480624" lon="10.3382776"><ele>653.0</ele><time>2026-04-09T15:23:27.966Z</time></trkpt><trkpt lat="45.6482289" lon="10.3383576"><ele>653.0</ele><time>2026-04-09T15:23:28.966Z</time></trkpt><trkpt lat="45.6483982" lon="10.3384555"><ele>653.0</ele><time>2026-04-09T15:23:29.966Z</time></trkpt><trkpt lat="45.6485471" lon="10.3385372"><ele>651.75</ele><time>2026-04-09T15:23:30.965Z</time></trkpt><trkpt lat="45.6486798" lon="10.3386104"><ele>650.5</ele><time>2026-04-09T15:23:31.966Z</time></trkpt><trkpt lat="45.6488007" lon="10.3386787"><ele>649.25</ele><time>2026-04-09T15:23:32.966Z</time></trkpt><trkpt lat="45.6489132" lon="10.338757"><ele>648.0</ele><time>2026-04-09T15:23:33.966Z</time></trkpt><trkpt lat="45.6490105" lon="10.3388582"><ele>645.75</ele><time>2026-04-09T15:23:34.966Z</time></trkpt><trkpt lat="45.6490968" lon="10.3389756"><ele>643.5</ele><time>2026-04-09T15:23:35.965Z</time></trkpt><trkpt lat="45.6491733" lon="10.3391247"><ele>641.25</ele><time>2026-04-09T15:23:36.966Z</time></trkpt><trkpt lat="45.6492386" lon="10.3392917"><ele>639.0</ele><time>2026-04-09T15:23:37.966Z</time></trkpt><trkpt lat="45.6492829" lon="10.3394692"><ele>639.0</ele><time>2026-04-09T15:23:38.966Z</time></trkpt><trkpt lat="45.6493127" lon="10.3396461"><ele>639.0</ele><time>2026-04-09T15:23:39.966Z</time></trkpt><trkpt lat="45.6493255" lon="10.3398348"><ele>639.0</ele><time>2026-04-09T15:23:40.966Z</time></trkpt><trkpt lat="45.6493195" lon="10.3400149"><ele>639.0</ele><time>2026-04-09T15:23:41.965Z</time></trkpt><trkpt lat="45.6492986" lon="10.3402046"><ele>639.6666666666666</ele><time>2026-04-09T15:23:42.964Z</time></trkpt><trkpt lat="45.6492525" lon="10.3403963"><ele>640.3333333333333</ele><time>2026-04-09T15:23:43.965Z</time></trkpt><trkpt lat="45.6491827" lon="10.3405859"><ele>641.0</ele><time>2026-04-09T15:23:44.965Z</time></trkpt><trkpt lat="45.6490872" lon="10.3407774"><ele>641.0</ele><time>2026-04-09T15:23:45.965Z</time></trkpt><trkpt lat="45.6489597" lon="10.340972"><ele>641.0</ele><time>2026-04-09T15:23:46.965Z</time></trkpt><trkpt lat="45.6488156" lon="10.3411708"><ele>641.0</ele><time>2026-04-09T15:23:47.965Z</time></trkpt><trkpt lat="45.6486477" lon="10.3414217"><ele>633.5</ele><time>2026-04-09T15:23:48.965Z</time></trkpt><trkpt lat="45.6484784" lon="10.3416699"><ele>626.0</ele><time>2026-04-09T15:23:49.965Z</time></trkpt><trkpt lat="45.6483115" lon="10.3419034"><ele>626.0</ele><time>2026-04-09T15:23:50.965Z</time></trkpt><trkpt lat="45.6481637" lon="10.3421405"><ele>626.0</ele><time>2026-04-09T15:23:51.965Z</time></trkpt><trkpt lat="45.6480388" lon="10.3423677"><ele>626.0</ele><time>2026-04-09T15:23:52.965Z</time></trkpt><trkpt lat="45.6479445" lon="10.3426162"><ele>630.3333333333333</ele><time>2026-04-09T15:23:53.965Z</time></trkpt><trkpt lat="45.647866" lon="10.342881"><ele>634.6666666666666</ele><time>2026-04-09T15:23:54.964Z</time></trkpt><trkpt lat="45.6478066" lon="10.3431479"><ele>639.0</ele><time>2026-04-09T15:23:55.965Z</time></trkpt><trkpt lat="45.6477884" lon="10.3434212"><ele>639.3333333333334</ele><time>2026-04-09T15:23:56.964Z</time></trkpt><trkpt lat="45.6477884" lon="10.3436893"><ele>639.6666666666667</ele><time>2026-04-09T15:23:57.965Z</time></trkpt><trkpt lat="45.647801" lon="10.3439764"><ele>640.0</ele><time>2026-04-09T15:23:58.965Z</time></trkpt><trkpt lat="45.6478455" lon="10.3442712"><ele>640.0</ele><time>2026-04-09T15:23:59.965Z</time></trkpt><trkpt lat="45.6479076" lon="10.3445489"><ele>640.0</ele><time>2026-04-09T15:24:00.965Z</time></trkpt><trkpt lat="45.6479724" lon="10.3448089"><ele>640.0</ele><time>2026-04-09T15:24:01.965Z</time></trkpt><trkpt lat="45.6480308" lon="10.3450529"><ele>637.0</ele><time>2026-04-09T15:24:02.964Z</time></trkpt><trkpt lat="45.6480796" lon="10.3452653"><ele>634.0</ele><time>2026-04-09T15:24:03.965Z</time></trkpt><trkpt lat="45.6481189" lon="10.3454538"><ele>631.0</ele><time>2026-04-09T15:24:04.965Z</time></trkpt><trkpt lat="45.6481554" lon="10.3456115"><ele>628.0</ele><time>2026-04-09T15:24:05.965Z</time></trkpt><trkpt lat="45.6481809" lon="10.3457398"><ele>627.3333333333334</ele><time>2026-04-09T15:24:06.965Z</time></trkpt><trkpt lat="45.6481665" lon="10.3458595"><ele>626.6666666666667</ele><time>2026-04-09T15:24:07.965Z</time></trkpt><trkpt lat="45.6481146" lon="10.3459487"><ele>626.0</ele><time>2026-04-09T15:24:08.965Z</time></trkpt><trkpt lat="45.6480402" lon="10.3459802"><ele>625.3333333333334</ele><time>2026-04-09T15:24:09.965Z</time></trkpt><trkpt lat="45.64797" lon="10.3459392"><ele>624.6666666666666</ele><time>2026-04-09T15:24:10.965Z</time></trkpt><trkpt lat="45.6478922" lon="10.3458163"><ele>624.0</ele><time>2026-04-09T15:24:11.965Z</time></trkpt><trkpt lat="45.6478094" lon="10.3456113"><ele>614.3333333333334</ele><time>2026-04-09T15:24:12.965Z</time></trkpt><trkpt lat="45.6477216" lon="10.3453757"><ele>604.6666666666667</ele><time>2026-04-09T15:24:13.965Z</time></trkpt><trkpt lat="45.647603" lon="10.3451333"><ele>595.0</ele><time>2026-04-09T15:24:14.965Z</time></trkpt><trkpt lat="45.6474721" lon="10.344876"><ele>600.0</ele><time>2026-04-09T15:24:15.965Z</time></trkpt><trkpt lat="45.647335" lon="10.3446131"><ele>605.0</ele><time>2026-04-09T15:24:16.965Z</time></trkpt><trkpt lat="45.647204" lon="10.3443261"><ele>605.0</ele><time>2026-04-09T15:24:17.965Z</time></trkpt><trkpt lat="45.6470913" lon="10.3439989"><ele>605.0</ele><time>2026-04-09T15:24:18.965Z</time></trkpt><trkpt lat="45.6469913" lon="10.3436741"><ele>593.5</ele><time>2026-04-09T15:24:19.965Z</time></trkpt><trkpt lat="45.6469088" lon="10.3433641"><ele>582.0</ele><time>2026-04-09T15:24:20.965Z</time></trkpt><trkpt lat="45.6468409" lon="10.3430677"><ele>582.0</ele><time>2026-04-09T15:24:21.965Z</time></trkpt><trkpt lat="45.6467868" lon="10.3427947"><ele>582.0</ele><time>2026-04-09T15:24:22.965Z</time></trkpt><trkpt lat="45.6467379" lon="10.3425567"><ele>582.0</ele><time>2026-04-09T15:24:23.964Z</time></trkpt><trkpt lat="45.6466883" lon="10.3423452"><ele>582.5</ele><time>2026-04-09T15:24:24.965Z</time></trkpt><trkpt lat="45.6466452" lon="10.3421715"><ele>583.0</ele><time>2026-04-09T15:24:25.964Z</time></trkpt><trkpt lat="45.6465913" lon="10.3420215"><ele>583.5</ele><time>2026-04-09T15:24:26.964Z</time></trkpt><trkpt lat="45.6465081" lon="10.3419068"><ele>584.0</ele><time>2026-04-09T15:24:27.965Z</time></trkpt><trkpt lat="45.6464114" lon="10.3418719"><ele>584.0</ele><time>2026-04-09T15:24:28.965Z</time></trkpt><trkpt lat="45.6462993" lon="10.3419086"><ele>584.0</ele><time>2026-04-09T15:24:29.964Z</time></trkpt><trkpt lat="45.6462091" lon="10.3419795"><ele>584.0</ele><time>2026-04-09T15:24:30.965Z</time></trkpt><trkpt lat="45.6461452" lon="10.342104"><ele>584.0</ele><time>2026-04-09T15:24:31.965Z</time></trkpt><trkpt lat="45.6461261" lon="10.3422658"><ele>584.0</ele><time>2026-04-09T15:24:32.965Z</time></trkpt><trkpt lat="45.6461473" lon="10.3424328"><ele>583.3333333333333</ele><time>2026-04-09T15:24:33.965Z</time></trkpt><trkpt lat="45.6461931" lon="10.3426234"><ele>582.6666666666666</ele><time>2026-04-09T15:24:34.965Z</time></trkpt><trkpt lat="45.6462505" lon="10.3428429"><ele>582.0</ele><time>2026-04-09T15:24:35.965Z</time></trkpt><trkpt lat="45.6463105" lon="10.3430744"><ele>582.0</ele><time>2026-04-09T15:24:36.965Z</time></trkpt><trkpt lat="45.6463718" lon="10.3433161"><ele>582.0</ele><time>2026-04-09T15:24:37.964Z</time></trkpt><trkpt lat="45.6464356" lon="10.3435786"><ele>582.0</ele><time>2026-04-09T15:24:38.964Z</time></trkpt><trkpt lat="45.6465034" lon="10.3438543"><ele>580.6666666666666</ele><time>2026-04-09T15:24:39.965Z</time></trkpt><trkpt lat="45.6465726" lon="10.3441341"><ele>579.3333333333333</ele><time>2026-04-09T15:24:40.965Z</time></trkpt><trkpt lat="45.6466466" lon="10.3444113"><ele>578.0</ele><time>2026-04-09T15:24:41.965Z</time></trkpt><trkpt lat="45.646725" lon="10.3447018"><ele>571.5</ele><time>2026-04-09T15:24:42.965Z</time></trkpt><trkpt lat="45.6468087" lon="10.3450013"><ele>565.0</ele><time>2026-04-09T15:24:43.965Z</time></trkpt><trkpt lat="45.6468893" lon="10.3453133"><ele>575.0</ele><time>2026-04-09T15:24:44.964Z</time></trkpt><trkpt lat="45.6469644" lon="10.3456284"><ele>585.0</ele><time>2026-04-09T15:24:45.965Z</time></trkpt><trkpt lat="45.6470394" lon="10.3459371"><ele>585.0</ele><time>2026-04-09T15:24:46.965Z</time></trkpt><trkpt lat="45.6471064" lon="10.3462447"><ele>585.0</ele><time>2026-04-09T15:24:47.964Z</time></trkpt><trkpt lat="45.6471599" lon="10.3465354"><ele>585.0</ele><time>2026-04-09T15:24:48.964Z</time></trkpt><trkpt lat="45.6472008" lon="10.3468147"><ele>583.0</ele><time>2026-04-09T15:24:49.965Z</time></trkpt><trkpt lat="45.6472278" lon="10.3470854"><ele>581.0</ele><time>2026-04-09T15:24:50.965Z</time></trkpt><trkpt lat="45.6472507" lon="10.3473405"><ele>579.0</ele><time>2026-04-09T15:24:51.965Z</time></trkpt><trkpt lat="45.6472779" lon="10.347602"><ele>578.0</ele><time>2026-04-09T15:24:52.965Z</time></trkpt><trkpt lat="45.647327" lon="10.3478631"><ele>577.0</ele><time>2026-04-09T15:24:53.964Z</time></trkpt><trkpt lat="45.6474137" lon="10.3480989"><ele>576.0</ele><time>2026-04-09T15:24:54.965Z</time></trkpt><trkpt lat="45.6475383" lon="10.3483057"><ele>569.6666666666666</ele><time>2026-04-09T15:24:55.965Z</time></trkpt><trkpt lat="45.647684" lon="10.3484865"><ele>563.3333333333333</ele><time>2026-04-09T15:24:56.965Z</time></trkpt><trkpt lat="45.6478502" lon="10.3486749"><ele>557.0</ele><time>2026-04-09T15:24:57.964Z</time></trkpt><trkpt lat="45.6480144" lon="10.3488538"><ele>556.3333333333333</ele><time>2026-04-09T15:24:58.965Z</time></trkpt><trkpt lat="45.6481572" lon="10.3490391"><ele>555.6666666666666</ele><time>2026-04-09T15:24:59.965Z</time></trkpt><trkpt lat="45.6482904" lon="10.3492162"><ele>555.0</ele><time>2026-04-09T15:25:00.965Z</time></trkpt><trkpt lat="45.6484197" lon="10.3493666"><ele>555.0</ele><time>2026-04-09T15:25:01.965Z</time></trkpt><trkpt lat="45.6485566" lon="10.3494581"><ele>555.0</ele><time>2026-04-09T15:25:02.965Z</time></trkpt><trkpt lat="45.6487021" lon="10.3495016"><ele>555.0</ele><time>2026-04-09T15:25:03.965Z</time></trkpt><trkpt lat="45.6488617" lon="10.3495103"><ele>555.0</ele><time>2026-04-09T15:25:04.965Z</time></trkpt><trkpt lat="45.6490124" lon="10.349453"><ele>555.0</ele><time>2026-04-09T15:25:05.964Z</time></trkpt><trkpt lat="45.6491684" lon="10.3493247"><ele>555.0</ele><time>2026-04-09T15:25:06.965Z</time></trkpt><trkpt lat="45.6493062" lon="10.3491541"><ele>552.6666666666666</ele><time>2026-04-09T15:25:07.965Z</time></trkpt><trkpt lat="45.6494594" lon="10.3489623"><ele>550.3333333333333</ele><time>2026-04-09T15:25:08.965Z</time></trkpt><trkpt lat="45.6496195" lon="10.348768"><ele>548.0</ele><time>2026-04-09T15:25:09.964Z</time></trkpt><trkpt lat="45.6497714" lon="10.3485881"><ele>548.0</ele><time>2026-04-09T15:25:10.965Z</time></trkpt><trkpt lat="45.6499174" lon="10.3484245"><ele>548.0</ele><time>2026-04-09T15:25:11.965Z</time></trkpt><trkpt lat="45.6500342" lon="10.3482376"><ele>548.0</ele><time>2026-04-09T15:25:12.964Z</time></trkpt><trkpt lat="45.6501205" lon="10.3480298"><ele>541.0</ele><time>2026-04-09T15:25:13.965Z</time></trkpt><trkpt lat="45.6501904" lon="10.3477857"><ele>534.0</ele><time>2026-04-09T15:25:14.965Z</time></trkpt><trkpt lat="45.650272" lon="10.3475487"><ele>527.0</ele><time>2026-04-09T15:25:15.965Z</time></trkpt><trkpt lat="45.6503837" lon="10.347348"><ele>534.3333333333333</ele><time>2026-04-09T15:25:16.965Z</time></trkpt><trkpt lat="45.6505245" lon="10.347197"><ele>541.6666666666666</ele><time>2026-04-09T15:25:17.965Z</time></trkpt><trkpt lat="45.6506858" lon="10.3470773"><ele>549.0</ele><time>2026-04-09T15:25:18.964Z</time></trkpt><trkpt lat="45.6508713" lon="10.3469864"><ele>549.0</ele><time>2026-04-09T15:25:19.965Z</time></trkpt><trkpt lat="45.6510643" lon="10.3468974"><ele>549.0</ele><time>2026-04-09T15:25:20.965Z</time></trkpt><trkpt lat="45.651269" lon="10.3468022"><ele>549.0</ele><time>2026-04-09T15:25:21.965Z</time></trkpt><trkpt lat="45.6514836" lon="10.3466963"><ele>539.0</ele><time>2026-04-09T15:25:22.964Z</time></trkpt><trkpt lat="45.6516947" lon="10.3465683"><ele>529.0</ele><time>2026-04-09T15:25:23.965Z</time></trkpt><trkpt lat="45.6519061" lon="10.3464536"><ele>528.0</ele><time>2026-04-09T15:25:24.965Z</time></trkpt><trkpt lat="45.6521089" lon="10.3463256"><ele>527.0</ele><time>2026-04-09T15:25:25.964Z</time></trkpt><trkpt lat="45.6523189" lon="10.3462266"><ele>526.0</ele><time>2026-04-09T15:25:26.965Z</time></trkpt><trkpt lat="45.6525191" lon="10.3461212"><ele>526.0</ele><time>2026-04-09T15:25:27.965Z</time></trkpt><trkpt lat="45.6527125" lon="10.3460208"><ele>526.0</ele><time>2026-04-09T15:25:28.965Z</time></trkpt><trkpt lat="45.6528993" lon="10.3459122"><ele>526.0</ele><time>2026-04-09T15:25:29.965Z</time></trkpt><trkpt lat="45.6530829" lon="10.3458092"><ele>521.3333333333334</ele><time>2026-04-09T15:25:30.964Z</time></trkpt><trkpt lat="45.6532647" lon="10.3457193"><ele>516.6666666666666</ele><time>2026-04-09T15:25:31.965Z</time></trkpt><trkpt lat="45.6534376" lon="10.3456347"><ele>512.0</ele><time>2026-04-09T15:25:32.965Z</time></trkpt><trkpt lat="45.6536054" lon="10.3455522"><ele>514.0</ele><time>2026-04-09T15:25:33.965Z</time></trkpt><trkpt lat="45.6537672" lon="10.3454737"><ele>516.0</ele><time>2026-04-09T15:25:34.964Z</time></trkpt><trkpt lat="45.6539181" lon="10.3453965"><ele>518.0</ele><time>2026-04-09T15:25:35.965Z</time></trkpt><trkpt lat="45.6540766" lon="10.3453186"><ele>518.0</ele><time>2026-04-09T15:25:36.965Z</time></trkpt><trkpt lat="45.6542331" lon="10.3452431"><ele>518.0</ele><time>2026-04-09T15:25:37.965Z</time></trkpt><trkpt lat="45.654388" lon="10.3451833"><ele>518.0</ele><time>2026-04-09T15:25:38.964Z</time></trkpt><trkpt lat="45.6545448" lon="10.3451323"><ele>514.6666666666666</ele><time>2026-04-09T15:25:39.965Z</time></trkpt><trkpt lat="45.6546964" lon="10.3450987"><ele>511.33333333333337</ele><time>2026-04-09T15:25:40.964Z</time></trkpt><trkpt lat="45.654852" lon="10.3450896"><ele>508.0</ele><time>2026-04-09T15:25:41.965Z</time></trkpt><trkpt lat="45.6550008" lon="10.3450778"><ele>508.0</ele><time>2026-04-09T15:25:42.965Z</time></trkpt><trkpt lat="45.6551574" lon="10.345086"><ele>508.0</ele><time>2026-04-09T15:25:43.965Z</time></trkpt><trkpt lat="45.6553234" lon="10.3451031"><ele>508.0</ele><time>2026-04-09T15:25:44.965Z</time></trkpt><trkpt lat="45.6554998" lon="10.3451184"><ele>506.6666666666667</ele><time>2026-04-09T15:25:45.965Z</time></trkpt><trkpt lat="45.6556775" lon="10.3451287"><ele>505.33333333333337</ele><time>2026-04-09T15:25:46.964Z</time></trkpt><trkpt lat="45.6558675" lon="10.3451309"><ele>504.0</ele><time>2026-04-09T15:25:47.965Z</time></trkpt><trkpt lat="45.6560671" lon="10.3451188"><ele>500.66666666666663</ele><time>2026-04-09T15:25:48.965Z</time></trkpt><trkpt lat="45.6562612" lon="10.3450798"><ele>497.3333333333333</ele><time>2026-04-09T15:25:49.965Z</time></trkpt><trkpt lat="45.6564554" lon="10.3450222"><ele>494.0</ele><time>2026-04-09T15:25:50.965Z</time></trkpt><trkpt lat="45.6566448" lon="10.3449441"><ele>494.0</ele><time>2026-04-09T15:25:51.965Z</time></trkpt><trkpt lat="45.6568278" lon="10.3448381"><ele>494.0</ele><time>2026-04-09T15:25:52.965Z</time></trkpt><trkpt lat="45.6570124" lon="10.344711"><ele>494.0</ele><time>2026-04-09T15:25:53.965Z</time></trkpt><trkpt lat="45.6571823" lon="10.3445834"><ele>495.66666666666663</ele><time>2026-04-09T15:25:54.965Z</time></trkpt><trkpt lat="45.6573371" lon="10.344463"><ele>497.33333333333337</ele><time>2026-04-09T15:25:55.965Z</time></trkpt><trkpt lat="45.6574848" lon="10.3443511"><ele>499.0</ele><time>2026-04-09T15:25:56.965Z</time></trkpt><trkpt lat="45.6576329" lon="10.3442429"><ele>496.0</ele><time>2026-04-09T15:25:57.965Z</time></trkpt><trkpt lat="45.657786" lon="10.3441631"><ele>493.0</ele><time>2026-04-09T15:25:58.965Z</time></trkpt><trkpt lat="45.6579281" lon="10.3440904"><ele>490.0</ele><time>2026-04-09T15:25:59.964Z</time></trkpt><trkpt lat="45.6580649" lon="10.3440368"><ele>490.0</ele><time>2026-04-09T15:26:00.965Z</time></trkpt><trkpt lat="45.658204" lon="10.3440044"><ele>490.0</ele><time>2026-04-09T15:26:01.965Z</time></trkpt><trkpt lat="45.6583307" lon="10.3439982"><ele>490.0</ele><time>2026-04-09T15:26:02.965Z</time></trkpt><trkpt lat="45.6584538" lon="10.3439863"><ele>490.0</ele><time>2026-04-09T15:26:03.964Z</time></trkpt><trkpt lat="45.6585535" lon="10.3439757"><ele>488.0</ele><time>2026-04-09T15:26:04.965Z</time></trkpt><trkpt lat="45.6586458" lon="10.3439817"><ele>486.0</ele><time>2026-04-09T15:26:05.965Z</time></trkpt><trkpt lat="45.6587298" lon="10.3440308"><ele>484.0</ele><time>2026-04-09T15:26:06.965Z</time></trkpt><trkpt lat="45.6588246" lon="10.3440852"><ele>482.0</ele><time>2026-04-09T15:26:07.965Z</time></trkpt><trkpt lat="45.6589193" lon="10.3441026"><ele>480.0</ele><time>2026-04-09T15:26:08.964Z</time></trkpt><trkpt lat="45.6590162" lon="10.3440708"><ele>480.0</ele><time>2026-04-09T15:26:09.965Z</time></trkpt><trkpt lat="45.6591334" lon="10.3439959"><ele>480.0</ele><time>2026-04-09T15:26:10.965Z</time></trkpt><trkpt lat="45.659297" lon="10.3439462"><ele>480.0</ele><time>2026-04-09T15:26:11.964Z</time></trkpt><trkpt lat="45.6594665" lon="10.3439278"><ele>476.66666666666663</ele><time>2026-04-09T15:26:12.964Z</time></trkpt><trkpt lat="45.65965" lon="10.3439202"><ele>473.3333333333333</ele><time>2026-04-09T15:26:13.965Z</time></trkpt><trkpt lat="45.6598406" lon="10.3439195"><ele>470.0</ele><time>2026-04-09T15:26:14.965Z</time></trkpt><trkpt lat="45.6600529" lon="10.3438958"><ele>471.66666666666663</ele><time>2026-04-09T15:26:15.965Z</time></trkpt><trkpt lat="45.6602455" lon="10.3438234"><ele>473.33333333333337</ele><time>2026-04-09T15:26:16.965Z</time></trkpt><trkpt lat="45.6604439" lon="10.3437105"><ele>475.0</ele><time>2026-04-09T15:26:17.965Z</time></trkpt><trkpt lat="45.660637" lon="10.3435582"><ele>475.0</ele><time>2026-04-09T15:26:18.965Z</time></trkpt><trkpt lat="45.6608316" lon="10.3433818"><ele>475.0</ele><time>2026-04-09T15:26:19.964Z</time></trkpt><trkpt lat="45.661024" lon="10.3431754"><ele>471.0</ele><time>2026-04-09T15:26:20.964Z</time></trkpt><trkpt lat="45.6612133" lon="10.3429378"><ele>467.0</ele><time>2026-04-09T15:26:21.965Z</time></trkpt><trkpt lat="45.661404" lon="10.3427006"><ele>467.0</ele><time>2026-04-09T15:26:22.968Z</time></trkpt><trkpt lat="45.6615926" lon="10.3424913"><ele>467.0</ele><time>2026-04-09T15:26:23.968Z</time></trkpt><trkpt lat="45.6617799" lon="10.3423059"><ele>466.3333333333333</ele><time>2026-04-09T15:26:24.969Z</time></trkpt><trkpt lat="45.6619718" lon="10.3421365"><ele>465.66666666666663</ele><time>2026-04-09T15:26:25.968Z</time></trkpt><trkpt lat="45.6621489" lon="10.3419842"><ele>465.0</ele><time>2026-04-09T15:26:26.968Z</time></trkpt><trkpt lat="45.6623175" lon="10.3418321"><ele>465.0</ele><time>2026-04-09T15:26:27.969Z</time></trkpt><trkpt lat="45.6624694" lon="10.3416936"><ele>465.0</ele><time>2026-04-09T15:26:28.968Z</time></trkpt><trkpt lat="45.6626231" lon="10.3415543"><ele>465.0</ele><time>2026-04-09T15:26:29.969Z</time></trkpt><trkpt lat="45.6627648" lon="10.3414254"><ele>462.33333333333337</ele><time>2026-04-09T15:26:30.969Z</time></trkpt><trkpt lat="45.6629071" lon="10.3412975"><ele>459.6666666666667</ele><time>2026-04-09T15:26:31.969Z</time></trkpt><trkpt lat="45.6630423" lon="10.3411725"><ele>457.0</ele><time>2026-04-09T15:26:32.969Z</time></trkpt><trkpt lat="45.6631656" lon="10.3410564"><ele>457.0</ele><time>2026-04-09T15:26:33.969Z</time></trkpt><trkpt lat="45.6632869" lon="10.3409549"><ele>457.0</ele><time>2026-04-09T15:26:34.969Z</time></trkpt><trkpt lat="45.6634093" lon="10.3408913"><ele>457.0</ele><time>2026-04-09T15:26:35.969Z</time></trkpt><trkpt lat="45.6635296" lon="10.340887"><ele>457.0</ele><time>2026-04-09T15:26:36.969Z</time></trkpt><trkpt lat="45.6636508" lon="10.3409295"><ele>457.75</ele><time>2026-04-09T15:26:37.969Z</time></trkpt><trkpt lat="45.6637635" lon="10.3410139"><ele>458.5</ele><time>2026-04-09T15:26:38.969Z</time></trkpt><trkpt lat="45.6638424" lon="10.3411252"><ele>459.25</ele><time>2026-04-09T15:26:39.968Z</time></trkpt><trkpt lat="45.6639072" lon="10.3412786"><ele>460.0</ele><time>2026-04-09T15:26:40.968Z</time></trkpt><trkpt lat="45.6639483" lon="10.3414568"><ele>456.75</ele><time>2026-04-09T15:26:41.969Z</time></trkpt><trkpt lat="45.6639848" lon="10.3416357"><ele>453.5</ele><time>2026-04-09T15:26:42.969Z</time></trkpt><trkpt lat="45.6640072" lon="10.341813"><ele>450.25</ele><time>2026-04-09T15:26:43.968Z</time></trkpt><trkpt lat="45.6640308" lon="10.3419941"><ele>447.0</ele><time>2026-04-09T15:26:44.969Z</time></trkpt><trkpt lat="45.6640549" lon="10.3421889"><ele>445.0</ele><time>2026-04-09T15:26:45.969Z</time></trkpt><trkpt lat="45.6640735" lon="10.342386"><ele>443.0</ele><time>2026-04-09T15:26:46.968Z</time></trkpt><trkpt lat="45.6640784" lon="10.3425842"><ele>441.0</ele><time>2026-04-09T15:26:47.968Z</time></trkpt><trkpt lat="45.664069" lon="10.3427941"><ele>439.0</ele><time>2026-04-09T15:26:48.969Z</time></trkpt><trkpt lat="45.6640444" lon="10.3430291"><ele>440.33333333333337</ele><time>2026-04-09T15:26:49.969Z</time></trkpt><trkpt lat="45.6639996" lon="10.3432811"><ele>441.66666666666663</ele><time>2026-04-09T15:26:50.969Z</time></trkpt><trkpt lat="45.6639331" lon="10.3435516"><ele>443.0</ele><time>2026-04-09T15:26:51.969Z</time></trkpt><trkpt lat="45.663862" lon="10.3438405"><ele>445.0</ele><time>2026-04-09T15:26:52.969Z</time></trkpt><trkpt lat="45.6637849" lon="10.3441561"><ele>447.0</ele><time>2026-04-09T15:26:53.969Z</time></trkpt><trkpt lat="45.6637184" lon="10.3444827"><ele>446.5</ele><time>2026-04-09T15:26:54.968Z</time></trkpt><trkpt lat="45.6636499" lon="10.3448055"><ele>446.0</ele><time>2026-04-09T15:26:55.969Z</time></trkpt><trkpt lat="45.663583" lon="10.3451316"><ele>436.66666666666663</ele><time>2026-04-09T15:26:56.968Z</time></trkpt><trkpt lat="45.6635112" lon="10.3454414"><ele>427.33333333333337</ele><time>2026-04-09T15:26:57.969Z</time></trkpt><trkpt lat="45.6634361" lon="10.3457347"><ele>418.0</ele><time>2026-04-09T15:26:58.968Z</time></trkpt><trkpt lat="45.6633574" lon="10.3460189"><ele>418.0</ele><time>2026-04-09T15:26:59.969Z</time></trkpt><trkpt lat="45.6632489" lon="10.3462954"><ele>418.0</ele><time>2026-04-09T15:27:00.968Z</time></trkpt><trkpt lat="45.6631396" lon="10.3465447"><ele>418.0</ele><time>2026-04-09T15:27:01.969Z</time></trkpt><trkpt lat="45.6630339" lon="10.3467797"><ele>419.6666666666667</ele><time>2026-04-09T15:27:02.969Z</time></trkpt><trkpt lat="45.6629346" lon="10.3469945"><ele>421.33333333333337</ele><time>2026-04-09T15:27:03.969Z</time></trkpt><trkpt lat="45.6628357" lon="10.3471929"><ele>423.0</ele><time>2026-04-09T15:27:04.969Z</time></trkpt><trkpt lat="45.6627393" lon="10.3473855"><ele>419.25</ele><time>2026-04-09T15:27:05.969Z</time></trkpt><trkpt lat="45.6626531" lon="10.3475615"><ele>415.5</ele><time>2026-04-09T15:27:06.968Z</time></trkpt><trkpt lat="45.662577" lon="10.3477315"><ele>411.75</ele><time>2026-04-09T15:27:07.969Z</time></trkpt><trkpt lat="45.6624971" lon="10.3478888"><ele>408.0</ele><time>2026-04-09T15:27:08.969Z</time></trkpt><trkpt lat="45.6624411" lon="10.348041"><ele>407.0</ele><time>2026-04-09T15:27:09.969Z</time></trkpt><trkpt lat="45.6624313" lon="10.3481844"><ele>406.0</ele><time>2026-04-09T15:27:10.969Z</time></trkpt><trkpt lat="45.66246" lon="10.3483172"><ele>405.0</ele><time>2026-04-09T15:27:11.968Z</time></trkpt><trkpt lat="45.6625117" lon="10.348429"><ele>404.0</ele><time>2026-04-09T15:27:12.968Z</time></trkpt><trkpt lat="45.6625768" lon="10.3485187"><ele>403.0</ele><time>2026-04-09T15:27:13.969Z</time></trkpt><trkpt lat="45.6626765" lon="10.3485713"><ele>403.75</ele><time>2026-04-09T15:27:14.968Z</time></trkpt><trkpt lat="45.6627987" lon="10.3485577"><ele>404.5</ele><time>2026-04-09T15:27:15.969Z</time></trkpt><trkpt lat="45.6629251" lon="10.3485149"><ele>405.25</ele><time>2026-04-09T15:27:16.969Z</time></trkpt><trkpt lat="45.6630619" lon="10.3484572"><ele>406.0</ele><time>2026-04-09T15:27:17.969Z</time></trkpt><trkpt lat="45.6632159" lon="10.3484044"><ele>406.0</ele><time>2026-04-09T15:27:18.969Z</time></trkpt><trkpt lat="45.6633953" lon="10.3483364"><ele>406.0</ele><time>2026-04-09T15:27:19.969Z</time></trkpt><trkpt lat="45.6635811" lon="10.3482782"><ele>406.0</ele><time>2026-04-09T15:27:20.969Z</time></trkpt><trkpt lat="45.6637576" lon="10.3482185"><ele>405.6666666666667</ele><time>2026-04-09T15:27:21.968Z</time></trkpt><trkpt lat="45.6639274" lon="10.3481643"><ele>405.33333333333337</ele><time>2026-04-09T15:27:22.969Z</time></trkpt><trkpt lat="45.6640731" lon="10.3481109"><ele>405.0</ele><time>2026-04-09T15:27:23.969Z</time></trkpt><trkpt lat="45.6642029" lon="10.3480523"><ele>408.5</ele><time>2026-04-09T15:27:24.969Z</time></trkpt><trkpt lat="45.6643207" lon="10.3480048"><ele>412.0</ele><time>2026-04-09T15:27:25.969Z</time></trkpt><trkpt lat="45.6644379" lon="10.3479602"><ele>415.5</ele><time>2026-04-09T15:27:26.969Z</time></trkpt><trkpt lat="45.6645576" lon="10.3479304"><ele>419.0</ele><time>2026-04-09T15:27:27.969Z</time></trkpt><trkpt lat="45.6646655" lon="10.3479143"><ele>419.0</ele><time>2026-04-09T15:27:28.969Z</time></trkpt><trkpt lat="45.6647691" lon="10.3479716"><ele>419.0</ele><time>2026-04-09T15:27:29.969Z</time></trkpt><trkpt lat="45.6648453" lon="10.3480803"><ele>419.0</ele><time>2026-04-09T15:27:30.969Z</time></trkpt><trkpt lat="45.6648773" lon="10.3482293"><ele>419.0</ele><time>2026-04-09T15:27:31.969Z</time></trkpt><trkpt lat="45.6648851" lon="10.3483828"><ele>419.0</ele><time>2026-04-09T15:27:32.968Z</time></trkpt><trkpt lat="45.6648496" lon="10.3485187"><ele>418.25</ele><time>2026-04-09T15:27:33.969Z</time></trkpt><trkpt lat="45.6647751" lon="10.3486505"><ele>417.5</ele><time>2026-04-09T15:27:34.969Z</time></trkpt><trkpt lat="45.6646703" lon="10.3487871"><ele>416.75</ele><time>2026-04-09T15:27:35.969Z</time></trkpt><trkpt lat="45.6645573" lon="10.3489429"><ele>416.0</ele><time>2026-04-09T15:27:36.968Z</time></trkpt><trkpt lat="45.6644363" lon="10.3491115"><ele>410.0</ele><time>2026-04-09T15:27:37.969Z</time></trkpt><trkpt lat="45.6643135" lon="10.349286"><ele>404.0</ele><time>2026-04-09T15:27:38.969Z</time></trkpt><trkpt lat="45.6641708" lon="10.3494785"><ele>398.0</ele><time>2026-04-09T15:27:39.968Z</time></trkpt><trkpt lat="45.6640266" lon="10.3496811"><ele>399.3333333333333</ele><time>2026-04-09T15:27:40.969Z</time></trkpt><trkpt lat="45.6638777" lon="10.3498725"><ele>400.66666666666663</ele><time>2026-04-09T15:27:41.969Z</time></trkpt><trkpt lat="45.6637319" lon="10.3500608"><ele>402.0</ele><time>2026-04-09T15:27:42.968Z</time></trkpt><trkpt lat="45.6635893" lon="10.3502457"><ele>400.0</ele><time>2026-04-09T15:27:43.969Z</time></trkpt><trkpt lat="45.6634431" lon="10.3504306"><ele>398.0</ele><time>2026-04-09T15:27:44.968Z</time></trkpt><trkpt lat="45.6632852" lon="10.3506175"><ele>396.0</ele><time>2026-04-09T15:27:45.969Z</time></trkpt><trkpt lat="45.6631142" lon="10.3508055"><ele>396.0</ele><time>2026-04-09T15:27:46.969Z</time></trkpt><trkpt lat="45.662939" lon="10.3509898"><ele>396.0</ele><time>2026-04-09T15:27:47.969Z</time></trkpt><trkpt lat="45.6627547" lon="10.3511681"><ele>396.0</ele><time>2026-04-09T15:27:48.969Z</time></trkpt><trkpt lat="45.6625669" lon="10.3513477"><ele>394.0</ele><time>2026-04-09T15:27:49.968Z</time></trkpt><trkpt lat="45.6623804" lon="10.3515301"><ele>392.0</ele><time>2026-04-09T15:27:50.968Z</time></trkpt><trkpt lat="45.6621977" lon="10.3517118"><ele>390.0</ele><time>2026-04-09T15:27:51.968Z</time></trkpt><trkpt lat="45.6620167" lon="10.3519195"><ele>384.5</ele><time>2026-04-09T15:27:52.969Z</time></trkpt><trkpt lat="45.6618453" lon="10.3521579"><ele>379.0</ele><time>2026-04-09T15:27:53.968Z</time></trkpt><trkpt lat="45.6616902" lon="10.3524216"><ele>379.0</ele><time>2026-04-09T15:27:54.969Z</time></trkpt><trkpt lat="45.6615426" lon="10.3526951"><ele>379.0</ele><time>2026-04-09T15:27:55.968Z</time></trkpt><trkpt lat="45.661402" lon="10.35298"><ele>380.5</ele><time>2026-04-09T15:27:56.968Z</time></trkpt><trkpt lat="45.6612654" lon="10.3532812"><ele>382.0</ele><time>2026-04-09T15:27:57.968Z</time></trkpt><trkpt lat="45.6611266" lon="10.3535961"><ele>376.5</ele><time>2026-04-09T15:27:58.969Z</time></trkpt><trkpt lat="45.6609825" lon="10.3539107"><ele>371.0</ele><time>2026-04-09T15:27:59.969Z</time></trkpt><trkpt lat="45.6608339" lon="10.354233"><ele>371.0</ele><time>2026-04-09T15:28:00.969Z</time></trkpt><trkpt lat="45.6606821" lon="10.3545509"><ele>371.0</ele><time>2026-04-09T15:28:01.969Z</time></trkpt><trkpt lat="45.6605387" lon="10.3548724"><ele>372.0</ele><time>2026-04-09T15:28:02.968Z</time></trkpt><trkpt lat="45.6603927" lon="10.3551978"><ele>373.0</ele><time>2026-04-09T15:28:03.969Z</time></trkpt><trkpt lat="45.6602467" lon="10.3555296"><ele>367.0</ele><time>2026-04-09T15:28:04.968Z</time></trkpt><trkpt lat="45.6600916" lon="10.3558552"><ele>361.0</ele><time>2026-04-09T15:28:05.969Z</time></trkpt><trkpt lat="45.6599346" lon="10.356194"><ele>360.5</ele><time>2026-04-09T15:28:06.968Z</time></trkpt><trkpt lat="45.6597786" lon="10.3565332"><ele>360.0</ele><time>2026-04-09T15:28:07.968Z</time></trkpt><trkpt lat="45.6596249" lon="10.3568671"><ele>358.0</ele><time>2026-04-09T15:28:08.969Z</time></trkpt><trkpt lat="45.6594747" lon="10.3572025"><ele>356.0</ele><time>2026-04-09T15:28:09.969Z</time></trkpt><trkpt lat="45.6593169" lon="10.3575379"><ele>355.5</ele><time>2026-04-09T15:28:10.969Z</time></trkpt><trkpt lat="45.6591658" lon="10.3578743"><ele>355.0</ele><time>2026-04-09T15:28:11.969Z</time></trkpt><trkpt lat="45.6590058" lon="10.3582163"><ele>354.0</ele><time>2026-04-09T15:28:12.968Z</time></trkpt><trkpt lat="45.6588477" lon="10.3585532"><ele>353.0</ele><time>2026-04-09T15:28:13.969Z</time></trkpt><trkpt lat="45.6586902" lon="10.3588892"><ele>350.5</ele><time>2026-04-09T15:28:14.969Z</time></trkpt><trkpt lat="45.6585368" lon="10.3592225"><ele>348.0</ele><time>2026-04-09T15:28:15.969Z</time></trkpt><trkpt lat="45.6583783" lon="10.3595613"><ele>347.0</ele><time>2026-04-09T15:28:16.969Z</time></trkpt><trkpt lat="45.6582238" lon="10.3599013"><ele>346.0</ele><time>2026-04-09T15:28:17.969Z</time></trkpt><trkpt lat="45.6580685" lon="10.3602366"><ele>344.5</ele><time>2026-04-09T15:28:18.969Z</time></trkpt><trkpt lat="45.6579128" lon="10.3605688"><ele>343.0</ele><time>2026-04-09T15:28:19.969Z</time></trkpt><trkpt lat="45.6577571" lon="10.360905"><ele>342.5</ele><time>2026-04-09T15:28:20.969Z</time></trkpt><trkpt lat="45.6576055" lon="10.3612479"><ele>342.0</ele><time>2026-04-09T15:28:21.969Z</time></trkpt><trkpt lat="45.6574657" lon="10.3615942"><ele>342.0</ele><time>2026-04-09T15:28:22.969Z</time></trkpt><trkpt lat="45.6573292" lon="10.3619468"><ele>342.0</ele><time>2026-04-09T15:28:23.968Z</time></trkpt><trkpt lat="45.6571991" lon="10.3623019"><ele>342.0</ele><time>2026-04-09T15:28:24.968Z</time></trkpt><trkpt lat="45.6570682" lon="10.3626611"><ele>342.0</ele><time>2026-04-09T15:28:25.969Z</time></trkpt><trkpt lat="45.6569362" lon="10.3630176"><ele>338.0</ele><time>2026-04-09T15:28:26.968Z</time></trkpt><trkpt lat="45.656805" lon="10.3633707"><ele>334.0</ele><time>2026-04-09T15:28:27.968Z</time></trkpt><trkpt lat="45.6566709" lon="10.3637243"><ele>333.5</ele><time>2026-04-09T15:28:28.969Z</time></trkpt><trkpt lat="45.6565409" lon="10.3640824"><ele>333.0</ele><time>2026-04-09T15:28:29.968Z</time></trkpt><trkpt lat="45.6564078" lon="10.3644415"><ele>332.5</ele><time>2026-04-09T15:28:30.969Z</time></trkpt><trkpt lat="45.6562761" lon="10.3647976"><ele>332.0</ele><time>2026-04-09T15:28:31.969Z</time></trkpt><trkpt lat="45.6561466" lon="10.3651484"><ele>330.0</ele><time>2026-04-09T15:28:32.968Z</time></trkpt><trkpt lat="45.6560258" lon="10.3654915"><ele>328.0</ele><time>2026-04-09T15:28:33.969Z</time></trkpt><trkpt lat="45.6559171" lon="10.3658272"><ele>326.5</ele><time>2026-04-09T15:28:34.969Z</time></trkpt><trkpt lat="45.6558338" lon="10.3661587"><ele>325.0</ele><time>2026-04-09T15:28:35.968Z</time></trkpt><trkpt lat="45.6557698" lon="10.3664931"><ele>325.0</ele><time>2026-04-09T15:28:36.969Z</time></trkpt><trkpt lat="45.6557211" lon="10.3668338"><ele>325.0</ele><time>2026-04-09T15:28:37.969Z</time></trkpt><trkpt lat="45.6556799" lon="10.3671704"><ele>325.5</ele><time>2026-04-09T15:28:38.968Z</time></trkpt><trkpt lat="45.6556562" lon="10.3675095"><ele>326.0</ele><time>2026-04-09T15:28:39.969Z</time></trkpt><trkpt lat="45.6556527" lon="10.3678355"><ele>326.0</ele><time>2026-04-09T15:28:40.969Z</time></trkpt><trkpt lat="45.6556682" lon="10.3681614"><ele>326.0</ele><time>2026-04-09T15:28:41.969Z</time></trkpt><trkpt lat="45.6556941" lon="10.3684819"><ele>326.0</ele><time>2026-04-09T15:28:42.968Z</time></trkpt><trkpt lat="45.6557207" lon="10.3687916"><ele>326.0</ele><time>2026-04-09T15:28:43.968Z</time></trkpt><trkpt lat="45.6557504" lon="10.3690863"><ele>326.0</ele><time>2026-04-09T15:28:44.968Z</time></trkpt><trkpt lat="45.655774" lon="10.3693763"><ele>325.0</ele><time>2026-04-09T15:28:45.969Z</time></trkpt><trkpt lat="45.6557964" lon="10.3696535"><ele>324.0</ele><time>2026-04-09T15:28:46.969Z</time></trkpt><trkpt lat="45.6558183" lon="10.3699262"><ele>323.0</ele><time>2026-04-09T15:28:47.969Z</time></trkpt><trkpt lat="45.6558423" lon="10.37019"><ele>322.6666666666667</ele><time>2026-04-09T15:28:48.969Z</time></trkpt><trkpt lat="45.6558661" lon="10.3704462"><ele>322.3333333333333</ele><time>2026-04-09T15:28:49.969Z</time></trkpt><trkpt lat="45.6558835" lon="10.3707042"><ele>322.0</ele><time>2026-04-09T15:28:50.969Z</time></trkpt><trkpt lat="45.6558978" lon="10.3709731"><ele>321.66666666666663</ele><time>2026-04-09T15:28:51.969Z</time></trkpt><trkpt lat="45.6559042" lon="10.3712553"><ele>321.3333333333333</ele><time>2026-04-09T15:28:52.969Z</time></trkpt><trkpt lat="45.6558988" lon="10.3715451"><ele>321.0</ele><time>2026-04-09T15:28:53.968Z</time></trkpt><trkpt lat="45.6558758" lon="10.3718432"><ele>320.3333333333333</ele><time>2026-04-09T15:28:54.969Z</time></trkpt><trkpt lat="45.6558409" lon="10.3721379"><ele>319.66666666666663</ele><time>2026-04-09T15:28:55.969Z</time></trkpt><trkpt lat="45.6557884" lon="10.3724376"><ele>319.0</ele><time>2026-04-09T15:28:56.969Z</time></trkpt><trkpt lat="45.6557292" lon="10.3727386"><ele>317.5</ele><time>2026-04-09T15:28:57.969Z</time></trkpt><trkpt lat="45.655667" lon="10.3730452"><ele>316.0</ele><time>2026-04-09T15:28:58.969Z</time></trkpt><trkpt lat="45.6555901" lon="10.3733577"><ele>316.0</ele><time>2026-04-09T15:28:59.969Z</time></trkpt><trkpt lat="45.6555173" lon="10.3736693"><ele>316.0</ele><time>2026-04-09T15:29:00.968Z</time></trkpt><trkpt lat="45.6554431" lon="10.3739844"><ele>316.0</ele><time>2026-04-09T15:29:01.969Z</time></trkpt><trkpt lat="45.6553684" lon="10.374295"><ele>316.0</ele><time>2026-04-09T15:29:02.969Z</time></trkpt><trkpt lat="45.6552984" lon="10.3746002"><ele>315.0</ele><time>2026-04-09T15:29:03.969Z</time></trkpt><trkpt lat="45.6552399" lon="10.3749027"><ele>314.0</ele><time>2026-04-09T15:29:04.969Z</time></trkpt><trkpt lat="45.655184" lon="10.3751968"><ele>313.0</ele><time>2026-04-09T15:29:05.969Z</time></trkpt><trkpt lat="45.6551283" lon="10.375467"><ele>313.0</ele><time>2026-04-09T15:29:06.969Z</time></trkpt><trkpt lat="45.6550685" lon="10.3757294"><ele>313.0</ele><time>2026-04-09T15:29:07.968Z</time></trkpt><trkpt lat="45.65502" lon="10.3759801"><ele>313.0</ele><time>2026-04-09T15:29:08.969Z</time></trkpt><trkpt lat="45.6549817" lon="10.3762279"><ele>312.66666666666663</ele><time>2026-04-09T15:29:09.969Z</time></trkpt><trkpt lat="45.6549551" lon="10.3764773"><ele>312.3333333333333</ele><time>2026-04-09T15:29:10.969Z</time></trkpt><trkpt lat="45.6549548" lon="10.3767262"><ele>312.0</ele><time>2026-04-09T15:29:11.969Z</time></trkpt><trkpt lat="45.6549913" lon="10.3769725"><ele>312.0</ele><time>2026-04-09T15:29:12.968Z</time></trkpt><trkpt lat="45.6550431" lon="10.3772197"><ele>312.0</ele><time>2026-04-09T15:29:13.969Z</time></trkpt><trkpt lat="45.6550991" lon="10.3774669"><ele>312.0</ele><time>2026-04-09T15:29:14.969Z</time></trkpt><trkpt lat="45.6551507" lon="10.377712"><ele>312.0</ele><time>2026-04-09T15:29:15.969Z</time></trkpt><trkpt lat="45.65519" lon="10.3779334"><ele>312.0</ele><time>2026-04-09T15:29:16.968Z</time></trkpt><trkpt lat="45.6552333" lon="10.3781338"><ele>312.0</ele><time>2026-04-09T15:29:17.969Z</time></trkpt><trkpt lat="45.6552657" lon="10.3783171"><ele>312.0</ele><time>2026-04-09T15:29:18.969Z</time></trkpt><trkpt lat="45.6552959" lon="10.3784733"><ele>312.8</ele><time>2026-04-09T15:29:19.969Z</time></trkpt><trkpt lat="45.6553134" lon="10.3786146"><ele>313.6</ele><time>2026-04-09T15:29:20.968Z</time></trkpt><trkpt lat="45.6553292" lon="10.3787406"><ele>314.40000000000003</ele><time>2026-04-09T15:29:21.968Z</time></trkpt><trkpt lat="45.6553378" lon="10.3788505"><ele>315.2</ele><time>2026-04-09T15:29:22.968Z</time></trkpt><trkpt lat="45.6553282" lon="10.3789913"><ele>316.0</ele><time>2026-04-09T15:29:23.969Z</time></trkpt><trkpt lat="45.6553015" lon="10.379155"><ele>315.5</ele><time>2026-04-09T15:29:24.968Z</time></trkpt><trkpt lat="45.6552641" lon="10.3793386"><ele>315.0</ele><time>2026-04-09T15:29:25.968Z</time></trkpt><trkpt lat="45.6552148" lon="10.3795222"><ele>314.5</ele><time>2026-04-09T15:29:26.968Z</time></trkpt><trkpt lat="45.6551686" lon="10.379691"><ele>314.0</ele><time>2026-04-09T15:29:27.969Z</time></trkpt><trkpt lat="45.6551247" lon="10.3798503"><ele>313.75</ele><time>2026-04-09T15:29:28.969Z</time></trkpt><trkpt lat="45.6550827" lon="10.3800241"><ele>313.5</ele><time>2026-04-09T15:29:29.969Z</time></trkpt><trkpt lat="45.6550436" lon="10.3802135"><ele>313.25</ele><time>2026-04-09T15:29:30.969Z</time></trkpt><trkpt lat="45.6550043" lon="10.3804304"><ele>313.0</ele><time>2026-04-09T15:29:31.969Z</time></trkpt><trkpt lat="45.6549577" lon="10.3806704"><ele>312.3333333333333</ele><time>2026-04-09T15:29:32.969Z</time></trkpt><trkpt lat="45.6549162" lon="10.3809249"><ele>311.6666666666667</ele><time>2026-04-09T15:29:33.969Z</time></trkpt><trkpt lat="45.6548826" lon="10.3811556"><ele>311.0</ele><time>2026-04-09T15:29:34.968Z</time></trkpt><trkpt lat="45.654857" lon="10.3813725"><ele>311.0</ele><time>2026-04-09T15:29:35.969Z</time></trkpt><trkpt lat="45.65484" lon="10.3815793"><ele>311.0</ele><time>2026-04-09T15:29:36.969Z</time></trkpt><trkpt lat="45.6548379" lon="10.3817679"><ele>311.0</ele><time>2026-04-09T15:29:37.969Z</time></trkpt><trkpt lat="45.6548312" lon="10.3819357"><ele>311.0</ele><time>2026-04-09T15:29:38.969Z</time></trkpt><trkpt lat="45.6548317" lon="10.3820864"><ele>311.1666666666667</ele><time>2026-04-09T15:29:39.969Z</time></trkpt><trkpt lat="45.6548344" lon="10.3822097"><ele>311.33333333333337</ele><time>2026-04-09T15:29:40.969Z</time></trkpt><trkpt lat="45.6548299" lon="10.3823244"><ele>311.5</ele><time>2026-04-09T15:29:41.969Z</time></trkpt><trkpt lat="45.6548267" lon="10.3824328"><ele>311.6666666666667</ele><time>2026-04-09T15:29:42.969Z</time></trkpt><trkpt lat="45.6548296" lon="10.3825498"><ele>311.8333333333333</ele><time>2026-04-09T15:29:43.969Z</time></trkpt><trkpt lat="45.6548287" lon="10.3826808"><ele>312.0</ele><time>2026-04-09T15:29:44.967Z</time></trkpt><trkpt lat="45.6548298" lon="10.3828232"><ele>312.0</ele><time>2026-04-09T15:29:45.968Z</time></trkpt><trkpt lat="45.6548327" lon="10.3829712"><ele>312.0</ele><time>2026-04-09T15:29:46.967Z</time></trkpt><trkpt lat="45.6548317" lon="10.3831173"><ele>312.0</ele><time>2026-04-09T15:29:47.968Z</time></trkpt><trkpt lat="45.6548306" lon="10.3832642"><ele>312.0</ele><time>2026-04-09T15:29:48.968Z</time></trkpt><trkpt lat="45.654832" lon="10.3834153"><ele>312.0</ele><time>2026-04-09T15:29:49.968Z</time></trkpt><trkpt lat="45.6548395" lon="10.3835643"><ele>311.5</ele><time>2026-04-09T15:29:50.967Z</time></trkpt><trkpt lat="45.6548348" lon="10.383698"><ele>311.0</ele><time>2026-04-09T15:29:51.968Z</time></trkpt><trkpt lat="45.6548346" lon="10.3838129"><ele>310.5</ele><time>2026-04-09T15:29:52.968Z</time></trkpt><trkpt lat="45.6548377" lon="10.3839152"><ele>310.0</ele><time>2026-04-09T15:29:53.967Z</time></trkpt><trkpt lat="45.6548402" lon="10.3840129"><ele>309.5</ele><time>2026-04-09T15:29:54.968Z</time></trkpt><trkpt lat="45.654849" lon="10.384177"><ele>309.0</ele><time>2026-04-09T15:29:56.968Z</time></trkpt><trkpt lat="45.6548541" lon="10.3843208"><ele>308.8</ele><time>2026-04-09T15:29:58.968Z</time></trkpt><trkpt lat="45.6548495" lon="10.3844589"><ele>308.59999999999997</ele><time>2026-04-09T15:30:00.968Z</time></trkpt><trkpt lat="45.6548246" lon="10.3846034"><ele>308.4</ele><time>2026-04-09T15:30:02.967Z</time></trkpt><trkpt lat="45.6547651" lon="10.3847423"><ele>308.2</ele><time>2026-04-09T15:30:04.968Z</time></trkpt><trkpt lat="45.6547318" lon="10.3848333"><ele>308.0</ele><time>2026-04-09T15:30:05.968Z</time></trkpt><trkpt lat="45.6547084" lon="10.3849437"><ele>308.0</ele><time>2026-04-09T15:30:06.968Z</time></trkpt><trkpt lat="45.6547262" lon="10.3850843"><ele>308.0</ele><time>2026-04-09T15:30:07.968Z</time></trkpt><trkpt lat="45.6547383" lon="10.3852519"><ele>308.0</ele><time>2026-04-09T15:30:08.968Z</time></trkpt><trkpt lat="45.6547626" lon="10.3854214"><ele>308.0</ele><time>2026-04-09T15:30:09.968Z</time></trkpt><trkpt lat="45.65479" lon="10.3855994"><ele>308.25</ele><time>2026-04-09T15:30:10.968Z</time></trkpt><trkpt lat="45.6548115" lon="10.385787"><ele>308.5</ele><time>2026-04-09T15:30:11.968Z</time></trkpt><trkpt lat="45.6548311" lon="10.3859776"><ele>308.75</ele><time>2026-04-09T15:30:12.968Z</time></trkpt><trkpt lat="45.6548411" lon="10.386161"><ele>309.0</ele><time>2026-04-09T15:30:13.968Z</time></trkpt><trkpt lat="45.6548505" lon="10.3863368"><ele>309.0</ele><time>2026-04-09T15:30:14.967Z</time></trkpt><trkpt lat="45.6548552" lon="10.3865273"><ele>309.0</ele><time>2026-04-09T15:30:15.968Z</time></trkpt><trkpt lat="45.6548605" lon="10.3867399"><ele>309.0</ele><time>2026-04-09T15:30:16.967Z</time></trkpt><trkpt lat="45.6548648" lon="10.3869548"><ele>309.0</ele><time>2026-04-09T15:30:17.968Z</time></trkpt><trkpt lat="45.6548604" lon="10.3871542"><ele>308.75</ele><time>2026-04-09T15:30:18.968Z</time></trkpt><trkpt lat="45.6548632" lon="10.3873339"><ele>308.5</ele><time>2026-04-09T15:30:19.968Z</time></trkpt><trkpt lat="45.6548688" lon="10.3875124"><ele>308.25</ele><time>2026-04-09T15:30:20.968Z</time></trkpt><trkpt lat="45.6548771" lon="10.3876836"><ele>308.0</ele><time>2026-04-09T15:30:21.968Z</time></trkpt><trkpt lat="45.6548799" lon="10.387855"><ele>307.75</ele><time>2026-04-09T15:30:22.968Z</time></trkpt><trkpt lat="45.6548788" lon="10.3880292"><ele>307.5</ele><time>2026-04-09T15:30:23.967Z</time></trkpt><trkpt lat="45.6548805" lon="10.388218"><ele>307.25</ele><time>2026-04-09T15:30:24.968Z</time></trkpt><trkpt lat="45.6548876" lon="10.3884075"><ele>307.0</ele><time>2026-04-09T15:30:25.968Z</time></trkpt><trkpt lat="45.6548875" lon="10.3886008"><ele>307.0</ele><time>2026-04-09T15:30:26.967Z</time></trkpt><trkpt lat="45.6548905" lon="10.388817"><ele>307.0</ele><time>2026-04-09T15:30:27.968Z</time></trkpt><trkpt lat="45.6548939" lon="10.3890436"><ele>307.0</ele><time>2026-04-09T15:30:28.968Z</time></trkpt><trkpt lat="45.6548907" lon="10.3892688"><ele>307.3333333333333</ele><time>2026-04-09T15:30:29.968Z</time></trkpt><trkpt lat="45.6548926" lon="10.3895049"><ele>307.6666666666667</ele><time>2026-04-09T15:30:30.968Z</time></trkpt><trkpt lat="45.6548929" lon="10.3897481"><ele>308.0</ele><time>2026-04-09T15:30:31.968Z</time></trkpt><trkpt lat="45.6548956" lon="10.3900044"><ele>308.33333333333337</ele><time>2026-04-09T15:30:32.968Z</time></trkpt><trkpt lat="45.6548962" lon="10.3902816"><ele>308.6666666666667</ele><time>2026-04-09T15:30:33.968Z</time></trkpt><trkpt lat="45.6548968" lon="10.3905737"><ele>309.0</ele><time>2026-04-09T15:30:34.968Z</time></trkpt><trkpt lat="45.6548965" lon="10.3908605"><ele>309.0</ele><time>2026-04-09T15:30:35.968Z</time></trkpt><trkpt lat="45.6548991" lon="10.3911336"><ele>309.0</ele><time>2026-04-09T15:30:36.968Z</time></trkpt><trkpt lat="45.6548973" lon="10.3914052"><ele>309.0</ele><time>2026-04-09T15:30:37.968Z</time></trkpt><trkpt lat="45.6548965" lon="10.3916597"><ele>310.0</ele><time>2026-04-09T15:30:38.967Z</time></trkpt><trkpt lat="45.6548968" lon="10.3919046"><ele>311.0</ele><time>2026-04-09T15:30:39.968Z</time></trkpt><trkpt lat="45.6548971" lon="10.392142"><ele>312.0</ele><time>2026-04-09T15:30:40.968Z</time></trkpt><trkpt lat="45.654898" lon="10.3923901"><ele>312.3333333333333</ele><time>2026-04-09T15:30:41.967Z</time></trkpt><trkpt lat="45.6549005" lon="10.3926383"><ele>312.66666666666663</ele><time>2026-04-09T15:30:42.968Z</time></trkpt><trkpt lat="45.6549071" lon="10.3928835"><ele>313.0</ele><time>2026-04-09T15:30:43.968Z</time></trkpt><trkpt lat="45.6549112" lon="10.3931184"><ele>312.0</ele><time>2026-04-09T15:30:44.968Z</time></trkpt><trkpt lat="45.6549108" lon="10.3933425"><ele>311.0</ele><time>2026-04-09T15:30:45.967Z</time></trkpt><trkpt lat="45.6549079" lon="10.3935687"><ele>310.0</ele><time>2026-04-09T15:30:46.968Z</time></trkpt><trkpt lat="45.6549007" lon="10.3938049"><ele>309.3333333333333</ele><time>2026-04-09T15:30:47.968Z</time></trkpt><trkpt lat="45.6548911" lon="10.3940494"><ele>308.6666666666667</ele><time>2026-04-09T15:30:48.968Z</time></trkpt><trkpt lat="45.6548741" lon="10.3943047"><ele>308.0</ele><time>2026-04-09T15:30:49.968Z</time></trkpt><trkpt lat="45.6548533" lon="10.3945682"><ele>308.0</ele><time>2026-04-09T15:30:50.967Z</time></trkpt><trkpt lat="45.6548248" lon="10.3948295"><ele>308.0</ele><time>2026-04-09T15:30:51.967Z</time></trkpt><trkpt lat="45.6547945" lon="10.3950911"><ele>308.0</ele><time>2026-04-09T15:30:52.968Z</time></trkpt><trkpt lat="45.6547562" lon="10.3953439"><ele>308.33333333333337</ele><time>2026-04-09T15:30:53.968Z</time></trkpt><trkpt lat="45.6547175" lon="10.3955964"><ele>308.6666666666667</ele><time>2026-04-09T15:30:54.967Z</time></trkpt><trkpt lat="45.6546719" lon="10.3958419"><ele>309.0</ele><time>2026-04-09T15:30:55.968Z</time></trkpt><trkpt lat="45.654622" lon="10.396094"><ele>309.3333333333333</ele><time>2026-04-09T15:30:56.967Z</time></trkpt><trkpt lat="45.6545706" lon="10.3963454"><ele>309.66666666666663</ele><time>2026-04-09T15:30:57.968Z</time></trkpt><trkpt lat="45.6545126" lon="10.396603"><ele>310.0</ele><time>2026-04-09T15:30:58.968Z</time></trkpt><trkpt lat="45.6544517" lon="10.3968674"><ele>308.3333333333333</ele><time>2026-04-09T15:30:59.968Z</time></trkpt><trkpt lat="45.6543802" lon="10.3971317"><ele>306.6666666666667</ele><time>2026-04-09T15:31:00.968Z</time></trkpt><trkpt lat="45.6543033" lon="10.3973911"><ele>305.0</ele><time>2026-04-09T15:31:01.968Z</time></trkpt><trkpt lat="45.6542228" lon="10.3976407"><ele>305.0</ele><time>2026-04-09T15:31:02.968Z</time></trkpt><trkpt lat="45.6541391" lon="10.3978809"><ele>305.0</ele><time>2026-04-09T15:31:03.968Z</time></trkpt><trkpt lat="45.6540601" lon="10.3981188"><ele>305.0</ele><time>2026-04-09T15:31:04.968Z</time></trkpt><trkpt lat="45.6539807" lon="10.3983558"><ele>305.6666666666667</ele><time>2026-04-09T15:31:05.968Z</time></trkpt><trkpt lat="45.6538976" lon="10.398598"><ele>306.3333333333333</ele><time>2026-04-09T15:31:06.968Z</time></trkpt><trkpt lat="45.653812" lon="10.3988551"><ele>307.0</ele><time>2026-04-09T15:31:07.968Z</time></trkpt><trkpt lat="45.6537245" lon="10.3991209"><ele>306.0</ele><time>2026-04-09T15:31:08.968Z</time></trkpt><trkpt lat="45.6536323" lon="10.3993929"><ele>305.0</ele><time>2026-04-09T15:31:09.968Z</time></trkpt><trkpt lat="45.6535433" lon="10.399677"><ele>304.0</ele><time>2026-04-09T15:31:10.968Z</time></trkpt><trkpt lat="45.6534472" lon="10.3999674"><ele>304.0</ele><time>2026-04-09T15:31:11.967Z</time></trkpt><trkpt lat="45.6533498" lon="10.4002615"><ele>304.0</ele><time>2026-04-09T15:31:12.968Z</time></trkpt><trkpt lat="45.6532577" lon="10.4005459"><ele>304.0</ele><time>2026-04-09T15:31:13.968Z</time></trkpt><trkpt lat="45.6531707" lon="10.4008268"><ele>304.66666666666663</ele><time>2026-04-09T15:31:14.968Z</time></trkpt><trkpt lat="45.6530777" lon="10.4010961"><ele>305.3333333333333</ele><time>2026-04-09T15:31:15.968Z</time></trkpt><trkpt lat="45.6529859" lon="10.4013601"><ele>306.0</ele><time>2026-04-09T15:31:16.967Z</time></trkpt><trkpt lat="45.6528942" lon="10.4016298"><ele>306.6666666666667</ele><time>2026-04-09T15:31:17.968Z</time></trkpt><trkpt lat="45.6527996" lon="10.4019185"><ele>307.33333333333337</ele><time>2026-04-09T15:31:18.967Z</time></trkpt><trkpt lat="45.6527053" lon="10.4022052"><ele>308.0</ele><time>2026-04-09T15:31:19.968Z</time></trkpt><trkpt lat="45.6526082" lon="10.402508"><ele>307.0</ele><time>2026-04-09T15:31:20.968Z</time></trkpt><trkpt lat="45.6525128" lon="10.4028059"><ele>306.0</ele><time>2026-04-09T15:31:21.968Z</time></trkpt><trkpt lat="45.6524154" lon="10.4030896"><ele>306.0</ele><time>2026-04-09T15:31:22.968Z</time></trkpt><trkpt lat="45.6523221" lon="10.4033673"><ele>306.0</ele><time>2026-04-09T15:31:23.968Z</time></trkpt><trkpt lat="45.652233" lon="10.4036264"><ele>306.0</ele><time>2026-04-09T15:31:24.968Z</time></trkpt><trkpt lat="45.6521506" lon="10.403875"><ele>307.3333333333333</ele><time>2026-04-09T15:31:25.968Z</time></trkpt><trkpt lat="45.6520675" lon="10.4041227"><ele>308.66666666666663</ele><time>2026-04-09T15:31:26.968Z</time></trkpt><trkpt lat="45.6519863" lon="10.4043638"><ele>310.0</ele><time>2026-04-09T15:31:27.968Z</time></trkpt><trkpt lat="45.6519064" lon="10.4046044"><ele>307.0</ele><time>2026-04-09T15:31:28.968Z</time></trkpt><trkpt lat="45.6518259" lon="10.4048457"><ele>304.0</ele><time>2026-04-09T15:31:29.967Z</time></trkpt><trkpt lat="45.6517469" lon="10.4050844"><ele>301.0</ele><time>2026-04-09T15:31:30.968Z</time></trkpt><trkpt lat="45.6516657" lon="10.4053243"><ele>300.66666666666663</ele><time>2026-04-09T15:31:31.968Z</time></trkpt><trkpt lat="45.6515861" lon="10.4055627"><ele>300.3333333333333</ele><time>2026-04-09T15:31:32.968Z</time></trkpt><trkpt lat="45.651507" lon="10.4057978"><ele>300.0</ele><time>2026-04-09T15:31:33.968Z</time></trkpt><trkpt lat="45.6514266" lon="10.4060325"><ele>300.0</ele><time>2026-04-09T15:31:34.968Z</time></trkpt><trkpt lat="45.6513475" lon="10.4062686"><ele>300.0</ele><time>2026-04-09T15:31:35.968Z</time></trkpt><trkpt lat="45.6512673" lon="10.4065071"><ele>300.0</ele><time>2026-04-09T15:31:36.968Z</time></trkpt><trkpt lat="45.651187" lon="10.4067449"><ele>299.0</ele><time>2026-04-09T15:31:37.968Z</time></trkpt><trkpt lat="45.6511066" lon="10.4069844"><ele>298.0</ele><time>2026-04-09T15:31:38.968Z</time></trkpt><trkpt lat="45.6510247" lon="10.4072242"><ele>297.0</ele><time>2026-04-09T15:31:39.968Z</time></trkpt><trkpt lat="45.6509443" lon="10.407468"><ele>297.0</ele><time>2026-04-09T15:31:40.968Z</time></trkpt><trkpt lat="45.6508627" lon="10.4077145"><ele>297.0</ele><time>2026-04-09T15:31:41.968Z</time></trkpt><trkpt lat="45.6507813" lon="10.4079607"><ele>297.0</ele><time>2026-04-09T15:31:42.968Z</time></trkpt><trkpt lat="45.6506984" lon="10.4082112"><ele>298.0</ele><time>2026-04-09T15:31:43.968Z</time></trkpt><trkpt lat="45.6506129" lon="10.4084609"><ele>299.0</ele><time>2026-04-09T15:31:44.968Z</time></trkpt><trkpt lat="45.6505279" lon="10.4087113"><ele>300.0</ele><time>2026-04-09T15:31:45.968Z</time></trkpt><trkpt lat="45.6504451" lon="10.4089597"><ele>301.3333333333333</ele><time>2026-04-09T15:31:46.968Z</time></trkpt><trkpt lat="45.6503631" lon="10.4092048"><ele>302.66666666666663</ele><time>2026-04-09T15:31:47.967Z</time></trkpt><trkpt lat="45.6502802" lon="10.4094423"><ele>304.0</ele><time>2026-04-09T15:31:48.968Z</time></trkpt><trkpt lat="45.650201" lon="10.4096845"><ele>301.3333333333333</ele><time>2026-04-09T15:31:49.968Z</time></trkpt><trkpt lat="45.6501238" lon="10.4099246"><ele>298.6666666666667</ele><time>2026-04-09T15:31:50.968Z</time></trkpt><trkpt lat="45.6500504" lon="10.4101615"><ele>296.0</ele><time>2026-04-09T15:31:51.968Z</time></trkpt><trkpt lat="45.6499729" lon="10.4104056"><ele>296.0</ele><time>2026-04-09T15:31:52.968Z</time></trkpt><trkpt lat="45.6498881" lon="10.4106923"><ele>296.0</ele><time>2026-04-09T15:31:53.968Z</time></trkpt><trkpt lat="45.6498143" lon="10.4110005"><ele>296.0</ele><time>2026-04-09T15:31:54.967Z</time></trkpt><trkpt lat="45.6497451" lon="10.4113"><ele>297.0</ele><time>2026-04-09T15:31:55.968Z</time></trkpt><trkpt lat="45.6496826" lon="10.4115798"><ele>298.0</ele><time>2026-04-09T15:31:56.968Z</time></trkpt><trkpt lat="45.649641" lon="10.411842"><ele>299.0</ele><time>2026-04-09T15:31:57.967Z</time></trkpt><trkpt lat="45.6496096" lon="10.4121021"><ele>299.0</ele><time>2026-04-09T15:31:58.968Z</time></trkpt><trkpt lat="45.6495795" lon="10.4123702"><ele>299.0</ele><time>2026-04-09T15:31:59.968Z</time></trkpt><trkpt lat="45.649558" lon="10.4126495"><ele>299.0</ele><time>2026-04-09T15:32:00.967Z</time></trkpt><trkpt lat="45.649545" lon="10.4129251"><ele>299.0</ele><time>2026-04-09T15:32:01.968Z</time></trkpt><trkpt lat="45.6495509" lon="10.4132014"><ele>299.0</ele><time>2026-04-09T15:32:02.968Z</time></trkpt><trkpt lat="45.6495591" lon="10.4134742"><ele>299.0</ele><time>2026-04-09T15:32:03.968Z</time></trkpt><trkpt lat="45.6495726" lon="10.4137519"><ele>297.6666666666667</ele><time>2026-04-09T15:32:04.968Z</time></trkpt><trkpt lat="45.6495897" lon="10.4140216"><ele>296.3333333333333</ele><time>2026-04-09T15:32:05.968Z</time></trkpt><trkpt lat="45.6496179" lon="10.4142935"><ele>295.0</ele><time>2026-04-09T15:32:06.968Z</time></trkpt><trkpt lat="45.6496564" lon="10.4145514"><ele>292.3333333333333</ele><time>2026-04-09T15:32:07.968Z</time></trkpt><trkpt lat="45.6497021" lon="10.4148005"><ele>289.6666666666667</ele><time>2026-04-09T15:32:08.968Z</time></trkpt><trkpt lat="45.6497508" lon="10.4150514"><ele>287.0</ele><time>2026-04-09T15:32:09.967Z</time></trkpt><trkpt lat="45.6498114" lon="10.4152889"><ele>287.0</ele><time>2026-04-09T15:32:10.967Z</time></trkpt><trkpt lat="45.6498758" lon="10.4155276"><ele>287.0</ele><time>2026-04-09T15:32:11.967Z</time></trkpt><trkpt lat="45.6499454" lon="10.4157612"><ele>287.0</ele><time>2026-04-09T15:32:12.967Z</time></trkpt><trkpt lat="45.6500197" lon="10.4159912"><ele>287.0</ele><time>2026-04-09T15:32:13.967Z</time></trkpt><trkpt lat="45.6500904" lon="10.4162195"><ele>287.0</ele><time>2026-04-09T15:32:14.968Z</time></trkpt><trkpt lat="45.6501689" lon="10.4164426"><ele>287.0</ele><time>2026-04-09T15:32:15.968Z</time></trkpt><trkpt lat="45.6502517" lon="10.4166706"><ele>287.0</ele><time>2026-04-09T15:32:16.968Z</time></trkpt><trkpt lat="45.6503279" lon="10.4168931"><ele>287.0</ele><time>2026-04-09T15:32:17.968Z</time></trkpt><trkpt lat="45.6504011" lon="10.4171184"><ele>287.0</ele><time>2026-04-09T15:32:18.968Z</time></trkpt><trkpt lat="45.6504703" lon="10.4173422"><ele>289.0</ele><time>2026-04-09T15:32:19.968Z</time></trkpt><trkpt lat="45.6505472" lon="10.4175607"><ele>291.0</ele><time>2026-04-09T15:32:20.968Z</time></trkpt><trkpt lat="45.650646" lon="10.4178104"><ele>293.0</ele><time>2026-04-09T15:32:21.968Z</time></trkpt><trkpt lat="45.6516085" lon="10.4203114"><ele>289.6666666666667</ele><time>2026-04-09T15:32:32.968Z</time></trkpt><trkpt lat="45.6515471" lon="10.4205033"><ele>286.3333333333333</ele><time>2026-04-09T15:32:33.968Z</time></trkpt><trkpt lat="45.6516088" lon="10.4207263"><ele>283.0</ele><time>2026-04-09T15:32:34.968Z</time></trkpt><trkpt lat="45.6516695" lon="10.420919"><ele>283.0</ele><time>2026-04-09T15:32:35.968Z</time></trkpt><trkpt lat="45.651731" lon="10.421103"><ele>283.0</ele><time>2026-04-09T15:32:36.968Z</time></trkpt><trkpt lat="45.651794" lon="10.4212858"><ele>283.0</ele><time>2026-04-09T15:32:37.968Z</time></trkpt><trkpt lat="45.6518604" lon="10.421464"><ele>283.0</ele><time>2026-04-09T15:32:38.968Z</time></trkpt><trkpt lat="45.6519271" lon="10.4216476"><ele>283.3333333333333</ele><time>2026-04-09T15:32:39.968Z</time></trkpt><trkpt lat="45.6519974" lon="10.4218407"><ele>283.6666666666667</ele><time>2026-04-09T15:32:40.967Z</time></trkpt><trkpt lat="45.6520622" lon="10.42203"><ele>284.0</ele><time>2026-04-09T15:32:41.968Z</time></trkpt><trkpt lat="45.652128" lon="10.422224"><ele>285.0</ele><time>2026-04-09T15:32:42.968Z</time></trkpt><trkpt lat="45.652189" lon="10.4224155"><ele>286.0</ele><time>2026-04-09T15:32:43.968Z</time></trkpt><trkpt lat="45.6522493" lon="10.4226083"><ele>287.0</ele><time>2026-04-09T15:32:44.968Z</time></trkpt><trkpt lat="45.6523061" lon="10.4228067"><ele>288.0</ele><time>2026-04-09T15:32:45.967Z</time></trkpt><trkpt lat="45.6523657" lon="10.4229878"><ele>289.0</ele><time>2026-04-09T15:32:46.968Z</time></trkpt><trkpt lat="45.6524241" lon="10.4231609"><ele>290.0</ele><time>2026-04-09T15:32:47.967Z</time></trkpt><trkpt lat="45.6524813" lon="10.4233342"><ele>291.0</ele><time>2026-04-09T15:32:48.967Z</time></trkpt><trkpt lat="45.6525394" lon="10.4235057"><ele>292.0</ele><time>2026-04-09T15:32:49.968Z</time></trkpt><trkpt lat="45.6526029" lon="10.4236917"><ele>291.3333333333333</ele><time>2026-04-09T15:32:50.968Z</time></trkpt><trkpt lat="45.6526754" lon="10.4239043"><ele>290.6666666666667</ele><time>2026-04-09T15:32:51.967Z</time></trkpt><trkpt lat="45.6527503" lon="10.4241278"><ele>290.0</ele><time>2026-04-09T15:32:52.968Z</time></trkpt><trkpt lat="45.652826" lon="10.4243476"><ele>289.0</ele><time>2026-04-09T15:32:53.968Z</time></trkpt><trkpt lat="45.6528935" lon="10.4245608"><ele>288.0</ele><time>2026-04-09T15:32:54.968Z</time></trkpt><trkpt lat="45.6529559" lon="10.4247686"><ele>287.0</ele><time>2026-04-09T15:32:55.968Z</time></trkpt><trkpt lat="45.6530148" lon="10.4249697"><ele>286.0</ele><time>2026-04-09T15:32:56.968Z</time></trkpt><trkpt lat="45.6530909" lon="10.4251431"><ele>285.0</ele><time>2026-04-09T15:32:57.967Z</time></trkpt><trkpt lat="45.6531615" lon="10.4253196"><ele>284.0</ele><time>2026-04-09T15:32:58.967Z</time></trkpt><trkpt lat="45.6532295" lon="10.4254933"><ele>283.0</ele><time>2026-04-09T15:32:59.967Z</time></trkpt><trkpt lat="45.653297" lon="10.4256638"><ele>282.0</ele><time>2026-04-09T15:33:00.967Z</time></trkpt><trkpt lat="45.6533643" lon="10.4258295"><ele>281.0</ele><time>2026-04-09T15:33:01.968Z</time></trkpt><trkpt lat="45.6534377" lon="10.425998"><ele>280.0</ele><time>2026-04-09T15:33:02.967Z</time></trkpt><trkpt lat="45.6535142" lon="10.4261727"><ele>279.0</ele><time>2026-04-09T15:33:03.967Z</time></trkpt><trkpt lat="45.6535878" lon="10.4263449"><ele>276.75</ele><time>2026-04-09T15:33:04.968Z</time></trkpt><trkpt lat="45.6536615" lon="10.4265156"><ele>274.5</ele><time>2026-04-09T15:33:05.967Z</time></trkpt><trkpt lat="45.6537314" lon="10.4266804"><ele>272.25</ele><time>2026-04-09T15:33:06.968Z</time></trkpt><trkpt lat="45.6537995" lon="10.4268321"><ele>270.0</ele><time>2026-04-09T15:33:07.968Z</time></trkpt><trkpt lat="45.6538633" lon="10.4269813"><ele>270.0</ele><time>2026-04-09T15:33:08.968Z</time></trkpt><trkpt lat="45.6539192" lon="10.4271177"><ele>270.0</ele><time>2026-04-09T15:33:09.968Z</time></trkpt><trkpt lat="45.6539769" lon="10.4272469"><ele>270.0</ele><time>2026-04-09T15:33:10.967Z</time></trkpt><trkpt lat="45.6540316" lon="10.4273601"><ele>270.0</ele><time>2026-04-09T15:33:11.967Z</time></trkpt><trkpt lat="45.6540792" lon="10.4274682"><ele>270.0</ele><time>2026-04-09T15:33:12.967Z</time></trkpt><trkpt lat="45.6541249" lon="10.427569"><ele>269.8333333333333</ele><time>2026-04-09T15:33:13.967Z</time></trkpt><trkpt lat="45.6541664" lon="10.4276614"><ele>269.6666666666667</ele><time>2026-04-09T15:33:14.967Z</time></trkpt><trkpt lat="45.6542104" lon="10.4277512"><ele>269.5</ele><time>2026-04-09T15:33:15.967Z</time></trkpt><trkpt lat="45.6542456" lon="10.4278412"><ele>269.33333333333337</ele><time>2026-04-09T15:33:16.967Z</time></trkpt><trkpt lat="45.6542634" lon="10.4279571"><ele>269.1666666666667</ele><time>2026-04-09T15:33:17.966Z</time></trkpt><trkpt lat="45.654263" lon="10.4280796"><ele>269.0</ele><time>2026-04-09T15:33:18.967Z</time></trkpt><trkpt lat="45.6542357" lon="10.4282025"><ele>269.0</ele><time>2026-04-09T15:33:19.967Z</time></trkpt><trkpt lat="45.6541826" lon="10.4283164"><ele>269.0</ele><time>2026-04-09T15:33:20.966Z</time></trkpt><trkpt lat="45.6541103" lon="10.4284193"><ele>269.0</ele><time>2026-04-09T15:33:21.967Z</time></trkpt><trkpt lat="45.6540359" lon="10.4285088"><ele>269.0</ele><time>2026-04-09T15:33:22.967Z</time></trkpt><trkpt lat="45.653954" lon="10.4286054"><ele>269.0</ele><time>2026-04-09T15:33:23.967Z</time></trkpt><trkpt lat="45.6538707" lon="10.4287152"><ele>268.75</ele><time>2026-04-09T15:33:24.967Z</time></trkpt><trkpt lat="45.6537808" lon="10.4288483"><ele>268.5</ele><time>2026-04-09T15:33:25.967Z</time></trkpt><trkpt lat="45.6536884" lon="10.4289998"><ele>268.25</ele><time>2026-04-09T15:33:26.966Z</time></trkpt><trkpt lat="45.6535784" lon="10.4291606"><ele>268.0</ele><time>2026-04-09T15:33:27.967Z</time></trkpt><trkpt lat="45.6534743" lon="10.4293119"><ele>268.0</ele><time>2026-04-09T15:33:28.967Z</time></trkpt><trkpt lat="45.6533709" lon="10.4294714"><ele>268.0</ele><time>2026-04-09T15:33:29.967Z</time></trkpt><trkpt lat="45.6532591" lon="10.429647"><ele>268.0</ele><time>2026-04-09T15:33:30.967Z</time></trkpt><trkpt lat="45.653152" lon="10.4298422"><ele>270.0</ele><time>2026-04-09T15:33:31.966Z</time></trkpt><trkpt lat="45.6530463" lon="10.4300417"><ele>272.0</ele><time>2026-04-09T15:33:32.967Z</time></trkpt><trkpt lat="45.6529461" lon="10.4302396"><ele>274.0</ele><time>2026-04-09T15:33:33.967Z</time></trkpt><trkpt lat="45.6528453" lon="10.4304332"><ele>272.3333333333333</ele><time>2026-04-09T15:33:34.966Z</time></trkpt><trkpt lat="45.6527426" lon="10.4306431"><ele>270.6666666666667</ele><time>2026-04-09T15:33:35.967Z</time></trkpt><trkpt lat="45.6526395" lon="10.4308585"><ele>269.0</ele><time>2026-04-09T15:33:36.967Z</time></trkpt><trkpt lat="45.6525277" lon="10.4310816"><ele>269.0</ele><time>2026-04-09T15:33:37.967Z</time></trkpt><trkpt lat="45.6524185" lon="10.4312969"><ele>269.0</ele><time>2026-04-09T15:33:38.967Z</time></trkpt><trkpt lat="45.6523152" lon="10.4315104"><ele>269.0</ele><time>2026-04-09T15:33:39.966Z</time></trkpt><trkpt lat="45.6522085" lon="10.4317242"><ele>270.0</ele><time>2026-04-09T15:33:40.967Z</time></trkpt><trkpt lat="45.6521042" lon="10.4319356"><ele>271.0</ele><time>2026-04-09T15:33:41.967Z</time></trkpt><trkpt lat="45.6520006" lon="10.4321446"><ele>272.0</ele><time>2026-04-09T15:33:42.966Z</time></trkpt><trkpt lat="45.6518964" lon="10.4323609"><ele>272.0</ele><time>2026-04-09T15:33:43.967Z</time></trkpt><trkpt lat="45.6517882" lon="10.4325818"><ele>272.0</ele><time>2026-04-09T15:33:44.967Z</time></trkpt><trkpt lat="45.6516806" lon="10.4328036"><ele>272.0</ele><time>2026-04-09T15:33:45.966Z</time></trkpt><trkpt lat="45.6515714" lon="10.4330145"><ele>273.33333333333337</ele><time>2026-04-09T15:33:46.967Z</time></trkpt><trkpt lat="45.651469" lon="10.4332228"><ele>274.6666666666667</ele><time>2026-04-09T15:33:47.967Z</time></trkpt><trkpt lat="45.6513694" lon="10.4334277"><ele>276.0</ele><time>2026-04-09T15:33:48.967Z</time></trkpt><trkpt lat="45.6512725" lon="10.4336282"><ele>277.3333333333333</ele><time>2026-04-09T15:33:49.967Z</time></trkpt><trkpt lat="45.6511773" lon="10.4338072"><ele>278.66666666666663</ele><time>2026-04-09T15:33:50.967Z</time></trkpt><trkpt lat="45.6510856" lon="10.4339894"><ele>280.0</ele><time>2026-04-09T15:33:51.967Z</time></trkpt><trkpt lat="45.6509958" lon="10.4341707"><ele>277.3333333333333</ele><time>2026-04-09T15:33:52.967Z</time></trkpt><trkpt lat="45.6509043" lon="10.4343568"><ele>274.6666666666667</ele><time>2026-04-09T15:33:53.966Z</time></trkpt><trkpt lat="45.6508131" lon="10.4345406"><ele>272.0</ele><time>2026-04-09T15:33:54.966Z</time></trkpt><trkpt lat="45.6507257" lon="10.4347292"><ele>272.0</ele><time>2026-04-09T15:33:55.967Z</time></trkpt><trkpt lat="45.6506387" lon="10.4349157"><ele>272.0</ele><time>2026-04-09T15:33:56.967Z</time></trkpt><trkpt lat="45.6505516" lon="10.435096"><ele>272.0</ele><time>2026-04-09T15:33:57.967Z</time></trkpt><trkpt lat="45.6504701" lon="10.4352806"><ele>273.33333333333337</ele><time>2026-04-09T15:33:58.967Z</time></trkpt><trkpt lat="45.6504031" lon="10.435479"><ele>274.6666666666667</ele><time>2026-04-09T15:33:59.967Z</time></trkpt><trkpt lat="45.6503481" lon="10.4356887"><ele>276.0</ele><time>2026-04-09T15:34:00.966Z</time></trkpt><trkpt lat="45.6502991" lon="10.4359025"><ele>273.6666666666667</ele><time>2026-04-09T15:34:01.967Z</time></trkpt><trkpt lat="45.6502549" lon="10.4361164"><ele>271.33333333333337</ele><time>2026-04-09T15:34:02.966Z</time></trkpt><trkpt lat="45.6502193" lon="10.4363299"><ele>269.0</ele><time>2026-04-09T15:34:03.967Z</time></trkpt><trkpt lat="45.6501968" lon="10.4365463"><ele>268.0</ele><time>2026-04-09T15:34:04.966Z</time></trkpt><trkpt lat="45.6501787" lon="10.4367696"><ele>267.0</ele><time>2026-04-09T15:34:05.967Z</time></trkpt><trkpt lat="45.6501706" lon="10.4370214"><ele>266.0</ele><time>2026-04-09T15:34:06.967Z</time></trkpt><trkpt lat="45.6501728" lon="10.4372837"><ele>265.33333333333337</ele><time>2026-04-09T15:34:07.967Z</time></trkpt><trkpt lat="45.6501885" lon="10.437556"><ele>264.6666666666667</ele><time>2026-04-09T15:34:08.967Z</time></trkpt><trkpt lat="45.650209" lon="10.4378222"><ele>264.0</ele><time>2026-04-09T15:34:09.967Z</time></trkpt><trkpt lat="45.650234" lon="10.4380879"><ele>263.6666666666667</ele><time>2026-04-09T15:34:10.967Z</time></trkpt><trkpt lat="45.6502749" lon="10.4383504"><ele>263.33333333333337</ele><time>2026-04-09T15:34:11.967Z</time></trkpt><trkpt lat="45.6503203" lon="10.4386117"><ele>263.0</ele><time>2026-04-09T15:34:12.967Z</time></trkpt><trkpt lat="45.6503701" lon="10.4388873"><ele>266.33333333333337</ele><time>2026-04-09T15:34:13.967Z</time></trkpt><trkpt lat="45.6504187" lon="10.4391752"><ele>269.6666666666667</ele><time>2026-04-09T15:34:14.967Z</time></trkpt><trkpt lat="45.6504689" lon="10.4394725"><ele>273.0</ele><time>2026-04-09T15:34:15.966Z</time></trkpt><trkpt lat="45.6505241" lon="10.4397928"><ele>273.5</ele><time>2026-04-09T15:34:16.967Z</time></trkpt><trkpt lat="45.65058" lon="10.4401303"><ele>274.0</ele><time>2026-04-09T15:34:17.966Z</time></trkpt><trkpt lat="45.6506332" lon="10.4404743"><ele>273.0</ele><time>2026-04-09T15:34:18.967Z</time></trkpt><trkpt lat="45.6506861" lon="10.4408173"><ele>272.0</ele><time>2026-04-09T15:34:19.966Z</time></trkpt><trkpt lat="45.6507376" lon="10.4411486"><ele>270.0</ele><time>2026-04-09T15:34:20.967Z</time></trkpt><trkpt lat="45.6507854" lon="10.4414765"><ele>268.0</ele><time>2026-04-09T15:34:21.967Z</time></trkpt><trkpt lat="45.6508236" lon="10.4418022"><ele>268.0</ele><time>2026-04-09T15:34:22.966Z</time></trkpt><trkpt lat="45.6508499" lon="10.4421243"><ele>268.0</ele><time>2026-04-09T15:34:23.967Z</time></trkpt><trkpt lat="45.6508598" lon="10.4424585"><ele>267.0</ele><time>2026-04-09T15:34:24.967Z</time></trkpt><trkpt lat="45.6508661" lon="10.4427838"><ele>266.0</ele><time>2026-04-09T15:34:25.967Z</time></trkpt><trkpt lat="45.6508666" lon="10.4431022"><ele>265.0</ele><time>2026-04-09T15:34:26.967Z</time></trkpt><trkpt lat="45.6508575" lon="10.4434161"><ele>264.0</ele><time>2026-04-09T15:34:27.967Z</time></trkpt><trkpt lat="45.6508379" lon="10.4437353"><ele>263.0</ele><time>2026-04-09T15:34:28.967Z</time></trkpt><trkpt lat="45.6508081" lon="10.4440572"><ele>263.0</ele><time>2026-04-09T15:34:29.967Z</time></trkpt><trkpt lat="45.6507682" lon="10.4443803"><ele>263.0</ele><time>2026-04-09T15:34:30.967Z</time></trkpt><trkpt lat="45.6507258" lon="10.4447053"><ele>264.0</ele><time>2026-04-09T15:34:31.966Z</time></trkpt><trkpt lat="45.650677" lon="10.4450335"><ele>265.0</ele><time>2026-04-09T15:34:32.966Z</time></trkpt><trkpt lat="45.6506243" lon="10.4453638"><ele>267.0</ele><time>2026-04-09T15:34:33.967Z</time></trkpt><trkpt lat="45.6505729" lon="10.4456924"><ele>269.0</ele><time>2026-04-09T15:34:34.967Z</time></trkpt><trkpt lat="45.6505196" lon="10.446013"><ele>270.0</ele><time>2026-04-09T15:34:35.967Z</time></trkpt><trkpt lat="45.6504695" lon="10.4463154"><ele>271.0</ele><time>2026-04-09T15:34:36.967Z</time></trkpt><trkpt lat="45.6504238" lon="10.4466128"><ele>272.0</ele><time>2026-04-09T15:34:37.967Z</time></trkpt><trkpt lat="45.650375" lon="10.4468906"><ele>269.33333333333337</ele><time>2026-04-09T15:34:38.966Z</time></trkpt><trkpt lat="45.6502991" lon="10.447137"><ele>266.6666666666667</ele><time>2026-04-09T15:34:39.966Z</time></trkpt><trkpt lat="45.6502185" lon="10.4473702"><ele>264.0</ele><time>2026-04-09T15:34:40.967Z</time></trkpt><trkpt lat="45.6501096" lon="10.4475925"><ele>264.0</ele><time>2026-04-09T15:34:41.967Z</time></trkpt><trkpt lat="45.6499567" lon="10.4477586"><ele>264.0</ele><time>2026-04-09T15:34:42.967Z</time></trkpt><trkpt lat="45.649793" lon="10.4479234"><ele>264.0</ele><time>2026-04-09T15:34:43.966Z</time></trkpt><trkpt lat="45.6496135" lon="10.4480837"><ele>269.6666666666667</ele><time>2026-04-09T15:34:44.967Z</time></trkpt><trkpt lat="45.6494101" lon="10.4482151"><ele>275.33333333333337</ele><time>2026-04-09T15:34:45.966Z</time></trkpt><trkpt lat="45.6492035" lon="10.4483263"><ele>281.0</ele><time>2026-04-09T15:34:46.966Z</time></trkpt><trkpt lat="45.6490002" lon="10.4484069"><ele>281.0</ele><time>2026-04-09T15:34:47.967Z</time></trkpt><trkpt lat="45.6487997" lon="10.448494"><ele>281.0</ele><time>2026-04-09T15:34:48.966Z</time></trkpt><trkpt lat="45.6486076" lon="10.4485946"><ele>281.0</ele><time>2026-04-09T15:34:49.967Z</time></trkpt><trkpt lat="45.6484195" lon="10.4487083"><ele>281.0</ele><time>2026-04-09T15:34:50.967Z</time></trkpt><trkpt lat="45.6482414" lon="10.4488245"><ele>281.0</ele><time>2026-04-09T15:34:51.966Z</time></trkpt><trkpt lat="45.6480804" lon="10.4489625"><ele>281.0</ele><time>2026-04-09T15:34:52.967Z</time></trkpt><trkpt lat="45.6479349" lon="10.4491251"><ele>281.0</ele><time>2026-04-09T15:34:53.967Z</time></trkpt><trkpt lat="45.6478118" lon="10.4493232"><ele>281.0</ele><time>2026-04-09T15:34:54.967Z</time></trkpt><trkpt lat="45.6477051" lon="10.4495527"><ele>281.0</ele><time>2026-04-09T15:34:55.967Z</time></trkpt><trkpt lat="45.6476131" lon="10.4497798"><ele>280.0</ele><time>2026-04-09T15:34:56.967Z</time></trkpt><trkpt lat="45.6475297" lon="10.4500121"><ele>279.0</ele><time>2026-04-09T15:34:57.967Z</time></trkpt><trkpt lat="45.6474565" lon="10.4502512"><ele>278.0</ele><time>2026-04-09T15:34:58.967Z</time></trkpt><trkpt lat="45.6473848" lon="10.4504925"><ele>278.0</ele><time>2026-04-09T15:34:59.967Z</time></trkpt><trkpt lat="45.6473168" lon="10.4507333"><ele>278.0</ele><time>2026-04-09T15:35:00.967Z</time></trkpt><trkpt lat="45.6472545" lon="10.4509796"><ele>278.0</ele><time>2026-04-09T15:35:01.966Z</time></trkpt><trkpt lat="45.6471932" lon="10.4512314"><ele>279.0</ele><time>2026-04-09T15:35:02.966Z</time></trkpt><trkpt lat="45.6471324" lon="10.4514814"><ele>280.0</ele><time>2026-04-09T15:35:03.967Z</time></trkpt><trkpt lat="45.6470695" lon="10.4517138"><ele>281.0</ele><time>2026-04-09T15:35:04.967Z</time></trkpt><trkpt lat="45.6470037" lon="10.4519411"><ele>276.0</ele><time>2026-04-09T15:35:05.967Z</time></trkpt><trkpt lat="45.6469381" lon="10.4521644"><ele>271.0</ele><time>2026-04-09T15:35:06.967Z</time></trkpt><trkpt lat="45.6468702" lon="10.4523917"><ele>266.0</ele><time>2026-04-09T15:35:07.966Z</time></trkpt><trkpt lat="45.6467955" lon="10.4526189"><ele>266.0</ele><time>2026-04-09T15:35:08.967Z</time></trkpt><trkpt lat="45.6467186" lon="10.4528464"><ele>266.0</ele><time>2026-04-09T15:35:09.966Z</time></trkpt><trkpt lat="45.646643" lon="10.45308"><ele>266.0</ele><time>2026-04-09T15:35:10.967Z</time></trkpt><trkpt lat="45.6465661" lon="10.4533159"><ele>266.33333333333337</ele><time>2026-04-09T15:35:11.967Z</time></trkpt><trkpt lat="45.646488" lon="10.4535617"><ele>266.6666666666667</ele><time>2026-04-09T15:35:12.967Z</time></trkpt><trkpt lat="45.6464061" lon="10.453825"><ele>267.0</ele><time>2026-04-09T15:35:13.967Z</time></trkpt><trkpt lat="45.6463142" lon="10.4540918"><ele>266.6666666666667</ele><time>2026-04-09T15:35:14.967Z</time></trkpt><trkpt lat="45.6462223" lon="10.4543628"><ele>266.33333333333337</ele><time>2026-04-09T15:35:15.967Z</time></trkpt><trkpt lat="45.646119" lon="10.4546435"><ele>266.0</ele><time>2026-04-09T15:35:16.966Z</time></trkpt><trkpt lat="45.6460284" lon="10.4549238"><ele>266.0</ele><time>2026-04-09T15:35:17.967Z</time></trkpt><trkpt lat="45.6459433" lon="10.4551932"><ele>266.0</ele><time>2026-04-09T15:35:18.966Z</time></trkpt><trkpt lat="45.6458537" lon="10.455461"><ele>266.0</ele><time>2026-04-09T15:35:19.966Z</time></trkpt><trkpt lat="45.6457713" lon="10.4557133"><ele>266.33333333333337</ele><time>2026-04-09T15:35:20.967Z</time></trkpt><trkpt lat="45.6456888" lon="10.4559602"><ele>266.6666666666667</ele><time>2026-04-09T15:35:21.966Z</time></trkpt><trkpt lat="45.6455974" lon="10.4561976"><ele>267.0</ele><time>2026-04-09T15:35:22.967Z</time></trkpt><trkpt lat="45.6455165" lon="10.4564416"><ele>267.6666666666667</ele><time>2026-04-09T15:35:23.967Z</time></trkpt><trkpt lat="45.6454224" lon="10.4566752"><ele>268.33333333333337</ele><time>2026-04-09T15:35:24.967Z</time></trkpt><trkpt lat="45.6453298" lon="10.4569037"><ele>269.0</ele><time>2026-04-09T15:35:25.967Z</time></trkpt><trkpt lat="45.645227" lon="10.4571311"><ele>267.0</ele><time>2026-04-09T15:35:26.967Z</time></trkpt><trkpt lat="45.6451195" lon="10.4573483"><ele>265.0</ele><time>2026-04-09T15:35:27.966Z</time></trkpt><trkpt lat="45.6450116" lon="10.4575641"><ele>263.0</ele><time>2026-04-09T15:35:28.966Z</time></trkpt><trkpt lat="45.6449018" lon="10.4577765"><ele>264.0</ele><time>2026-04-09T15:35:29.967Z</time></trkpt><trkpt lat="45.6447927" lon="10.4579831"><ele>265.0</ele><time>2026-04-09T15:35:30.967Z</time></trkpt><trkpt lat="45.6446847" lon="10.458189"><ele>266.0</ele><time>2026-04-09T15:35:31.967Z</time></trkpt><trkpt lat="45.6445753" lon="10.4583898"><ele>266.0</ele><time>2026-04-09T15:35:32.966Z</time></trkpt><trkpt lat="45.6444701" lon="10.4585843"><ele>266.0</ele><time>2026-04-09T15:35:33.967Z</time></trkpt><trkpt lat="45.64437" lon="10.4587778"><ele>266.0</ele><time>2026-04-09T15:35:34.967Z</time></trkpt><trkpt lat="45.6442736" lon="10.4589632"><ele>264.33333333333337</ele><time>2026-04-09T15:35:35.967Z</time></trkpt><trkpt lat="45.6441804" lon="10.4591399"><ele>262.6666666666667</ele><time>2026-04-09T15:35:36.966Z</time></trkpt><trkpt lat="45.64409" lon="10.4593169"><ele>261.0</ele><time>2026-04-09T15:35:37.967Z</time></trkpt><trkpt lat="45.6440024" lon="10.4594856"><ele>261.25</ele><time>2026-04-09T15:35:38.966Z</time></trkpt><trkpt lat="45.6439207" lon="10.4596455"><ele>261.5</ele><time>2026-04-09T15:35:39.967Z</time></trkpt><trkpt lat="45.6438321" lon="10.459793"><ele>261.75</ele><time>2026-04-09T15:35:40.967Z</time></trkpt><trkpt lat="45.6437408" lon="10.4599271"><ele>262.0</ele><time>2026-04-09T15:35:41.966Z</time></trkpt><trkpt lat="45.6436427" lon="10.4600432"><ele>261.4</ele><time>2026-04-09T15:35:42.967Z</time></trkpt><trkpt lat="45.6435491" lon="10.4601584"><ele>260.79999999999995</ele><time>2026-04-09T15:35:43.966Z</time></trkpt><trkpt lat="45.6434679" lon="10.4602618"><ele>260.2</ele><time>2026-04-09T15:35:44.967Z</time></trkpt><trkpt lat="45.6433996" lon="10.4603677"><ele>259.59999999999997</ele><time>2026-04-09T15:35:45.967Z</time></trkpt><trkpt lat="45.6433305" lon="10.4604734"><ele>259.0</ele><time>2026-04-09T15:35:46.967Z</time></trkpt><trkpt lat="45.6432701" lon="10.4605607"><ele>259.0</ele><time>2026-04-09T15:35:47.967Z</time></trkpt><trkpt lat="45.6432124" lon="10.4606432"><ele>259.0</ele><time>2026-04-09T15:35:48.967Z</time></trkpt><trkpt lat="45.6431757" lon="10.4607362"><ele>259.0</ele><time>2026-04-09T15:35:49.967Z</time></trkpt><trkpt lat="45.6431703" lon="10.4608388"><ele>259.0</ele><time>2026-04-09T15:35:50.966Z</time></trkpt><trkpt lat="45.6431858" lon="10.4609486"><ele>259.0</ele><time>2026-04-09T15:35:51.967Z</time></trkpt><trkpt lat="45.643214" lon="10.4611002"><ele>259.0</ele><time>2026-04-09T15:35:52.966Z</time></trkpt><trkpt lat="45.6432458" lon="10.4612893"><ele>259.0</ele><time>2026-04-09T15:35:53.966Z</time></trkpt><trkpt lat="45.6432521" lon="10.461505"><ele>259.0</ele><time>2026-04-09T15:35:54.967Z</time></trkpt><trkpt lat="45.6432488" lon="10.4617031"><ele>259.0</ele><time>2026-04-09T15:35:55.967Z</time></trkpt><trkpt lat="45.6432339" lon="10.4618961"><ele>259.0</ele><time>2026-04-09T15:35:56.967Z</time></trkpt><trkpt lat="45.6432258" lon="10.4620822"><ele>258.75</ele><time>2026-04-09T15:35:57.967Z</time></trkpt><trkpt lat="45.6432203" lon="10.4622747"><ele>258.5</ele><time>2026-04-09T15:35:58.966Z</time></trkpt><trkpt lat="45.6432134" lon="10.4624756"><ele>258.25</ele><time>2026-04-09T15:35:59.967Z</time></trkpt><trkpt lat="45.643209" lon="10.4626767"><ele>258.0</ele><time>2026-04-09T15:36:00.967Z</time></trkpt><trkpt lat="45.6432004" lon="10.4628764"><ele>257.5</ele><time>2026-04-09T15:36:01.967Z</time></trkpt><trkpt lat="45.6431867" lon="10.4630742"><ele>257.0</ele><time>2026-04-09T15:36:02.967Z</time></trkpt><trkpt lat="45.6431721" lon="10.4632671"><ele>256.5</ele><time>2026-04-09T15:36:03.966Z</time></trkpt><trkpt lat="45.6431628" lon="10.4634637"><ele>256.0</ele><time>2026-04-09T15:36:04.966Z</time></trkpt><trkpt lat="45.6431662" lon="10.4636767"><ele>255.66666666666666</ele><time>2026-04-09T15:36:05.966Z</time></trkpt><trkpt lat="45.643194" lon="10.4639075"><ele>255.33333333333331</ele><time>2026-04-09T15:36:06.967Z</time></trkpt><trkpt lat="45.6432279" lon="10.4641414"><ele>255.0</ele><time>2026-04-09T15:36:07.967Z</time></trkpt><trkpt lat="45.6432713" lon="10.4643573"><ele>255.0</ele><time>2026-04-09T15:36:08.967Z</time></trkpt><trkpt lat="45.6433149" lon="10.4645754"><ele>255.0</ele><time>2026-04-09T15:36:09.966Z</time></trkpt><trkpt lat="45.6433651" lon="10.4648069"><ele>255.0</ele><time>2026-04-09T15:36:10.967Z</time></trkpt><trkpt lat="45.6434116" lon="10.4650389"><ele>254.66666666666669</ele><time>2026-04-09T15:36:11.967Z</time></trkpt><trkpt lat="45.6434585" lon="10.4652807"><ele>254.33333333333334</ele><time>2026-04-09T15:36:12.967Z</time></trkpt><trkpt lat="45.6435133" lon="10.4655181"><ele>254.0</ele><time>2026-04-09T15:36:13.967Z</time></trkpt><trkpt lat="45.643571" lon="10.4657428"><ele>255.66666666666669</ele><time>2026-04-09T15:36:14.967Z</time></trkpt><trkpt lat="45.6436573" lon="10.4659579"><ele>257.3333333333333</ele><time>2026-04-09T15:36:15.967Z</time></trkpt><trkpt lat="45.6437771" lon="10.4661515"><ele>259.0</ele><time>2026-04-09T15:36:16.967Z</time></trkpt><trkpt lat="45.643919" lon="10.4663617"><ele>259.0</ele><time>2026-04-09T15:36:17.966Z</time></trkpt><trkpt lat="45.6440562" lon="10.4665789"><ele>259.0</ele><time>2026-04-09T15:36:18.967Z</time></trkpt><trkpt lat="45.6442031" lon="10.4668213"><ele>259.0</ele><time>2026-04-09T15:36:19.966Z</time></trkpt><trkpt lat="45.6443528" lon="10.4670686"><ele>261.0</ele><time>2026-04-09T15:36:20.967Z</time></trkpt><trkpt lat="45.6445034" lon="10.4673057"><ele>263.0</ele><time>2026-04-09T15:36:21.967Z</time></trkpt><trkpt lat="45.6446489" lon="10.4675457"><ele>265.0</ele><time>2026-04-09T15:36:22.967Z</time></trkpt><trkpt lat="45.6447896" lon="10.4677989"><ele>262.5</ele><time>2026-04-09T15:36:23.967Z</time></trkpt><trkpt lat="45.6449335" lon="10.4680585"><ele>260.0</ele><time>2026-04-09T15:36:24.967Z</time></trkpt><trkpt lat="45.6450715" lon="10.4683076"><ele>260.0</ele><time>2026-04-09T15:36:25.967Z</time></trkpt><trkpt lat="45.6452017" lon="10.4685591"><ele>260.0</ele><time>2026-04-09T15:36:26.967Z</time></trkpt><trkpt lat="45.6453327" lon="10.4688135"><ele>260.0</ele><time>2026-04-09T15:36:27.967Z</time></trkpt><trkpt lat="45.6454618" lon="10.4690671"><ele>261.33333333333337</ele><time>2026-04-09T15:36:28.967Z</time></trkpt><trkpt lat="45.6455908" lon="10.4693305"><ele>262.6666666666667</ele><time>2026-04-09T15:36:29.967Z</time></trkpt><trkpt lat="45.6457141" lon="10.4695908"><ele>264.0</ele><time>2026-04-09T15:36:30.967Z</time></trkpt><trkpt lat="45.6458327" lon="10.4698437"><ele>262.0</ele><time>2026-04-09T15:36:31.967Z</time></trkpt><trkpt lat="45.645948" lon="10.4700795"><ele>260.0</ele><time>2026-04-09T15:36:32.967Z</time></trkpt><trkpt lat="45.6460555" lon="10.470301"><ele>258.0</ele><time>2026-04-09T15:36:33.967Z</time></trkpt><trkpt lat="45.6461612" lon="10.4705142"><ele>258.0</ele><time>2026-04-09T15:36:34.966Z</time></trkpt><trkpt lat="45.6462729" lon="10.4707071"><ele>258.0</ele><time>2026-04-09T15:36:35.966Z</time></trkpt><trkpt lat="45.6463826" lon="10.4708799"><ele>258.0</ele><time>2026-04-09T15:36:36.966Z</time></trkpt><trkpt lat="45.6464977" lon="10.4710465"><ele>258.0</ele><time>2026-04-09T15:36:37.966Z</time></trkpt><trkpt lat="45.6466274" lon="10.47121"><ele>258.0</ele><time>2026-04-09T15:36:38.966Z</time></trkpt><trkpt lat="45.6467645" lon="10.4713795"><ele>258.0</ele><time>2026-04-09T15:36:39.966Z</time></trkpt><trkpt lat="45.6469111" lon="10.4715535"><ele>257.6666666666667</ele><time>2026-04-09T15:36:40.966Z</time></trkpt><trkpt lat="45.6470632" lon="10.47175"><ele>257.33333333333337</ele><time>2026-04-09T15:36:41.966Z</time></trkpt><trkpt lat="45.6472082" lon="10.4719412"><ele>257.0</ele><time>2026-04-09T15:36:42.966Z</time></trkpt><trkpt lat="45.6473542" lon="10.4721455"><ele>256.33333333333337</ele><time>2026-04-09T15:36:43.966Z</time></trkpt><trkpt lat="45.6475043" lon="10.4723433"><ele>255.66666666666669</ele><time>2026-04-09T15:36:44.965Z</time></trkpt><trkpt lat="45.6476528" lon="10.472545"><ele>255.0</ele><time>2026-04-09T15:36:45.965Z</time></trkpt><trkpt lat="45.6478005" lon="10.4727519"><ele>254.33333333333331</ele><time>2026-04-09T15:36:46.966Z</time></trkpt><trkpt lat="45.6479476" lon="10.4729465"><ele>253.66666666666666</ele><time>2026-04-09T15:36:47.966Z</time></trkpt><trkpt lat="45.6480932" lon="10.4731412"><ele>253.0</ele><time>2026-04-09T15:36:48.965Z</time></trkpt><trkpt lat="45.648244" lon="10.4733421"><ele>253.0</ele><time>2026-04-09T15:36:49.965Z</time></trkpt><trkpt lat="45.6483931" lon="10.4735481"><ele>253.0</ele><time>2026-04-09T15:36:50.966Z</time></trkpt><trkpt lat="45.6485407" lon="10.4737502"><ele>253.0</ele><time>2026-04-09T15:36:51.966Z</time></trkpt><trkpt lat="45.6486872" lon="10.4739315"><ele>253.0</ele><time>2026-04-09T15:36:52.966Z</time></trkpt><trkpt lat="45.6488462" lon="10.4740849"><ele>253.0</ele><time>2026-04-09T15:36:53.966Z</time></trkpt><trkpt lat="45.649018" lon="10.4742082"><ele>253.0</ele><time>2026-04-09T15:36:54.965Z</time></trkpt><trkpt lat="45.649204" lon="10.4743137"><ele>253.0</ele><time>2026-04-09T15:36:55.966Z</time></trkpt><trkpt lat="45.6493806" lon="10.4744036"><ele>253.0</ele><time>2026-04-09T15:36:56.966Z</time></trkpt><trkpt lat="45.6495509" lon="10.4744856"><ele>253.0</ele><time>2026-04-09T15:36:57.966Z</time></trkpt><trkpt lat="45.6497109" lon="10.4745705"><ele>253.0</ele><time>2026-04-09T15:36:58.966Z</time></trkpt><trkpt lat="45.6498554" lon="10.4746535"><ele>253.0</ele><time>2026-04-09T15:36:59.966Z</time></trkpt><trkpt lat="45.6499885" lon="10.4747496"><ele>253.0</ele><time>2026-04-09T15:37:00.966Z</time></trkpt><trkpt lat="45.6501087" lon="10.4748702"><ele>253.0</ele><time>2026-04-09T15:37:01.966Z</time></trkpt><trkpt lat="45.6502104" lon="10.474991"><ele>253.0</ele><time>2026-04-09T15:37:02.965Z</time></trkpt><trkpt lat="45.6502925" lon="10.4751164"><ele>253.0</ele><time>2026-04-09T15:37:03.965Z</time></trkpt><trkpt lat="45.6503562" lon="10.47525"><ele>253.0</ele><time>2026-04-09T15:37:04.966Z</time></trkpt><trkpt lat="45.6504104" lon="10.4753747"><ele>252.25</ele><time>2026-04-09T15:37:05.966Z</time></trkpt><trkpt lat="45.6504833" lon="10.4754483"><ele>251.5</ele><time>2026-04-09T15:37:06.966Z</time></trkpt><trkpt lat="45.6505999" lon="10.4755038"><ele>250.75</ele><time>2026-04-09T15:37:07.966Z</time></trkpt><trkpt lat="45.650735" lon="10.4755825"><ele>250.0</ele><time>2026-04-09T15:37:08.966Z</time></trkpt><trkpt lat="45.6508591" lon="10.4757437"><ele>250.0</ele><time>2026-04-09T15:37:09.966Z</time></trkpt><trkpt lat="45.6509857" lon="10.4759083"><ele>250.0</ele><time>2026-04-09T15:37:10.966Z</time></trkpt><trkpt lat="45.6511113" lon="10.4761203"><ele>250.0</ele><time>2026-04-09T15:37:11.966Z</time></trkpt><trkpt lat="45.651232" lon="10.4763637"><ele>252.66666666666666</ele><time>2026-04-09T15:37:12.965Z</time></trkpt><trkpt lat="45.6513207" lon="10.476629"><ele>255.33333333333331</ele><time>2026-04-09T15:37:13.966Z</time></trkpt><trkpt lat="45.6513667" lon="10.4768861"><ele>258.0</ele><time>2026-04-09T15:37:14.966Z</time></trkpt><trkpt lat="45.6513852" lon="10.4771499"><ele>261.0</ele><time>2026-04-09T15:37:15.966Z</time></trkpt><trkpt lat="45.651379" lon="10.4774038"><ele>264.0</ele><time>2026-04-09T15:37:16.966Z</time></trkpt><trkpt lat="45.6513542" lon="10.4776373"><ele>267.0</ele><time>2026-04-09T15:37:17.966Z</time></trkpt><trkpt lat="45.6513193" lon="10.4778431"><ele>267.75</ele><time>2026-04-09T15:37:18.966Z</time></trkpt><trkpt lat="45.651295" lon="10.4780379"><ele>268.5</ele><time>2026-04-09T15:37:19.965Z</time></trkpt><trkpt lat="45.6512739" lon="10.4782329"><ele>269.25</ele><time>2026-04-09T15:37:20.966Z</time></trkpt><trkpt lat="45.6512415" lon="10.4784301"><ele>270.0</ele><time>2026-04-09T15:37:21.966Z</time></trkpt><trkpt lat="45.651208" lon="10.4786345"><ele>272.5</ele><time>2026-04-09T15:37:22.966Z</time></trkpt><trkpt lat="45.6511711" lon="10.4788391"><ele>275.0</ele><time>2026-04-09T15:37:23.966Z</time></trkpt><trkpt lat="45.6511351" lon="10.4790461"><ele>277.5</ele><time>2026-04-09T15:37:24.965Z</time></trkpt><trkpt lat="45.6510996" lon="10.4792439"><ele>280.0</ele><time>2026-04-09T15:37:25.965Z</time></trkpt><trkpt lat="45.6510647" lon="10.4794241"><ele>274.5</ele><time>2026-04-09T15:37:26.966Z</time></trkpt><trkpt lat="45.6510256" lon="10.479605"><ele>269.0</ele><time>2026-04-09T15:37:27.966Z</time></trkpt><trkpt lat="45.6509826" lon="10.4797795"><ele>263.5</ele><time>2026-04-09T15:37:28.966Z</time></trkpt><trkpt lat="45.6509298" lon="10.4799451"><ele>258.0</ele><time>2026-04-09T15:37:29.966Z</time></trkpt><trkpt lat="45.6508762" lon="10.4800929"><ele>258.0</ele><time>2026-04-09T15:37:30.965Z</time></trkpt><trkpt lat="45.6508289" lon="10.4802337"><ele>258.0</ele><time>2026-04-09T15:37:31.966Z</time></trkpt><trkpt lat="45.6507847" lon="10.4803822"><ele>258.0</ele><time>2026-04-09T15:37:32.966Z</time></trkpt><trkpt lat="45.6507354" lon="10.4805344"><ele>258.0</ele><time>2026-04-09T15:37:33.965Z</time></trkpt><trkpt lat="45.6506914" lon="10.4806796"><ele>259.25</ele><time>2026-04-09T15:37:34.966Z</time></trkpt><trkpt lat="45.6506485" lon="10.4808309"><ele>260.5</ele><time>2026-04-09T15:37:35.965Z</time></trkpt><trkpt lat="45.650604" lon="10.480997"><ele>261.75</ele><time>2026-04-09T15:37:36.966Z</time></trkpt><trkpt lat="45.650555" lon="10.4811833"><ele>263.0</ele><time>2026-04-09T15:37:37.966Z</time></trkpt><trkpt lat="45.6505013" lon="10.4813721"><ele>263.8</ele><time>2026-04-09T15:37:38.966Z</time></trkpt><trkpt lat="45.6504482" lon="10.4815303"><ele>264.6</ele><time>2026-04-09T15:37:39.966Z</time></trkpt><trkpt lat="45.6503984" lon="10.4816755"><ele>265.4</ele><time>2026-04-09T15:37:40.966Z</time></trkpt><trkpt lat="45.6503579" lon="10.481806"><ele>266.2</ele><time>2026-04-09T15:37:41.966Z</time></trkpt><trkpt lat="45.6503219" lon="10.4819365"><ele>267.0</ele><time>2026-04-09T15:37:42.966Z</time></trkpt><trkpt lat="45.6502816" lon="10.4820771"><ele>262.25</ele><time>2026-04-09T15:37:43.965Z</time></trkpt><trkpt lat="45.6502377" lon="10.4822318"><ele>257.5</ele><time>2026-04-09T15:37:44.966Z</time></trkpt><trkpt lat="45.6501937" lon="10.4823918"><ele>252.75</ele><time>2026-04-09T15:37:45.966Z</time></trkpt><trkpt lat="45.6501499" lon="10.482544"><ele>248.0</ele><time>2026-04-09T15:37:46.966Z</time></trkpt><trkpt lat="45.6501089" lon="10.4826969"><ele>248.0</ele><time>2026-04-09T15:37:47.966Z</time></trkpt><trkpt lat="45.6500702" lon="10.4828576"><ele>248.0</ele><time>2026-04-09T15:37:48.965Z</time></trkpt><trkpt lat="45.6500391" lon="10.4830318"><ele>248.0</ele><time>2026-04-09T15:37:49.966Z</time></trkpt><trkpt lat="45.6500041" lon="10.4832261"><ele>248.0</ele><time>2026-04-09T15:37:50.965Z</time></trkpt><trkpt lat="45.6499673" lon="10.4834371"><ele>249.75</ele><time>2026-04-09T15:37:51.966Z</time></trkpt><trkpt lat="45.6499363" lon="10.4836428"><ele>251.5</ele><time>2026-04-09T15:37:52.966Z</time></trkpt><trkpt lat="45.6498991" lon="10.4838508"><ele>253.25</ele><time>2026-04-09T15:37:53.966Z</time></trkpt><trkpt lat="45.6498696" lon="10.4840497"><ele>255.0</ele><time>2026-04-09T15:37:54.965Z</time></trkpt><trkpt lat="45.6498337" lon="10.4842345"><ele>255.75</ele><time>2026-04-09T15:37:55.966Z</time></trkpt><trkpt lat="45.6498025" lon="10.484406"><ele>256.5</ele><time>2026-04-09T15:37:56.966Z</time></trkpt><trkpt lat="45.6497793" lon="10.4845695"><ele>257.25</ele><time>2026-04-09T15:37:57.965Z</time></trkpt><trkpt lat="45.6497576" lon="10.4847289"><ele>258.0</ele><time>2026-04-09T15:37:58.966Z</time></trkpt><trkpt lat="45.6497396" lon="10.4848914"><ele>259.75</ele><time>2026-04-09T15:37:59.966Z</time></trkpt><trkpt lat="45.6497345" lon="10.4850661"><ele>261.5</ele><time>2026-04-09T15:38:00.966Z</time></trkpt><trkpt lat="45.6497408" lon="10.4852704"><ele>263.25</ele><time>2026-04-09T15:38:01.966Z</time></trkpt><trkpt lat="45.649742" lon="10.4855081"><ele>265.0</ele><time>2026-04-09T15:38:02.965Z</time></trkpt><trkpt lat="45.6497564" lon="10.4857648"><ele>265.0</ele><time>2026-04-09T15:38:03.965Z</time></trkpt><trkpt lat="45.6497811" lon="10.4860075"><ele>265.0</ele><time>2026-04-09T15:38:04.966Z</time></trkpt><trkpt lat="45.6497988" lon="10.4862391"><ele>265.0</ele><time>2026-04-09T15:38:05.966Z</time></trkpt><trkpt lat="45.6498099" lon="10.4864638"><ele>265.5</ele><time>2026-04-09T15:38:06.966Z</time></trkpt><trkpt lat="45.6498129" lon="10.4866684"><ele>266.0</ele><time>2026-04-09T15:38:07.966Z</time></trkpt><trkpt lat="45.6498119" lon="10.4868572"><ele>266.5</ele><time>2026-04-09T15:38:08.966Z</time></trkpt><trkpt lat="45.6498139" lon="10.4870261"><ele>267.0</ele><time>2026-04-09T15:38:09.966Z</time></trkpt><trkpt lat="45.6498087" lon="10.4871825"><ele>265.25</ele><time>2026-04-09T15:38:10.966Z</time></trkpt><trkpt lat="45.6498067" lon="10.4873606"><ele>263.5</ele><time>2026-04-09T15:38:11.965Z</time></trkpt><trkpt lat="45.6497956" lon="10.4875755"><ele>261.75</ele><time>2026-04-09T15:38:12.966Z</time></trkpt><trkpt lat="45.649782" lon="10.4878225"><ele>260.0</ele><time>2026-04-09T15:38:13.966Z</time></trkpt><trkpt lat="45.6497565" lon="10.4880744"><ele>259.6666666666667</ele><time>2026-04-09T15:38:14.966Z</time></trkpt><trkpt lat="45.6497273" lon="10.4883393"><ele>259.3333333333333</ele><time>2026-04-09T15:38:15.966Z</time></trkpt><trkpt lat="45.6497029" lon="10.4886091"><ele>259.0</ele><time>2026-04-09T15:38:16.966Z</time></trkpt><trkpt lat="45.6496819" lon="10.4888928"><ele>261.0</ele><time>2026-04-09T15:38:17.966Z</time></trkpt><trkpt lat="45.6496578" lon="10.489172"><ele>263.0</ele><time>2026-04-09T15:38:18.966Z</time></trkpt><trkpt lat="45.6496287" lon="10.4894503"><ele>265.0</ele><time>2026-04-09T15:38:19.966Z</time></trkpt><trkpt lat="45.6496057" lon="10.4897323"><ele>266.3333333333333</ele><time>2026-04-09T15:38:20.966Z</time></trkpt><trkpt lat="45.6495805" lon="10.4900128"><ele>267.6666666666667</ele><time>2026-04-09T15:38:21.966Z</time></trkpt><trkpt lat="45.6495494" lon="10.4902867"><ele>269.0</ele><time>2026-04-09T15:38:22.966Z</time></trkpt><trkpt lat="45.6495192" lon="10.4905532"><ele>270.0</ele><time>2026-04-09T15:38:23.965Z</time></trkpt><trkpt lat="45.6494754" lon="10.4908184"><ele>271.0</ele><time>2026-04-09T15:38:24.966Z</time></trkpt><trkpt lat="45.6494184" lon="10.4910831"><ele>272.0</ele><time>2026-04-09T15:38:25.966Z</time></trkpt><trkpt lat="45.6493547" lon="10.4913531"><ele>264.33333333333337</ele><time>2026-04-09T15:38:26.965Z</time></trkpt><trkpt lat="45.6492863" lon="10.4916231"><ele>256.6666666666667</ele><time>2026-04-09T15:38:27.966Z</time></trkpt><trkpt lat="45.6492082" lon="10.491893"><ele>249.0</ele><time>2026-04-09T15:38:28.966Z</time></trkpt><trkpt lat="45.6491336" lon="10.4921523"><ele>249.0</ele><time>2026-04-09T15:38:29.965Z</time></trkpt><trkpt lat="45.64906" lon="10.492406"><ele>249.0</ele><time>2026-04-09T15:38:30.966Z</time></trkpt><trkpt lat="45.6489892" lon="10.4926474"><ele>249.0</ele><time>2026-04-09T15:38:31.966Z</time></trkpt><trkpt lat="45.6489241" lon="10.492883"><ele>251.0</ele><time>2026-04-09T15:38:32.966Z</time></trkpt><trkpt lat="45.6488576" lon="10.493111"><ele>253.0</ele><time>2026-04-09T15:38:33.966Z</time></trkpt><trkpt lat="45.6488003" lon="10.4933282"><ele>255.0</ele><time>2026-04-09T15:38:34.965Z</time></trkpt><trkpt lat="45.648743" lon="10.493539"><ele>255.0</ele><time>2026-04-09T15:38:35.965Z</time></trkpt><trkpt lat="45.6486824" lon="10.4937459"><ele>255.0</ele><time>2026-04-09T15:38:36.966Z</time></trkpt><trkpt lat="45.6486161" lon="10.4939484"><ele>255.0</ele><time>2026-04-09T15:38:37.965Z</time></trkpt><trkpt lat="45.6485445" lon="10.4941502"><ele>255.0</ele><time>2026-04-09T15:38:38.966Z</time></trkpt><trkpt lat="45.6484532" lon="10.4943657"><ele>255.0</ele><time>2026-04-09T15:38:39.966Z</time></trkpt><trkpt lat="45.6483464" lon="10.4945658"><ele>255.0</ele><time>2026-04-09T15:38:40.966Z</time></trkpt><trkpt lat="45.6482341" lon="10.4947598"><ele>255.0</ele><time>2026-04-09T15:38:41.966Z</time></trkpt><trkpt lat="45.6481172" lon="10.494953"><ele>255.0</ele><time>2026-04-09T15:38:42.966Z</time></trkpt><trkpt lat="45.6480007" lon="10.4951536"><ele>255.0</ele><time>2026-04-09T15:38:43.966Z</time></trkpt><trkpt lat="45.6478898" lon="10.4953569"><ele>251.66666666666669</ele><time>2026-04-09T15:38:44.965Z</time></trkpt><trkpt lat="45.6477725" lon="10.4955757"><ele>248.33333333333334</ele><time>2026-04-09T15:38:45.966Z</time></trkpt><trkpt lat="45.6476505" lon="10.4957865"><ele>245.0</ele><time>2026-04-09T15:38:46.965Z</time></trkpt><trkpt lat="45.6475206" lon="10.4959947"><ele>245.0</ele><time>2026-04-09T15:38:47.966Z</time></trkpt><trkpt lat="45.6473992" lon="10.4962055"><ele>245.0</ele><time>2026-04-09T15:38:48.966Z</time></trkpt><trkpt lat="45.6472753" lon="10.4964006"><ele>245.0</ele><time>2026-04-09T15:38:49.966Z</time></trkpt><trkpt lat="45.6471622" lon="10.4966003"><ele>244.66666666666669</ele><time>2026-04-09T15:38:50.965Z</time></trkpt><trkpt lat="45.6470483" lon="10.4967971"><ele>244.33333333333331</ele><time>2026-04-09T15:38:51.966Z</time></trkpt><trkpt lat="45.6469367" lon="10.496985"><ele>244.0</ele><time>2026-04-09T15:38:52.966Z</time></trkpt><trkpt lat="45.6468321" lon="10.4971717"><ele>244.0</ele><time>2026-04-09T15:38:53.966Z</time></trkpt><trkpt lat="45.6467386" lon="10.4973473"><ele>244.0</ele><time>2026-04-09T15:38:54.966Z</time></trkpt><trkpt lat="45.6466563" lon="10.4975375"><ele>244.0</ele><time>2026-04-09T15:38:55.966Z</time></trkpt><trkpt lat="45.6465819" lon="10.4977332"><ele>245.0</ele><time>2026-04-09T15:38:56.966Z</time></trkpt><trkpt lat="45.6465066" lon="10.4979506"><ele>246.0</ele><time>2026-04-09T15:38:57.965Z</time></trkpt><trkpt lat="45.6464234" lon="10.4981488"><ele>247.0</ele><time>2026-04-09T15:38:58.966Z</time></trkpt><trkpt lat="45.6463431" lon="10.4983424"><ele>247.0</ele><time>2026-04-09T15:38:59.965Z</time></trkpt><trkpt lat="45.6462777" lon="10.4985309"><ele>247.0</ele><time>2026-04-09T15:39:00.966Z</time></trkpt><trkpt lat="45.6462194" lon="10.49871"><ele>247.0</ele><time>2026-04-09T15:39:01.966Z</time></trkpt><trkpt lat="45.6461682" lon="10.4988744"><ele>247.0</ele><time>2026-04-09T15:39:02.966Z</time></trkpt><trkpt lat="45.646126" lon="10.4990306"><ele>245.83333333333331</ele><time>2026-04-09T15:39:03.965Z</time></trkpt><trkpt lat="45.6460944" lon="10.4991728"><ele>244.66666666666666</ele><time>2026-04-09T15:39:04.965Z</time></trkpt><trkpt lat="45.6460641" lon="10.4992796"><ele>243.5</ele><time>2026-04-09T15:39:05.965Z</time></trkpt><trkpt lat="45.64605" lon="10.4993773"><ele>242.33333333333331</ele><time>2026-04-09T15:39:07.966Z</time></trkpt><trkpt lat="45.6460332" lon="10.4994677"><ele>241.16666666666666</ele><time>2026-04-09T15:39:28.966Z</time></trkpt><trkpt lat="45.6460241" lon="10.4996223"><ele>240.0</ele><time>2026-04-09T15:39:30.966Z</time></trkpt><trkpt lat="45.6460362" lon="10.4997914"><ele>240.0</ele><time>2026-04-09T15:39:32.966Z</time></trkpt><trkpt lat="45.6460492" lon="10.4998845"><ele>240.0</ele><time>2026-04-09T15:39:33.966Z</time></trkpt><trkpt lat="45.6460599" lon="10.4999886"><ele>240.0</ele><time>2026-04-09T15:39:34.965Z</time></trkpt><trkpt lat="45.6460706" lon="10.5001047"><ele>240.0</ele><time>2026-04-09T15:39:35.966Z</time></trkpt><trkpt lat="45.6460809" lon="10.5002109"><ele>240.0</ele><time>2026-04-09T15:39:36.965Z</time></trkpt><trkpt lat="45.6461039" lon="10.5003315"><ele>240.0</ele><time>2026-04-09T15:39:37.966Z</time></trkpt><trkpt lat="45.6461227" lon="10.5004604"><ele>243.8</ele><time>2026-04-09T15:39:38.966Z</time></trkpt><trkpt lat="45.6461374" lon="10.5005883"><ele>247.6</ele><time>2026-04-09T15:39:39.966Z</time></trkpt><trkpt lat="45.6461516" lon="10.5007197"><ele>251.39999999999998</ele><time>2026-04-09T15:39:40.966Z</time></trkpt><trkpt lat="45.6461573" lon="10.5008512"><ele>255.2</ele><time>2026-04-09T15:39:41.966Z</time></trkpt><trkpt lat="45.6461647" lon="10.5010041"><ele>259.0</ele><time>2026-04-09T15:39:42.966Z</time></trkpt><trkpt lat="45.6461815" lon="10.501163"><ele>256.5</ele><time>2026-04-09T15:39:43.965Z</time></trkpt><trkpt lat="45.6461787" lon="10.5013347"><ele>254.0</ele><time>2026-04-09T15:39:44.966Z</time></trkpt><trkpt lat="45.6461795" lon="10.5015131"><ele>251.5</ele><time>2026-04-09T15:39:45.965Z</time></trkpt><trkpt lat="45.6461802" lon="10.5016942"><ele>249.0</ele><time>2026-04-09T15:39:46.966Z</time></trkpt><trkpt lat="45.6461798" lon="10.5018762"><ele>249.0</ele><time>2026-04-09T15:39:47.966Z</time></trkpt><trkpt lat="45.646183" lon="10.5020552"><ele>248.99999999999997</ele><time>2026-04-09T15:39:48.965Z</time></trkpt><trkpt lat="45.6461805" lon="10.5022172"><ele>248.99999999999997</ele><time>2026-04-09T15:39:49.966Z</time></trkpt><trkpt lat="45.646181" lon="10.5023632"><ele>249.0</ele><time>2026-04-09T15:39:50.966Z</time></trkpt><trkpt lat="45.6461786" lon="10.5024957"><ele>249.0</ele><time>2026-04-09T15:39:51.966Z</time></trkpt><trkpt lat="45.6461746" lon="10.5026264"><ele>248.33333333333334</ele><time>2026-04-09T15:39:52.966Z</time></trkpt><trkpt lat="45.6461733" lon="10.5027367"><ele>247.66666666666669</ele><time>2026-04-09T15:39:53.965Z</time></trkpt><trkpt lat="45.6461735" lon="10.5028528"><ele>247.0</ele><time>2026-04-09T15:39:54.965Z</time></trkpt><trkpt lat="45.6461681" lon="10.5029769"><ele>246.33333333333334</ele><time>2026-04-09T15:39:55.966Z</time></trkpt><trkpt lat="45.6461642" lon="10.5031034"><ele>245.66666666666669</ele><time>2026-04-09T15:39:56.966Z</time></trkpt><trkpt lat="45.6461575" lon="10.5032306"><ele>245.0</ele><time>2026-04-09T15:39:57.966Z</time></trkpt><trkpt lat="45.6461428" lon="10.5033766"><ele>243.75</ele><time>2026-04-09T15:39:58.966Z</time></trkpt><trkpt lat="45.64612" lon="10.5035383"><ele>242.5</ele><time>2026-04-09T15:39:59.966Z</time></trkpt><trkpt lat="45.6460742" lon="10.5037119"><ele>241.25</ele><time>2026-04-09T15:40:00.966Z</time></trkpt><trkpt lat="45.6460184" lon="10.503887"><ele>240.0</ele><time>2026-04-09T15:40:01.966Z</time></trkpt><trkpt lat="45.64595" lon="10.5040711"><ele>240.0</ele><time>2026-04-09T15:40:02.966Z</time></trkpt><trkpt lat="45.6458868" lon="10.5042569"><ele>240.0</ele><time>2026-04-09T15:40:03.965Z</time></trkpt><trkpt lat="45.6458154" lon="10.5044161"><ele>240.0</ele><time>2026-04-09T15:40:04.965Z</time></trkpt><trkpt lat="45.6457384" lon="10.5045569"><ele>240.0</ele><time>2026-04-09T15:40:05.965Z</time></trkpt><trkpt lat="45.6456655" lon="10.5046787"><ele>240.75</ele><time>2026-04-09T15:40:06.964Z</time></trkpt><trkpt lat="45.6455761" lon="10.5047821"><ele>241.5</ele><time>2026-04-09T15:40:07.965Z</time></trkpt><trkpt lat="45.6454733" lon="10.5048679"><ele>242.25</ele><time>2026-04-09T15:40:08.965Z</time></trkpt><trkpt lat="45.6453541" lon="10.5049393"><ele>243.0</ele><time>2026-04-09T15:40:09.965Z</time></trkpt><trkpt lat="45.6452282" lon="10.5050066"><ele>243.0</ele><time>2026-04-09T15:40:10.965Z</time></trkpt><trkpt lat="45.6451117" lon="10.5050682"><ele>243.0</ele><time>2026-04-09T15:40:11.965Z</time></trkpt><trkpt lat="45.6449815" lon="10.5051029"><ele>243.0</ele><time>2026-04-09T15:40:12.964Z</time></trkpt><trkpt lat="45.6448425" lon="10.5051348"><ele>243.0</ele><time>2026-04-09T15:40:13.964Z</time></trkpt><trkpt lat="45.6446979" lon="10.505145"><ele>243.0</ele><time>2026-04-09T15:40:14.965Z</time></trkpt><trkpt lat="45.6445486" lon="10.5051658"><ele>243.0</ele><time>2026-04-09T15:40:15.965Z</time></trkpt><trkpt lat="45.6443894" lon="10.5051756"><ele>243.0</ele><time>2026-04-09T15:40:16.965Z</time></trkpt><trkpt lat="45.6442219" lon="10.5051846"><ele>243.0</ele><time>2026-04-09T15:40:17.965Z</time></trkpt><trkpt lat="45.644052" lon="10.5051975"><ele>243.0</ele><time>2026-04-09T15:40:18.964Z</time></trkpt><trkpt lat="45.6438784" lon="10.5052173"><ele>243.0</ele><time>2026-04-09T15:40:19.965Z</time></trkpt><trkpt lat="45.6437073" lon="10.5052362"><ele>243.33333333333331</ele><time>2026-04-09T15:40:20.965Z</time></trkpt><trkpt lat="45.6435187" lon="10.5052608"><ele>243.66666666666666</ele><time>2026-04-09T15:40:21.964Z</time></trkpt><trkpt lat="45.6433276" lon="10.5052764"><ele>244.0</ele><time>2026-04-09T15:40:22.965Z</time></trkpt><trkpt lat="45.6431344" lon="10.5052879"><ele>244.0</ele><time>2026-04-09T15:40:23.964Z</time></trkpt><trkpt lat="45.6429425" lon="10.5052962"><ele>244.0</ele><time>2026-04-09T15:40:24.965Z</time></trkpt><trkpt lat="45.64276" lon="10.5053078"><ele>244.0</ele><time>2026-04-09T15:40:25.965Z</time></trkpt><trkpt lat="45.6425906" lon="10.5053151"><ele>242.5</ele><time>2026-04-09T15:40:26.965Z</time></trkpt><trkpt lat="45.6424434" lon="10.5053325"><ele>241.0</ele><time>2026-04-09T15:40:27.965Z</time></trkpt><trkpt lat="45.6423057" lon="10.5053354"><ele>239.5</ele><time>2026-04-09T15:40:28.965Z</time></trkpt><trkpt lat="45.6421713" lon="10.5053311"><ele>238.0</ele><time>2026-04-09T15:40:29.965Z</time></trkpt><trkpt lat="45.642045" lon="10.5053171"><ele>238.0</ele><time>2026-04-09T15:40:30.964Z</time></trkpt><trkpt lat="45.6419223" lon="10.505306"><ele>238.0</ele><time>2026-04-09T15:40:31.964Z</time></trkpt><trkpt lat="45.6418024" lon="10.505301"><ele>238.0</ele><time>2026-04-09T15:40:32.965Z</time></trkpt><trkpt lat="45.6416787" lon="10.5053221"><ele>238.0</ele><time>2026-04-09T15:40:33.965Z</time></trkpt><trkpt lat="45.6415586" lon="10.5053549"><ele>238.0</ele><time>2026-04-09T15:40:34.964Z</time></trkpt><trkpt lat="45.6414469" lon="10.5054015"><ele>238.0</ele><time>2026-04-09T15:40:35.964Z</time></trkpt><trkpt lat="45.6413327" lon="10.5054417"><ele>238.0</ele><time>2026-04-09T15:40:36.965Z</time></trkpt><trkpt lat="45.6412194" lon="10.5054674"><ele>238.0</ele><time>2026-04-09T15:40:37.965Z</time></trkpt><trkpt lat="45.6411034" lon="10.5054835"><ele>241.5</ele><time>2026-04-09T15:40:38.965Z</time></trkpt><trkpt lat="45.6409937" lon="10.5055056"><ele>245.0</ele><time>2026-04-09T15:40:39.965Z</time></trkpt><trkpt lat="45.6408763" lon="10.5055323"><ele>248.5</ele><time>2026-04-09T15:40:40.965Z</time></trkpt><trkpt lat="45.6407519" lon="10.5055778"><ele>252.0</ele><time>2026-04-09T15:40:41.965Z</time></trkpt><trkpt lat="45.6406248" lon="10.5056409"><ele>252.0</ele><time>2026-04-09T15:40:42.965Z</time></trkpt><trkpt lat="45.6404961" lon="10.5057248"><ele>252.0</ele><time>2026-04-09T15:40:43.964Z</time></trkpt><trkpt lat="45.640369" lon="10.5058219"><ele>252.0</ele><time>2026-04-09T15:40:44.965Z</time></trkpt><trkpt lat="45.6402272" lon="10.5059396"><ele>252.0</ele><time>2026-04-09T15:40:45.965Z</time></trkpt><trkpt lat="45.640057" lon="10.5060794"><ele>252.33333333333331</ele><time>2026-04-09T15:40:46.965Z</time></trkpt><trkpt lat="45.6398962" lon="10.5062136"><ele>252.66666666666666</ele><time>2026-04-09T15:40:47.965Z</time></trkpt><trkpt lat="45.6397413" lon="10.5063219"><ele>253.0</ele><time>2026-04-09T15:40:48.965Z</time></trkpt><trkpt lat="45.639603" lon="10.5064081"><ele>253.0</ele><time>2026-04-09T15:40:49.965Z</time></trkpt><trkpt lat="45.6394743" lon="10.5064788"><ele>253.0</ele><time>2026-04-09T15:40:50.965Z</time></trkpt><trkpt lat="45.6393405" lon="10.5065477"><ele>253.0</ele><time>2026-04-09T15:40:51.965Z</time></trkpt><trkpt lat="45.6392201" lon="10.5066095"><ele>253.0</ele><time>2026-04-09T15:40:52.964Z</time></trkpt><trkpt lat="45.6390915" lon="10.5066708"><ele>250.0</ele><time>2026-04-09T15:40:53.965Z</time></trkpt><trkpt lat="45.6389588" lon="10.5067298"><ele>247.0</ele><time>2026-04-09T15:40:54.965Z</time></trkpt><trkpt lat="45.6388299" lon="10.5067853"><ele>244.0</ele><time>2026-04-09T15:40:55.965Z</time></trkpt><trkpt lat="45.6387067" lon="10.5068396"><ele>241.0</ele><time>2026-04-09T15:40:56.965Z</time></trkpt><trkpt lat="45.6385925" lon="10.506883"><ele>240.8</ele><time>2026-04-09T15:40:57.964Z</time></trkpt><trkpt lat="45.6384914" lon="10.5069397"><ele>240.60000000000002</ele><time>2026-04-09T15:40:58.964Z</time></trkpt><trkpt lat="45.6383927" lon="10.5069876"><ele>240.4</ele><time>2026-04-09T15:40:59.964Z</time></trkpt><trkpt lat="45.6382927" lon="10.5070437"><ele>240.2</ele><time>2026-04-09T15:41:00.965Z</time></trkpt><trkpt lat="45.6381864" lon="10.507099"><ele>240.0</ele><time>2026-04-09T15:41:01.965Z</time></trkpt><trkpt lat="45.6380765" lon="10.5071501"><ele>240.5</ele><time>2026-04-09T15:41:02.965Z</time></trkpt><trkpt lat="45.6379598" lon="10.5072012"><ele>241.0</ele><time>2026-04-09T15:41:03.964Z</time></trkpt><trkpt lat="45.6378441" lon="10.5072592"><ele>241.5</ele><time>2026-04-09T15:41:04.965Z</time></trkpt><trkpt lat="45.6377199" lon="10.5073212"><ele>242.0</ele><time>2026-04-09T15:41:05.965Z</time></trkpt><trkpt lat="45.6375815" lon="10.5073869"><ele>242.0</ele><time>2026-04-09T15:41:06.965Z</time></trkpt><trkpt lat="45.6374462" lon="10.5074533"><ele>242.0</ele><time>2026-04-09T15:41:07.965Z</time></trkpt><trkpt lat="45.6373105" lon="10.5075159"><ele>242.0</ele><time>2026-04-09T15:41:08.965Z</time></trkpt><trkpt lat="45.6371815" lon="10.5075728"><ele>242.0</ele><time>2026-04-09T15:41:09.965Z</time></trkpt><trkpt lat="45.6370592" lon="10.5076287"><ele>241.5</ele><time>2026-04-09T15:41:10.964Z</time></trkpt><trkpt lat="45.6369403" lon="10.5076827"><ele>241.0</ele><time>2026-04-09T15:41:11.965Z</time></trkpt><trkpt lat="45.6368211" lon="10.5077293"><ele>240.5</ele><time>2026-04-09T15:41:12.965Z</time></trkpt><trkpt lat="45.6367014" lon="10.5077827"><ele>240.0</ele><time>2026-04-09T15:41:13.964Z</time></trkpt><trkpt lat="45.6365911" lon="10.5078301"><ele>240.0</ele><time>2026-04-09T15:41:14.965Z</time></trkpt><trkpt lat="45.6364847" lon="10.5078687"><ele>240.0</ele><time>2026-04-09T15:41:15.964Z</time></trkpt><trkpt lat="45.6363836" lon="10.5079033"><ele>240.0</ele><time>2026-04-09T15:41:16.965Z</time></trkpt><trkpt lat="45.6362867" lon="10.5079316"><ele>240.0</ele><time>2026-04-09T15:41:17.965Z</time></trkpt><trkpt lat="45.636186" lon="10.507955"><ele>240.0</ele><time>2026-04-09T15:41:18.964Z</time></trkpt><trkpt lat="45.6360796" lon="10.5079775"><ele>240.8</ele><time>2026-04-09T15:41:19.965Z</time></trkpt><trkpt lat="45.6359729" lon="10.507987"><ele>241.6</ele><time>2026-04-09T15:41:20.965Z</time></trkpt><trkpt lat="45.6358701" lon="10.5079877"><ele>242.39999999999998</ele><time>2026-04-09T15:41:21.965Z</time></trkpt><trkpt lat="45.6357798" lon="10.5079794"><ele>243.2</ele><time>2026-04-09T15:41:22.964Z</time></trkpt><trkpt lat="45.6357032" lon="10.5079739"><ele>244.0</ele><time>2026-04-09T15:41:23.965Z</time></trkpt><trkpt lat="45.6356305" lon="10.5079577"><ele>243.99999999999997</ele><time>2026-04-09T15:41:24.965Z</time></trkpt><trkpt lat="45.6355514" lon="10.5079453"><ele>244.0</ele><time>2026-04-09T15:41:25.964Z</time></trkpt><trkpt lat="45.6354672" lon="10.5079185"><ele>244.0</ele><time>2026-04-09T15:41:26.965Z</time></trkpt><trkpt lat="45.6353822" lon="10.5078872"><ele>244.0</ele><time>2026-04-09T15:41:27.965Z</time></trkpt><trkpt lat="45.635293" lon="10.5078354"><ele>243.99999999999997</ele><time>2026-04-09T15:41:28.965Z</time></trkpt><trkpt lat="45.6352045" lon="10.507781"><ele>244.0</ele><time>2026-04-09T15:41:29.965Z</time></trkpt><trkpt lat="45.6351168" lon="10.5077284"><ele>243.0</ele><time>2026-04-09T15:41:30.965Z</time></trkpt><trkpt lat="45.6350305" lon="10.5076699"><ele>241.99999999999997</ele><time>2026-04-09T15:41:31.965Z</time></trkpt><trkpt lat="45.6349285" lon="10.5076095"><ele>240.99999999999997</ele><time>2026-04-09T15:41:32.965Z</time></trkpt><trkpt lat="45.634815" lon="10.5075447"><ele>240.0</ele><time>2026-04-09T15:41:33.964Z</time></trkpt><trkpt lat="45.6347081" lon="10.5074856"><ele>239.0</ele><time>2026-04-09T15:41:34.965Z</time></trkpt><trkpt lat="45.6346117" lon="10.5074308"><ele>239.00000000000003</ele><time>2026-04-09T15:41:35.964Z</time></trkpt><trkpt lat="45.6345269" lon="10.507378"><ele>239.0</ele><time>2026-04-09T15:41:36.965Z</time></trkpt><trkpt lat="45.6344452" lon="10.5073313"><ele>239.0</ele><time>2026-04-09T15:41:37.964Z</time></trkpt><trkpt lat="45.6343718" lon="10.5072861"><ele>239.0</ele><time>2026-04-09T15:41:38.964Z</time></trkpt><trkpt lat="45.6343027" lon="10.5072276"><ele>239.00000000000003</ele><time>2026-04-09T15:41:39.965Z</time></trkpt><trkpt lat="45.6342388" lon="10.5071596"><ele>239.0</ele><time>2026-04-09T15:41:40.965Z</time></trkpt><trkpt lat="45.634182" lon="10.507094"><ele>239.16666666666669</ele><time>2026-04-09T15:41:41.965Z</time></trkpt><trkpt lat="45.6341363" lon="10.507029"><ele>239.33333333333334</ele><time>2026-04-09T15:41:42.965Z</time></trkpt><trkpt lat="45.6340719" lon="10.5069278"><ele>239.5</ele><time>2026-04-09T15:41:44.965Z</time></trkpt><trkpt lat="45.6340278" lon="10.5068247"><ele>239.66666666666669</ele><time>2026-04-09T15:41:46.965Z</time></trkpt><trkpt lat="45.6339766" lon="10.5067029"><ele>239.83333333333334</ele><time>2026-04-09T15:41:48.965Z</time></trkpt><trkpt lat="45.6339393" lon="10.5066222"><ele>240.0</ele><time>2026-04-09T15:41:49.964Z</time></trkpt><trkpt lat="45.6338906" lon="10.5065369"><ele>240.0</ele><time>2026-04-09T15:41:50.964Z</time></trkpt><trkpt lat="45.6338172" lon="10.5065069"><ele>240.0</ele><time>2026-04-09T15:41:51.965Z</time></trkpt><trkpt lat="45.6337375" lon="10.5065117"><ele>240.0</ele><time>2026-04-09T15:41:52.965Z</time></trkpt><trkpt lat="45.6336472" lon="10.5065393"><ele>240.0</ele><time>2026-04-09T15:41:53.965Z</time></trkpt><trkpt lat="45.6335322" lon="10.5065885"><ele>240.0</ele><time>2026-04-09T15:41:54.965Z</time></trkpt><trkpt lat="45.6334058" lon="10.5066109"><ele>241.5</ele><time>2026-04-09T15:41:55.964Z</time></trkpt><trkpt lat="45.6332881" lon="10.5065855"><ele>243.0</ele><time>2026-04-09T15:41:56.964Z</time></trkpt><trkpt lat="45.6331662" lon="10.5065504"><ele>244.5</ele><time>2026-04-09T15:41:57.964Z</time></trkpt><trkpt lat="45.633042" lon="10.5065006"><ele>246.0</ele><time>2026-04-09T15:41:58.965Z</time></trkpt><trkpt lat="45.6329135" lon="10.5064364"><ele>244.5</ele><time>2026-04-09T15:41:59.965Z</time></trkpt><trkpt lat="45.6327827" lon="10.5063685"><ele>243.0</ele><time>2026-04-09T15:42:00.965Z</time></trkpt><trkpt lat="45.6326544" lon="10.5063039"><ele>241.5</ele><time>2026-04-09T15:42:01.965Z</time></trkpt><trkpt lat="45.6325277" lon="10.5062498"><ele>240.0</ele><time>2026-04-09T15:42:02.965Z</time></trkpt><trkpt lat="45.6323847" lon="10.5061905"><ele>240.0</ele><time>2026-04-09T15:42:03.964Z</time></trkpt><trkpt lat="45.6322449" lon="10.5061292"><ele>240.0</ele><time>2026-04-09T15:42:04.965Z</time></trkpt><trkpt lat="45.6321037" lon="10.5060668"><ele>240.0</ele><time>2026-04-09T15:42:05.965Z</time></trkpt><trkpt lat="45.6319619" lon="10.5060011"><ele>240.0</ele><time>2026-04-09T15:42:06.965Z</time></trkpt><trkpt lat="45.6318191" lon="10.5059349"><ele>244.33333333333331</ele><time>2026-04-09T15:42:07.965Z</time></trkpt><trkpt lat="45.6316699" lon="10.5058761"><ele>248.66666666666666</ele><time>2026-04-09T15:42:08.964Z</time></trkpt><trkpt lat="45.6315219" lon="10.5058069"><ele>253.0</ele><time>2026-04-09T15:42:09.965Z</time></trkpt><trkpt lat="45.6313748" lon="10.5057426"><ele>253.0</ele><time>2026-04-09T15:42:10.965Z</time></trkpt><trkpt lat="45.6312441" lon="10.5056617"><ele>253.0</ele><time>2026-04-09T15:42:11.965Z</time></trkpt><trkpt lat="45.6311195" lon="10.5055734"><ele>253.0</ele><time>2026-04-09T15:42:12.965Z</time></trkpt><trkpt lat="45.6310014" lon="10.5054689"><ele>253.0</ele><time>2026-04-09T15:42:13.965Z</time></trkpt><trkpt lat="45.6308881" lon="10.5053541"><ele>240.0</ele><time>2026-04-09T15:42:14.965Z</time></trkpt><trkpt lat="45.6298328" lon="10.5031234"><ele>240.0</ele><time>2026-04-09T15:42:27.964Z</time></trkpt><trkpt lat="45.6297253" lon="10.5029707"><ele>240.0</ele><time>2026-04-09T15:42:28.965Z</time></trkpt><trkpt lat="45.6296342" lon="10.502803"><ele>240.0</ele><time>2026-04-09T15:42:29.965Z</time></trkpt><trkpt lat="45.6295634" lon="10.5026805"><ele>240.0</ele><time>2026-04-09T15:42:30.965Z</time></trkpt><trkpt lat="45.6294989" lon="10.502573"><ele>239.5</ele><time>2026-04-09T15:42:31.964Z</time></trkpt><trkpt lat="45.6294378" lon="10.5024919"><ele>239.0</ele><time>2026-04-09T15:42:32.964Z</time></trkpt><trkpt lat="45.6293775" lon="10.5024248"><ele>238.5</ele><time>2026-04-09T15:42:33.965Z</time></trkpt><trkpt lat="45.6293247" lon="10.5023516"><ele>238.0</ele><time>2026-04-09T15:42:34.964Z</time></trkpt><trkpt lat="45.6292545" lon="10.5022599"><ele>237.5</ele><time>2026-04-09T15:42:35.965Z</time></trkpt><trkpt lat="45.629171" lon="10.502155"><ele>237.0</ele><time>2026-04-09T15:42:36.964Z</time></trkpt><trkpt lat="45.6290794" lon="10.5020441"><ele>235.5</ele><time>2026-04-09T15:42:37.964Z</time></trkpt><trkpt lat="45.6289743" lon="10.5019255"><ele>234.0</ele><time>2026-04-09T15:42:38.964Z</time></trkpt><trkpt lat="45.6288634" lon="10.5018098"><ele>232.5</ele><time>2026-04-09T15:42:39.965Z</time></trkpt><trkpt lat="45.6287604" lon="10.5016941"><ele>231.0</ele><time>2026-04-09T15:42:40.965Z</time></trkpt><trkpt lat="45.62866" lon="10.5015709"><ele>231.25</ele><time>2026-04-09T15:42:41.965Z</time></trkpt><trkpt lat="45.6285554" lon="10.5014464"><ele>231.5</ele><time>2026-04-09T15:42:42.965Z</time></trkpt><trkpt lat="45.6284491" lon="10.5013204"><ele>231.75</ele><time>2026-04-09T15:42:43.965Z</time></trkpt><trkpt lat="45.6283449" lon="10.501194"><ele>232.0</ele><time>2026-04-09T15:42:44.964Z</time></trkpt><trkpt lat="45.6282402" lon="10.5010769"><ele>232.0</ele><time>2026-04-09T15:42:45.965Z</time></trkpt><trkpt lat="45.6281376" lon="10.5009609"><ele>232.0</ele><time>2026-04-09T15:42:46.965Z</time></trkpt><trkpt lat="45.6280384" lon="10.5008438"><ele>232.0</ele><time>2026-04-09T15:42:47.965Z</time></trkpt><trkpt lat="45.6279352" lon="10.500733"><ele>232.0</ele><time>2026-04-09T15:42:48.965Z</time></trkpt><trkpt lat="45.6278277" lon="10.5006187"><ele>232.75</ele><time>2026-04-09T15:42:49.965Z</time></trkpt><trkpt lat="45.6277135" lon="10.500509"><ele>233.5</ele><time>2026-04-09T15:42:50.965Z</time></trkpt><trkpt lat="45.6275962" lon="10.5004021"><ele>234.25</ele><time>2026-04-09T15:42:51.965Z</time></trkpt><trkpt lat="45.6274823" lon="10.5003005"><ele>235.0</ele><time>2026-04-09T15:42:52.964Z</time></trkpt><trkpt lat="45.6273757" lon="10.5002"><ele>235.0</ele><time>2026-04-09T15:42:53.964Z</time></trkpt><trkpt lat="45.627276" lon="10.5001093"><ele>235.0</ele><time>2026-04-09T15:42:54.964Z</time></trkpt><trkpt lat="45.6271709" lon="10.500026"><ele>235.0</ele><time>2026-04-09T15:42:55.964Z</time></trkpt><trkpt lat="45.6270671" lon="10.4999397"><ele>235.0</ele><time>2026-04-09T15:42:56.965Z</time></trkpt><trkpt lat="45.6269697" lon="10.4998594"><ele>235.4</ele><time>2026-04-09T15:42:57.965Z</time></trkpt><trkpt lat="45.6268793" lon="10.4997784"><ele>235.8</ele><time>2026-04-09T15:42:58.965Z</time></trkpt><trkpt lat="45.6267903" lon="10.4997084"><ele>236.2</ele><time>2026-04-09T15:42:59.965Z</time></trkpt><trkpt lat="45.6267031" lon="10.4996348"><ele>236.6</ele><time>2026-04-09T15:43:00.965Z</time></trkpt><trkpt lat="45.6266055" lon="10.4995604"><ele>237.0</ele><time>2026-04-09T15:43:01.964Z</time></trkpt><trkpt lat="45.6265094" lon="10.4994875"><ele>237.0</ele><time>2026-04-09T15:43:02.965Z</time></trkpt><trkpt lat="45.6264134" lon="10.4994113"><ele>237.0</ele><time>2026-04-09T15:43:03.964Z</time></trkpt><trkpt lat="45.6263238" lon="10.4993317"><ele>237.0</ele><time>2026-04-09T15:43:04.965Z</time></trkpt><trkpt lat="45.6262321" lon="10.4992595"><ele>237.0</ele><time>2026-04-09T15:43:05.965Z</time></trkpt><trkpt lat="45.6261433" lon="10.4991874"><ele>237.0</ele><time>2026-04-09T15:43:06.965Z</time></trkpt><trkpt lat="45.6260505" lon="10.4991247"><ele>236.6</ele><time>2026-04-09T15:43:07.964Z</time></trkpt><trkpt lat="45.6259623" lon="10.4990534"><ele>236.2</ele><time>2026-04-09T15:43:08.965Z</time></trkpt><trkpt lat="45.6258768" lon="10.4989869"><ele>235.8</ele><time>2026-04-09T15:43:09.965Z</time></trkpt><trkpt lat="45.6257918" lon="10.4989255"><ele>235.4</ele><time>2026-04-09T15:43:10.965Z</time></trkpt><trkpt lat="45.625713" lon="10.4988598"><ele>235.0</ele><time>2026-04-09T15:43:11.965Z</time></trkpt><trkpt lat="45.6256375" lon="10.498799"><ele>234.83333333333331</ele><time>2026-04-09T15:43:12.965Z</time></trkpt><trkpt lat="45.6255665" lon="10.4987384"><ele>234.66666666666666</ele><time>2026-04-09T15:43:13.965Z</time></trkpt><trkpt lat="45.6255038" lon="10.4986653"><ele>234.5</ele><time>2026-04-09T15:43:14.965Z</time></trkpt><trkpt lat="45.6254658" lon="10.498591"><ele>234.33333333333331</ele><time>2026-04-09T15:43:15.965Z</time></trkpt><trkpt lat="45.6254349" lon="10.4985004"><ele>234.16666666666666</ele><time>2026-04-09T15:43:17.965Z</time></trkpt><trkpt lat="45.6254502" lon="10.4983447"><ele>234.0</ele><time>2026-04-09T15:43:20.965Z</time></trkpt><trkpt lat="45.6254161" lon="10.4981512"><ele>234.0</ele><time>2026-04-09T15:43:22.965Z</time></trkpt><trkpt lat="45.6253637" lon="10.4980633"><ele>234.0</ele><time>2026-04-09T15:43:23.965Z</time></trkpt><trkpt lat="45.6252919" lon="10.4980028"><ele>234.0</ele><time>2026-04-09T15:43:24.965Z</time></trkpt><trkpt lat="45.6252272" lon="10.4979405"><ele>234.0</ele><time>2026-04-09T15:43:25.965Z</time></trkpt><trkpt lat="45.6251657" lon="10.497847"><ele>234.0</ele><time>2026-04-09T15:43:26.965Z</time></trkpt><trkpt lat="45.625138" lon="10.4977315"><ele>234.0</ele><time>2026-04-09T15:43:27.965Z</time></trkpt><trkpt lat="45.6251384" lon="10.4976036"><ele>233.83333333333334</ele><time>2026-04-09T15:43:28.964Z</time></trkpt><trkpt lat="45.6251404" lon="10.4974871"><ele>233.66666666666669</ele><time>2026-04-09T15:43:29.963Z</time></trkpt><trkpt lat="45.6251357" lon="10.4973615"><ele>233.5</ele><time>2026-04-09T15:43:30.964Z</time></trkpt><trkpt lat="45.6251275" lon="10.4972375"><ele>233.33333333333334</ele><time>2026-04-09T15:43:31.964Z</time></trkpt><trkpt lat="45.6251163" lon="10.4971146"><ele>233.16666666666669</ele><time>2026-04-09T15:43:32.963Z</time></trkpt><trkpt lat="45.6251081" lon="10.4969926"><ele>233.0</ele><time>2026-04-09T15:43:33.963Z</time></trkpt><trkpt lat="45.6251029" lon="10.4968684"><ele>233.00000000000003</ele><time>2026-04-09T15:43:34.964Z</time></trkpt><trkpt lat="45.6250915" lon="10.4967604"><ele>233.0</ele><time>2026-04-09T15:43:35.964Z</time></trkpt><trkpt lat="45.6250741" lon="10.4966649"><ele>233.0</ele><time>2026-04-09T15:43:36.964Z</time></trkpt><trkpt lat="45.6250562" lon="10.4965672"><ele>233.0</ele><time>2026-04-09T15:43:37.964Z</time></trkpt><trkpt lat="45.6250378" lon="10.4964683"><ele>233.00000000000003</ele><time>2026-04-09T15:43:38.964Z</time></trkpt><trkpt lat="45.6250005" lon="10.496361"><ele>233.0</ele><time>2026-04-09T15:43:39.964Z</time></trkpt><trkpt lat="45.6249596" lon="10.4962312"><ele>233.75</ele><time>2026-04-09T15:43:40.964Z</time></trkpt><trkpt lat="45.6248945" lon="10.4960947"><ele>234.5</ele><time>2026-04-09T15:43:41.964Z</time></trkpt><trkpt lat="45.6248239" lon="10.4959473"><ele>235.25</ele><time>2026-04-09T15:43:42.963Z</time></trkpt><trkpt lat="45.6247358" lon="10.4957844"><ele>236.0</ele><time>2026-04-09T15:43:43.963Z</time></trkpt><trkpt lat="45.6246391" lon="10.4956111"><ele>235.33333333333334</ele><time>2026-04-09T15:43:44.964Z</time></trkpt><trkpt lat="45.6245375" lon="10.4954175"><ele>234.66666666666669</ele><time>2026-04-09T15:43:45.964Z</time></trkpt><trkpt lat="45.6244447" lon="10.495228"><ele>234.0</ele><time>2026-04-09T15:43:46.963Z</time></trkpt><trkpt lat="45.6243489" lon="10.4950418"><ele>234.0</ele><time>2026-04-09T15:43:47.964Z</time></trkpt><trkpt lat="45.6242576" lon="10.4948401"><ele>234.0</ele><time>2026-04-09T15:43:48.964Z</time></trkpt><trkpt lat="45.6241669" lon="10.4946527"><ele>234.0</ele><time>2026-04-09T15:43:49.964Z</time></trkpt><trkpt lat="45.6240739" lon="10.4944685"><ele>233.0</ele><time>2026-04-09T15:43:50.964Z</time></trkpt><trkpt lat="45.6239852" lon="10.494299"><ele>232.0</ele><time>2026-04-09T15:43:51.963Z</time></trkpt><trkpt lat="45.6238897" lon="10.4941232"><ele>231.0</ele><time>2026-04-09T15:43:52.963Z</time></trkpt><trkpt lat="45.6238034" lon="10.4939354"><ele>230.33333333333331</ele><time>2026-04-09T15:43:53.964Z</time></trkpt><trkpt lat="45.6237176" lon="10.4937398"><ele>229.66666666666666</ele><time>2026-04-09T15:43:54.964Z</time></trkpt><trkpt lat="45.6236424" lon="10.493544"><ele>229.0</ele><time>2026-04-09T15:43:55.963Z</time></trkpt><trkpt lat="45.6235806" lon="10.4933458"><ele>231.0</ele><time>2026-04-09T15:43:56.964Z</time></trkpt><trkpt lat="45.6235123" lon="10.4931415"><ele>233.0</ele><time>2026-04-09T15:43:57.964Z</time></trkpt><trkpt lat="45.6234469" lon="10.4929292"><ele>235.0</ele><time>2026-04-09T15:43:58.964Z</time></trkpt><trkpt lat="45.6233702" lon="10.4926885"><ele>235.0</ele><time>2026-04-09T15:43:59.964Z</time></trkpt><trkpt lat="45.6232965" lon="10.4924343"><ele>235.0</ele><time>2026-04-09T15:44:00.963Z</time></trkpt><trkpt lat="45.6232318" lon="10.4921866"><ele>235.0</ele><time>2026-04-09T15:44:01.963Z</time></trkpt><trkpt lat="45.6231676" lon="10.491953"><ele>233.5</ele><time>2026-04-09T15:44:02.964Z</time></trkpt><trkpt lat="45.6231135" lon="10.4917518"><ele>232.0</ele><time>2026-04-09T15:44:03.964Z</time></trkpt><trkpt lat="45.6230721" lon="10.4915681"><ele>230.5</ele><time>2026-04-09T15:44:04.964Z</time></trkpt><trkpt lat="45.6230414" lon="10.4914032"><ele>229.0</ele><time>2026-04-09T15:44:05.964Z</time></trkpt><trkpt lat="45.6230118" lon="10.4912442"><ele>229.0</ele><time>2026-04-09T15:44:06.964Z</time></trkpt><trkpt lat="45.6229845" lon="10.4911057"><ele>228.99999999999997</ele><time>2026-04-09T15:44:07.964Z</time></trkpt><trkpt lat="45.6229531" lon="10.490969"><ele>228.99999999999997</ele><time>2026-04-09T15:44:08.964Z</time></trkpt><trkpt lat="45.6228995" lon="10.4908271"><ele>229.0</ele><time>2026-04-09T15:44:09.964Z</time></trkpt><trkpt lat="45.6228153" lon="10.4906789"><ele>229.0</ele><time>2026-04-09T15:44:10.964Z</time></trkpt><trkpt lat="45.6227047" lon="10.4905014"><ele>231.33333333333331</ele><time>2026-04-09T15:44:11.964Z</time></trkpt><trkpt lat="45.6225981" lon="10.4902972"><ele>233.66666666666669</ele><time>2026-04-09T15:44:12.963Z</time></trkpt><trkpt lat="45.6224933" lon="10.4900814"><ele>236.0</ele><time>2026-04-09T15:44:13.964Z</time></trkpt><trkpt lat="45.6223876" lon="10.4898748"><ele>236.0</ele><time>2026-04-09T15:44:14.964Z</time></trkpt><trkpt lat="45.6222767" lon="10.4896833"><ele>236.0</ele><time>2026-04-09T15:44:15.963Z</time></trkpt><trkpt lat="45.6221776" lon="10.489515"><ele>236.0</ele><time>2026-04-09T15:44:16.963Z</time></trkpt><trkpt lat="45.622096" lon="10.4893647"><ele>236.60000000000002</ele><time>2026-04-09T15:44:17.964Z</time></trkpt><trkpt lat="45.6220216" lon="10.4892258"><ele>237.20000000000002</ele><time>2026-04-09T15:44:18.964Z</time></trkpt><trkpt lat="45.6219526" lon="10.4890998"><ele>237.79999999999998</ele><time>2026-04-09T15:44:19.964Z</time></trkpt><trkpt lat="45.6218927" lon="10.4889844"><ele>238.39999999999998</ele><time>2026-04-09T15:44:20.964Z</time></trkpt><trkpt lat="45.6218303" lon="10.4888783"><ele>239.0</ele><time>2026-04-09T15:44:21.964Z</time></trkpt><trkpt lat="45.621774" lon="10.4887639"><ele>238.0</ele><time>2026-04-09T15:44:22.964Z</time></trkpt><trkpt lat="45.6217105" lon="10.4886428"><ele>236.99999999999997</ele><time>2026-04-09T15:44:23.964Z</time></trkpt><trkpt lat="45.6216441" lon="10.4885276"><ele>235.99999999999997</ele><time>2026-04-09T15:44:24.964Z</time></trkpt><trkpt lat="45.6215863" lon="10.4884225"><ele>235.0</ele><time>2026-04-09T15:44:25.963Z</time></trkpt><trkpt lat="45.6215385" lon="10.4883171"><ele>234.0</ele><time>2026-04-09T15:44:26.964Z</time></trkpt><trkpt lat="45.6214898" lon="10.4882176"><ele>234.0</ele><time>2026-04-09T15:44:27.964Z</time></trkpt><trkpt lat="45.6214494" lon="10.4881153"><ele>234.0</ele><time>2026-04-09T15:44:28.964Z</time></trkpt><trkpt lat="45.6214109" lon="10.488015"><ele>234.0</ele><time>2026-04-09T15:44:29.964Z</time></trkpt><trkpt lat="45.6213717" lon="10.4879052"><ele>234.0</ele><time>2026-04-09T15:44:30.964Z</time></trkpt><trkpt lat="45.6213268" lon="10.4877899"><ele>234.0</ele><time>2026-04-09T15:44:31.964Z</time></trkpt><trkpt lat="45.6212818" lon="10.4876678"><ele>234.0</ele><time>2026-04-09T15:44:32.964Z</time></trkpt><trkpt lat="45.6212282" lon="10.4875424"><ele>234.75</ele><time>2026-04-09T15:44:33.964Z</time></trkpt><trkpt lat="45.6211601" lon="10.4873965"><ele>235.5</ele><time>2026-04-09T15:44:34.964Z</time></trkpt><trkpt lat="45.6210846" lon="10.4872152"><ele>236.25</ele><time>2026-04-09T15:44:35.964Z</time></trkpt><trkpt lat="45.6210088" lon="10.4870044"><ele>237.0</ele><time>2026-04-09T15:44:36.963Z</time></trkpt><trkpt lat="45.6209174" lon="10.4867871"><ele>234.66666666666669</ele><time>2026-04-09T15:44:37.964Z</time></trkpt><trkpt lat="45.6208189" lon="10.4865687"><ele>232.33333333333334</ele><time>2026-04-09T15:44:38.964Z</time></trkpt><trkpt lat="45.6207099" lon="10.4863444"><ele>230.0</ele><time>2026-04-09T15:44:39.964Z</time></trkpt><trkpt lat="45.6205993" lon="10.4861125"><ele>230.0</ele><time>2026-04-09T15:44:40.964Z</time></trkpt><trkpt lat="45.6204823" lon="10.4858662"><ele>230.0</ele><time>2026-04-09T15:44:41.963Z</time></trkpt><trkpt lat="45.620368" lon="10.4856217"><ele>230.0</ele><time>2026-04-09T15:44:42.964Z</time></trkpt><trkpt lat="45.6202527" lon="10.4853821"><ele>231.66666666666669</ele><time>2026-04-09T15:44:43.963Z</time></trkpt><trkpt lat="45.6201385" lon="10.4851466"><ele>233.33333333333331</ele><time>2026-04-09T15:44:44.964Z</time></trkpt><trkpt lat="45.6200335" lon="10.4849223"><ele>235.0</ele><time>2026-04-09T15:44:45.964Z</time></trkpt><trkpt lat="45.619937" lon="10.4846944"><ele>232.33333333333331</ele><time>2026-04-09T15:44:46.964Z</time></trkpt><trkpt lat="45.6198566" lon="10.4844784"><ele>229.66666666666669</ele><time>2026-04-09T15:44:47.964Z</time></trkpt><trkpt lat="45.6197765" lon="10.4842665"><ele>227.0</ele><time>2026-04-09T15:44:48.963Z</time></trkpt><trkpt lat="45.6196924" lon="10.4840747"><ele>227.0</ele><time>2026-04-09T15:44:49.963Z</time></trkpt><trkpt lat="45.6195952" lon="10.4839013"><ele>227.0</ele><time>2026-04-09T15:44:50.964Z</time></trkpt><trkpt lat="45.6194855" lon="10.4837662"><ele>227.0</ele><time>2026-04-09T15:44:51.964Z</time></trkpt><trkpt lat="45.6193522" lon="10.4836792"><ele>227.0</ele><time>2026-04-09T15:44:52.964Z</time></trkpt><trkpt lat="45.6191922" lon="10.4836236"><ele>227.0</ele><time>2026-04-09T15:44:53.964Z</time></trkpt><trkpt lat="45.6190219" lon="10.4835915"><ele>227.0</ele><time>2026-04-09T15:44:54.964Z</time></trkpt><trkpt lat="45.6188318" lon="10.4835619"><ele>227.0</ele><time>2026-04-09T15:44:55.964Z</time></trkpt><trkpt lat="45.6186142" lon="10.4835183"><ele>227.0</ele><time>2026-04-09T15:44:56.964Z</time></trkpt><trkpt lat="45.6183957" lon="10.4834796"><ele>227.0</ele><time>2026-04-09T15:44:57.964Z</time></trkpt><trkpt lat="45.6181779" lon="10.4834323"><ele>227.0</ele><time>2026-04-09T15:44:58.963Z</time></trkpt><trkpt lat="45.6179496" lon="10.4833948"><ele>227.0</ele><time>2026-04-09T15:44:59.964Z</time></trkpt><trkpt lat="45.6177184" lon="10.4833578"><ele>227.0</ele><time>2026-04-09T15:45:00.964Z</time></trkpt><trkpt lat="45.6174754" lon="10.4833242"><ele>227.0</ele><time>2026-04-09T15:45:01.964Z</time></trkpt><trkpt lat="45.6172399" lon="10.4832881"><ele>227.0</ele><time>2026-04-09T15:45:02.964Z</time></trkpt><trkpt lat="45.6169976" lon="10.4832533"><ele>227.0</ele><time>2026-04-09T15:45:03.964Z</time></trkpt><trkpt lat="45.6167573" lon="10.4832202"><ele>227.0</ele><time>2026-04-09T15:45:04.964Z</time></trkpt><trkpt lat="45.6165115" lon="10.4831869"><ele>227.0</ele><time>2026-04-09T15:45:05.964Z</time></trkpt><trkpt lat="45.6162673" lon="10.4831425"><ele>227.0</ele><time>2026-04-09T15:45:06.964Z</time></trkpt><trkpt lat="45.6160276" lon="10.483102"><ele>229.0</ele><time>2026-04-09T15:45:07.964Z</time></trkpt><trkpt lat="45.6157977" lon="10.4830647"><ele>231.0</ele><time>2026-04-09T15:45:08.964Z</time></trkpt><trkpt lat="45.6155697" lon="10.4830197"><ele>231.0</ele><time>2026-04-09T15:45:09.963Z</time></trkpt><trkpt lat="45.615347" lon="10.4829549"><ele>231.0</ele><time>2026-04-09T15:45:10.964Z</time></trkpt><trkpt lat="45.6151196" lon="10.4828622"><ele>229.33333333333331</ele><time>2026-04-09T15:45:11.964Z</time></trkpt><trkpt lat="45.6149061" lon="10.4827439"><ele>227.66666666666666</ele><time>2026-04-09T15:45:12.964Z</time></trkpt><trkpt lat="45.6147002" lon="10.4826365"><ele>226.0</ele><time>2026-04-09T15:45:13.964Z</time></trkpt><trkpt lat="45.6144954" lon="10.4825549"><ele>228.0</ele><time>2026-04-09T15:45:14.964Z</time></trkpt><trkpt lat="45.614294" lon="10.4824826"><ele>230.0</ele><time>2026-04-09T15:45:15.964Z</time></trkpt><trkpt lat="45.6141059" lon="10.4823598"><ele>232.0</ele><time>2026-04-09T15:45:16.964Z</time></trkpt><trkpt lat="45.6139267" lon="10.4822189"><ele>229.66666666666666</ele><time>2026-04-09T15:45:17.963Z</time></trkpt><trkpt lat="45.613767" lon="10.4820659"><ele>227.33333333333331</ele><time>2026-04-09T15:45:18.963Z</time></trkpt><trkpt lat="45.6135889" lon="10.4819186"><ele>225.0</ele><time>2026-04-09T15:45:19.964Z</time></trkpt><trkpt lat="45.6134" lon="10.481805"><ele>224.66666666666669</ele><time>2026-04-09T15:45:20.964Z</time></trkpt><trkpt lat="45.6132002" lon="10.4817288"><ele>224.33333333333334</ele><time>2026-04-09T15:45:21.964Z</time></trkpt><trkpt lat="45.613015" lon="10.4816617"><ele>224.0</ele><time>2026-04-09T15:45:22.964Z</time></trkpt><trkpt lat="45.6128487" lon="10.4815872"><ele>224.5</ele><time>2026-04-09T15:45:23.964Z</time></trkpt><trkpt lat="45.6126999" lon="10.4815076"><ele>225.0</ele><time>2026-04-09T15:45:24.964Z</time></trkpt><trkpt lat="45.6125517" lon="10.4814228"><ele>225.5</ele><time>2026-04-09T15:45:25.964Z</time></trkpt><trkpt lat="45.6124322" lon="10.4813488"><ele>226.0</ele><time>2026-04-09T15:45:26.964Z</time></trkpt><trkpt lat="45.6123245" lon="10.4812594"><ele>225.49999999999997</ele><time>2026-04-09T15:45:27.963Z</time></trkpt><trkpt lat="45.6122432" lon="10.4811852"><ele>225.0</ele><time>2026-04-09T15:45:28.964Z</time></trkpt><trkpt lat="45.612184" lon="10.4811341"><ele>224.5</ele><time>2026-04-09T15:45:29.964Z</time></trkpt><trkpt lat="45.6121131" lon="10.4810711"><ele>224.0</ele><time>2026-04-09T15:45:32.964Z</time></trkpt><trkpt lat="45.6120315" lon="10.4809908"><ele>223.49999999999997</ele><time>2026-04-09T15:45:34.964Z</time></trkpt><trkpt lat="45.6119723" lon="10.4808832"><ele>223.0</ele><time>2026-04-09T15:45:36.964Z</time></trkpt><trkpt lat="45.6119342" lon="10.4807737"><ele>223.0</ele><time>2026-04-09T15:45:38.963Z</time></trkpt><trkpt lat="45.6118709" lon="10.4806476"><ele>223.0</ele><time>2026-04-09T15:45:40.964Z</time></trkpt><trkpt lat="45.6117568" lon="10.4806206"><ele>223.0</ele><time>2026-04-09T15:45:42.964Z</time></trkpt><trkpt lat="45.6116923" lon="10.4807611"><ele>223.0</ele><time>2026-04-09T15:45:44.963Z</time></trkpt><trkpt lat="45.6116737" lon="10.4808848"><ele>223.0</ele><time>2026-04-09T15:45:45.963Z</time></trkpt><trkpt lat="45.611675" lon="10.4809889"><ele>223.0</ele><time>2026-04-09T15:45:46.964Z</time></trkpt><trkpt lat="45.6116623" lon="10.4810958"><ele>223.0</ele><time>2026-04-09T15:45:47.964Z</time></trkpt><trkpt lat="45.6116397" lon="10.4812485"><ele>223.0</ele><time>2026-04-09T15:45:49.964Z</time></trkpt><trkpt lat="45.6115997" lon="10.4813792"><ele>223.0</ele><time>2026-04-09T15:45:51.964Z</time></trkpt><trkpt lat="45.6115138" lon="10.4815043"><ele>223.0</ele><time>2026-04-09T15:45:53.964Z</time></trkpt><trkpt lat="45.6114371" lon="10.4815599"><ele>223.2</ele><time>2026-04-09T15:45:54.964Z</time></trkpt><trkpt lat="45.6113615" lon="10.4816189"><ele>223.4</ele><time>2026-04-09T15:45:55.963Z</time></trkpt><trkpt lat="45.6112944" lon="10.4816951"><ele>223.59999999999997</ele><time>2026-04-09T15:45:56.964Z</time></trkpt><trkpt lat="45.6112253" lon="10.4817887"><ele>223.79999999999998</ele><time>2026-04-09T15:45:57.963Z</time></trkpt><trkpt lat="45.6111541" lon="10.4818877"><ele>224.0</ele><time>2026-04-09T15:45:58.964Z</time></trkpt><trkpt lat="45.6110827" lon="10.4819824"><ele>224.0</ele><time>2026-04-09T15:45:59.964Z</time></trkpt><trkpt lat="45.6109843" lon="10.482077"><ele>224.0</ele><time>2026-04-09T15:46:00.964Z</time></trkpt><trkpt lat="45.6108817" lon="10.4821784"><ele>224.0</ele><time>2026-04-09T15:46:01.964Z</time></trkpt><trkpt lat="45.6107597" lon="10.482253"><ele>224.0</ele><time>2026-04-09T15:46:02.963Z</time></trkpt><trkpt lat="45.6106186" lon="10.4823221"><ele>223.0</ele><time>2026-04-09T15:46:03.963Z</time></trkpt><trkpt lat="45.6104582" lon="10.4823676"><ele>222.0</ele><time>2026-04-09T15:46:04.964Z</time></trkpt><trkpt lat="45.610297" lon="10.4823862"><ele>221.0</ele><time>2026-04-09T15:46:05.964Z</time></trkpt><trkpt lat="45.6101378" lon="10.4824093"><ele>219.66666666666669</ele><time>2026-04-09T15:46:06.964Z</time></trkpt><trkpt lat="45.6099865" lon="10.4824248"><ele>218.33333333333331</ele><time>2026-04-09T15:46:07.964Z</time></trkpt><trkpt lat="45.6098394" lon="10.4824043"><ele>217.0</ele><time>2026-04-09T15:46:08.964Z</time></trkpt><trkpt lat="45.6096833" lon="10.4823383"><ele>217.0</ele><time>2026-04-09T15:46:09.964Z</time></trkpt><trkpt lat="45.609526" lon="10.4822186"><ele>217.0</ele><time>2026-04-09T15:46:10.964Z</time></trkpt><trkpt lat="45.6093806" lon="10.4820841"><ele>217.0</ele><time>2026-04-09T15:46:11.964Z</time></trkpt><trkpt lat="45.609236" lon="10.4819637"><ele>219.66666666666666</ele><time>2026-04-09T15:46:12.963Z</time></trkpt><trkpt lat="45.6090852" lon="10.4818951"><ele>222.33333333333331</ele><time>2026-04-09T15:46:13.964Z</time></trkpt><trkpt lat="45.6089214" lon="10.4818607"><ele>225.0</ele><time>2026-04-09T15:46:14.963Z</time></trkpt><trkpt lat="45.6087609" lon="10.481865"><ele>224.33333333333331</ele><time>2026-04-09T15:46:15.964Z</time></trkpt><trkpt lat="45.6085961" lon="10.4819277"><ele>223.66666666666666</ele><time>2026-04-09T15:46:16.964Z</time></trkpt><trkpt lat="45.6084287" lon="10.4820444"><ele>223.0</ele><time>2026-04-09T15:46:17.963Z</time></trkpt><trkpt lat="45.6082424" lon="10.4822069"><ele>226.5</ele><time>2026-04-09T15:46:18.964Z</time></trkpt><trkpt lat="45.6080249" lon="10.4823835"><ele>230.0</ele><time>2026-04-09T15:46:19.964Z</time></trkpt><trkpt lat="45.6077959" lon="10.482583"><ele>230.0</ele><time>2026-04-09T15:46:20.964Z</time></trkpt><trkpt lat="45.6075756" lon="10.482767"><ele>230.0</ele><time>2026-04-09T15:46:21.964Z</time></trkpt><trkpt lat="45.6073633" lon="10.4829457"><ele>223.5</ele><time>2026-04-09T15:46:22.963Z</time></trkpt><trkpt lat="45.6071523" lon="10.4831301"><ele>217.0</ele><time>2026-04-09T15:46:23.964Z</time></trkpt><trkpt lat="45.6069456" lon="10.4833172"><ele>217.0</ele><time>2026-04-09T15:46:24.963Z</time></trkpt><trkpt lat="45.6067415" lon="10.4835052"><ele>217.0</ele><time>2026-04-09T15:46:25.963Z</time></trkpt><trkpt lat="45.6065579" lon="10.4837094"><ele>213.33333333333331</ele><time>2026-04-09T15:46:26.964Z</time></trkpt><trkpt lat="45.6063985" lon="10.4839319"><ele>209.66666666666669</ele><time>2026-04-09T15:46:27.963Z</time></trkpt><trkpt lat="45.6062659" lon="10.484166"><ele>206.0</ele><time>2026-04-09T15:46:28.964Z</time></trkpt><trkpt lat="45.6061636" lon="10.4843959"><ele>211.0</ele><time>2026-04-09T15:46:29.963Z</time></trkpt><trkpt lat="45.6060825" lon="10.4846354"><ele>216.0</ele><time>2026-04-09T15:46:30.964Z</time></trkpt><trkpt lat="45.6060258" lon="10.4848881"><ele>221.0</ele><time>2026-04-09T15:46:31.964Z</time></trkpt><trkpt lat="45.6059797" lon="10.4851741"><ele>219.33333333333334</ele><time>2026-04-09T15:46:32.963Z</time></trkpt><trkpt lat="45.6059393" lon="10.4854802"><ele>217.66666666666669</ele><time>2026-04-09T15:46:33.964Z</time></trkpt><trkpt lat="45.6058943" lon="10.4858014"><ele>216.0</ele><time>2026-04-09T15:46:34.964Z</time></trkpt><trkpt lat="45.6058453" lon="10.4861183"><ele>213.33333333333331</ele><time>2026-04-09T15:46:35.964Z</time></trkpt><trkpt lat="45.6057982" lon="10.4864084"><ele>210.66666666666666</ele><time>2026-04-09T15:46:36.963Z</time></trkpt><trkpt lat="45.6057521" lon="10.4866893"><ele>208.0</ele><time>2026-04-09T15:46:37.964Z</time></trkpt><trkpt lat="45.6057109" lon="10.4869804"><ele>204.5</ele><time>2026-04-09T15:46:38.964Z</time></trkpt><trkpt lat="45.6056693" lon="10.4872855"><ele>201.0</ele><time>2026-04-09T15:46:39.964Z</time></trkpt><trkpt lat="45.605634" lon="10.4876192"><ele>201.5</ele><time>2026-04-09T15:46:40.964Z</time></trkpt><trkpt lat="45.6055921" lon="10.4879737"><ele>202.0</ele><time>2026-04-09T15:46:41.964Z</time></trkpt><trkpt lat="45.6055795" lon="10.4882948"><ele>202.0</ele><time>2026-04-09T15:46:42.964Z</time></trkpt><trkpt lat="45.6055825" lon="10.4886238"><ele>202.0</ele><time>2026-04-09T15:46:43.963Z</time></trkpt><trkpt lat="45.6056228" lon="10.4889519"><ele>203.0</ele><time>2026-04-09T15:46:44.964Z</time></trkpt><trkpt lat="45.6056731" lon="10.4892818"><ele>204.0</ele><time>2026-04-09T15:46:45.964Z</time></trkpt><trkpt lat="45.6057324" lon="10.4895985"><ele>205.5</ele><time>2026-04-09T15:46:46.964Z</time></trkpt><trkpt lat="45.6057987" lon="10.4899193"><ele>207.0</ele><time>2026-04-09T15:46:47.964Z</time></trkpt><trkpt lat="45.6058685" lon="10.4902454"><ele>210.0</ele><time>2026-04-09T15:46:48.963Z</time></trkpt><trkpt lat="45.6059407" lon="10.4905689"><ele>213.0</ele><time>2026-04-09T15:46:49.964Z</time></trkpt><trkpt lat="45.6060028" lon="10.4909043"><ele>213.0</ele><time>2026-04-09T15:46:50.964Z</time></trkpt><trkpt lat="45.6060634" lon="10.4912461"><ele>213.0</ele><time>2026-04-09T15:46:51.964Z</time></trkpt><trkpt lat="45.6061297" lon="10.4915788"><ele>206.0</ele><time>2026-04-09T15:46:52.964Z</time></trkpt><trkpt lat="45.6061903" lon="10.4919014"><ele>199.0</ele><time>2026-04-09T15:46:53.963Z</time></trkpt><trkpt lat="45.6062558" lon="10.4921953"><ele>192.0</ele><time>2026-04-09T15:46:54.964Z</time></trkpt><trkpt lat="45.6063221" lon="10.4924856"><ele>192.0</ele><time>2026-04-09T15:46:55.963Z</time></trkpt><trkpt lat="45.6063996" lon="10.4927983"><ele>192.0</ele><time>2026-04-09T15:46:56.964Z</time></trkpt><trkpt lat="45.6064759" lon="10.4931157"><ele>194.0</ele><time>2026-04-09T15:46:57.964Z</time></trkpt><trkpt lat="45.606541" lon="10.4934757"><ele>196.0</ele><time>2026-04-09T15:46:58.963Z</time></trkpt><trkpt lat="45.6066002" lon="10.493834"><ele>198.0</ele><time>2026-04-09T15:46:59.963Z</time></trkpt><trkpt lat="45.6066443" lon="10.4941856"><ele>200.0</ele><time>2026-04-09T15:47:00.963Z</time></trkpt><trkpt lat="45.6066711" lon="10.4945123"><ele>199.66666666666669</ele><time>2026-04-09T15:47:01.963Z</time></trkpt><trkpt lat="45.6066835" lon="10.4948344"><ele>199.33333333333331</ele><time>2026-04-09T15:47:02.963Z</time></trkpt><trkpt lat="45.6066861" lon="10.4951214"><ele>199.0</ele><time>2026-04-09T15:47:03.963Z</time></trkpt><trkpt lat="45.60667" lon="10.4953954"><ele>198.66666666666666</ele><time>2026-04-09T15:47:04.963Z</time></trkpt><trkpt lat="45.606644" lon="10.495668"><ele>198.33333333333331</ele><time>2026-04-09T15:47:05.963Z</time></trkpt><trkpt lat="45.6066065" lon="10.4959176"><ele>198.0</ele><time>2026-04-09T15:47:06.962Z</time></trkpt><trkpt lat="45.6065568" lon="10.4961398"><ele>195.33333333333334</ele><time>2026-04-09T15:47:07.963Z</time></trkpt><trkpt lat="45.6064915" lon="10.4963512"><ele>192.66666666666669</ele><time>2026-04-09T15:47:08.962Z</time></trkpt><trkpt lat="45.6064239" lon="10.4965505"><ele>190.0</ele><time>2026-04-09T15:47:09.963Z</time></trkpt><trkpt lat="45.6063536" lon="10.4967351"><ele>190.0</ele><time>2026-04-09T15:47:10.963Z</time></trkpt><trkpt lat="45.6062754" lon="10.4968833"><ele>190.0</ele><time>2026-04-09T15:47:11.963Z</time></trkpt><trkpt lat="45.6061809" lon="10.4970003"><ele>190.0</ele><time>2026-04-09T15:47:12.963Z</time></trkpt><trkpt lat="45.6060817" lon="10.4970986"><ele>190.0</ele><time>2026-04-09T15:47:13.963Z</time></trkpt><trkpt lat="45.6059872" lon="10.4971862"><ele>191.2</ele><time>2026-04-09T15:47:14.963Z</time></trkpt><trkpt lat="45.6059144" lon="10.4972804"><ele>192.4</ele><time>2026-04-09T15:47:15.963Z</time></trkpt><trkpt lat="45.6058656" lon="10.4973871"><ele>193.60000000000002</ele><time>2026-04-09T15:47:16.963Z</time></trkpt><trkpt lat="45.6058657" lon="10.4975105"><ele>194.8</ele><time>2026-04-09T15:47:17.963Z</time></trkpt><trkpt lat="45.605903" lon="10.4976449"><ele>196.0</ele><time>2026-04-09T15:47:18.963Z</time></trkpt><trkpt lat="45.60596" lon="10.4977668"><ele>196.0</ele><time>2026-04-09T15:47:19.962Z</time></trkpt><trkpt lat="45.6060344" lon="10.4979041"><ele>196.0</ele><time>2026-04-09T15:47:20.963Z</time></trkpt><trkpt lat="45.6060977" lon="10.498073"><ele>196.0</ele><time>2026-04-09T15:47:21.963Z</time></trkpt><trkpt lat="45.6061582" lon="10.4982408"><ele>196.0</ele><time>2026-04-09T15:47:22.963Z</time></trkpt><trkpt lat="45.6062048" lon="10.4984066"><ele>190.0</ele><time>2026-04-09T15:47:23.963Z</time></trkpt><trkpt lat="45.6062619" lon="10.498557"><ele>184.0</ele><time>2026-04-09T15:47:24.962Z</time></trkpt><trkpt lat="45.6063164" lon="10.4987156"><ele>178.0</ele><time>2026-04-09T15:47:25.963Z</time></trkpt><trkpt lat="45.6063686" lon="10.4988686"><ele>172.0</ele><time>2026-04-09T15:47:26.963Z</time></trkpt><trkpt lat="45.6064045" lon="10.4990059"><ele>170.25</ele><time>2026-04-09T15:47:27.963Z</time></trkpt><trkpt lat="45.6064442" lon="10.4991112"><ele>168.5</ele><time>2026-04-09T15:47:28.963Z</time></trkpt><trkpt lat="45.6064718" lon="10.4992502"><ele>166.75</ele><time>2026-04-09T15:47:30.963Z</time></trkpt><trkpt lat="45.6063488" lon="10.4994159"><ele>165.0</ele><time>2026-04-09T15:47:32.963Z</time></trkpt><trkpt lat="45.6062578" lon="10.4995111"><ele>165.0</ele><time>2026-04-09T15:47:33.962Z</time></trkpt><trkpt lat="45.6061819" lon="10.4995831"><ele>165.0</ele><time>2026-04-09T15:47:34.962Z</time></trkpt><trkpt lat="45.6061265" lon="10.4996607"><ele>165.0</ele><time>2026-04-09T15:47:35.963Z</time></trkpt><trkpt lat="45.6060736" lon="10.4997673"><ele>165.0</ele><time>2026-04-09T15:47:36.963Z</time></trkpt><trkpt lat="45.6060233" lon="10.4999031"><ele>165.0</ele><time>2026-04-09T15:47:37.963Z</time></trkpt><trkpt lat="45.6059785" lon="10.5000389"><ele>164.83333333333334</ele><time>2026-04-09T15:47:38.962Z</time></trkpt><trkpt lat="45.6059376" lon="10.5001634"><ele>164.66666666666666</ele><time>2026-04-09T15:47:39.962Z</time></trkpt><trkpt lat="45.6058964" lon="10.5002786"><ele>164.5</ele><time>2026-04-09T15:47:40.962Z</time></trkpt><trkpt lat="45.605857" lon="10.5003638"><ele>164.33333333333331</ele><time>2026-04-09T15:47:41.963Z</time></trkpt><trkpt lat="45.6058026" lon="10.5004446"><ele>164.16666666666666</ele><time>2026-04-09T15:47:43.963Z</time></trkpt><trkpt lat="45.605763" lon="10.5005413"><ele>164.0</ele><time>2026-04-09T15:47:47.963Z</time></trkpt><trkpt lat="45.6057358" lon="10.500676"><ele>160.33333333333331</ele><time>2026-04-09T15:47:49.963Z</time></trkpt><trkpt lat="45.6057062" lon="10.5007617"><ele>156.66666666666666</ele><time>2026-04-09T15:47:50.963Z</time></trkpt><trkpt lat="45.6056649" lon="10.5008533"><ele>153.0</ele><time>2026-04-09T15:47:51.963Z</time></trkpt><trkpt lat="45.6056231" lon="10.5009641"><ele>149.33333333333334</ele><time>2026-04-09T15:47:52.963Z</time></trkpt><trkpt lat="45.6055816" lon="10.5010925"><ele>145.66666666666669</ele><time>2026-04-09T15:47:53.963Z</time></trkpt><trkpt lat="45.6055489" lon="10.5012293"><ele>142.0</ele><time>2026-04-09T15:47:54.963Z</time></trkpt><trkpt lat="45.6055168" lon="10.5013722"><ele>139.2</ele><time>2026-04-09T15:47:55.963Z</time></trkpt><trkpt lat="45.6054741" lon="10.5015097"><ele>136.39999999999998</ele><time>2026-04-09T15:47:56.962Z</time></trkpt><trkpt lat="45.6054281" lon="10.5016596"><ele>133.60000000000002</ele><time>2026-04-09T15:47:57.962Z</time></trkpt><trkpt lat="45.6054113" lon="10.501818"><ele>130.8</ele><time>2026-04-09T15:47:58.963Z</time></trkpt><trkpt lat="45.6054208" lon="10.501982"><ele>128.0</ele><time>2026-04-09T15:47:59.963Z</time></trkpt><trkpt lat="45.6054542" lon="10.5021305"><ele>126.83333333333333</ele><time>2026-04-09T15:48:00.963Z</time></trkpt><trkpt lat="45.6054897" lon="10.5022487"><ele>125.66666666666666</ele><time>2026-04-09T15:48:01.963Z</time></trkpt><trkpt lat="45.6055345" lon="10.5023596"><ele>124.5</ele><time>2026-04-09T15:48:02.963Z</time></trkpt><trkpt lat="45.605591" lon="10.5024267"><ele>123.33333333333334</ele><time>2026-04-09T15:48:03.963Z</time></trkpt><trkpt lat="45.6056645" lon="10.5024749"><ele>122.16666666666667</ele><time>2026-04-09T15:48:04.963Z</time></trkpt><trkpt lat="45.6057519" lon="10.502505"><ele>121.0</ele><time>2026-04-09T15:48:05.963Z</time></trkpt><trkpt lat="45.6058526" lon="10.5025293"><ele>121.0</ele><time>2026-04-09T15:48:06.963Z</time></trkpt><trkpt lat="45.6059489" lon="10.50255"><ele>121.0</ele><time>2026-04-09T15:48:07.963Z</time></trkpt><trkpt lat="45.6060348" lon="10.5025463"><ele>121.0</ele><time>2026-04-09T15:48:08.963Z</time></trkpt><trkpt lat="45.6061319" lon="10.5025396"><ele>121.0</ele><time>2026-04-09T15:48:09.963Z</time></trkpt><trkpt lat="45.6062441" lon="10.502544"><ele>121.0</ele><time>2026-04-09T15:48:10.963Z</time></trkpt><trkpt lat="45.606346" lon="10.5025696"><ele>120.8</ele><time>2026-04-09T15:48:11.963Z</time></trkpt><trkpt lat="45.6064315" lon="10.5026375"><ele>120.6</ele><time>2026-04-09T15:48:12.962Z</time></trkpt><trkpt lat="45.6065018" lon="10.5027341"><ele>120.4</ele><time>2026-04-09T15:48:13.963Z</time></trkpt><trkpt lat="45.6065611" lon="10.5028602"><ele>120.2</ele><time>2026-04-09T15:48:14.963Z</time></trkpt><trkpt lat="45.6066086" lon="10.502995"><ele>120.0</ele><time>2026-04-09T15:48:15.962Z</time></trkpt><trkpt lat="45.6066698" lon="10.5031531"><ele>118.0</ele><time>2026-04-09T15:48:16.963Z</time></trkpt><trkpt lat="45.6067324" lon="10.5033025"><ele>116.0</ele><time>2026-04-09T15:48:17.962Z</time></trkpt><trkpt lat="45.6067939" lon="10.5034472"><ele>114.0</ele><time>2026-04-09T15:48:18.962Z</time></trkpt><trkpt lat="45.6068628" lon="10.5035819"><ele>112.0</ele><time>2026-04-09T15:48:19.963Z</time></trkpt><trkpt lat="45.6069315" lon="10.5037095"><ele>110.83333333333334</ele><time>2026-04-09T15:48:20.963Z</time></trkpt><trkpt lat="45.6069951" lon="10.5038383"><ele>109.66666666666667</ele><time>2026-04-09T15:48:21.963Z</time></trkpt><trkpt lat="45.6070416" lon="10.5039483"><ele>108.5</ele><time>2026-04-09T15:48:22.962Z</time></trkpt><trkpt lat="45.60708" lon="10.504051"><ele>107.33333333333334</ele><time>2026-04-09T15:48:23.963Z</time></trkpt><trkpt lat="45.6071106" lon="10.5041377"><ele>106.16666666666667</ele><time>2026-04-09T15:48:24.963Z</time></trkpt><trkpt lat="45.6071225" lon="10.504262"><ele>105.0</ele><time>2026-04-09T15:48:26.962Z</time></trkpt><trkpt lat="45.6070757" lon="10.5043439"><ele>105.2</ele><time>2026-04-09T15:48:28.962Z</time></trkpt><trkpt lat="45.6069395" lon="10.5044067"><ele>105.4</ele><time>2026-04-09T15:48:30.963Z</time></trkpt><trkpt lat="45.6068659" lon="10.5044099"><ele>105.6</ele><time>2026-04-09T15:48:31.963Z</time></trkpt><trkpt lat="45.6067877" lon="10.504389"><ele>105.8</ele><time>2026-04-09T15:48:32.963Z</time></trkpt><trkpt lat="45.6067155" lon="10.5043373"><ele>106.0</ele><time>2026-04-09T15:48:33.963Z</time></trkpt><trkpt lat="45.6066556" lon="10.5042673"><ele>106.0</ele><time>2026-04-09T15:48:34.962Z</time></trkpt><trkpt lat="45.6065969" lon="10.5042177"><ele>106.0</ele><time>2026-04-09T15:48:35.963Z</time></trkpt><trkpt lat="45.6065034" lon="10.504315"><ele>106.0</ele><time>2026-04-09T15:48:37.963Z</time></trkpt><trkpt lat="45.6064663" lon="10.504405"><ele>106.0</ele><time>2026-04-09T15:48:38.963Z</time></trkpt><trkpt lat="45.6064286" lon="10.5045211"><ele>106.0</ele><time>2026-04-09T15:48:39.963Z</time></trkpt><trkpt lat="45.6063575" lon="10.5046443"><ele>105.6</ele><time>2026-04-09T15:48:40.963Z</time></trkpt><trkpt lat="45.6062858" lon="10.5047519"><ele>105.19999999999999</ele><time>2026-04-09T15:48:41.963Z</time></trkpt><trkpt lat="45.6062072" lon="10.5048239"><ele>104.80000000000001</ele><time>2026-04-09T15:48:42.963Z</time></trkpt><trkpt lat="45.6061245" lon="10.5048904"><ele>104.4</ele><time>2026-04-09T15:48:43.962Z</time></trkpt><trkpt lat="45.6060286" lon="10.5049586"><ele>104.0</ele><time>2026-04-09T15:48:44.963Z</time></trkpt><trkpt lat="45.6059283" lon="10.5050231"><ele>104.0</ele><time>2026-04-09T15:48:45.962Z</time></trkpt><trkpt lat="45.6058306" lon="10.5050849"><ele>104.0</ele><time>2026-04-09T15:48:46.963Z</time></trkpt><trkpt lat="45.60574" lon="10.5051505"><ele>104.0</ele><time>2026-04-09T15:48:47.963Z</time></trkpt><trkpt lat="45.605661" lon="10.5051987"><ele>104.0</ele><time>2026-04-09T15:48:48.963Z</time></trkpt><trkpt lat="45.6055792" lon="10.5052498"><ele>104.0</ele><time>2026-04-09T15:48:49.963Z</time></trkpt><trkpt lat="45.6055006" lon="10.5052935"><ele>104.0</ele><time>2026-04-09T15:48:50.962Z</time></trkpt><trkpt lat="45.6054107" lon="10.505342"><ele>104.0</ele><time>2026-04-09T15:48:51.963Z</time></trkpt><trkpt lat="45.6053132" lon="10.5054023"><ele>104.0</ele><time>2026-04-09T15:48:52.963Z</time></trkpt><trkpt lat="45.605214" lon="10.5054559"><ele>104.0</ele><time>2026-04-09T15:48:53.963Z</time></trkpt><trkpt lat="45.6051116" lon="10.5055152"><ele>104.0</ele><time>2026-04-09T15:48:54.962Z</time></trkpt><trkpt lat="45.6050101" lon="10.5055726"><ele>105.25</ele><time>2026-04-09T15:48:55.963Z</time></trkpt><trkpt lat="45.604915" lon="10.5056289"><ele>106.5</ele><time>2026-04-09T15:48:56.962Z</time></trkpt><trkpt lat="45.6048184" lon="10.5056961"><ele>107.75</ele><time>2026-04-09T15:48:57.963Z</time></trkpt><trkpt lat="45.6047135" lon="10.5057722"><ele>109.0</ele><time>2026-04-09T15:48:58.963Z</time></trkpt><trkpt lat="45.6045982" lon="10.5058417"><ele>110.5</ele><time>2026-04-09T15:48:59.962Z</time></trkpt><trkpt lat="45.6044826" lon="10.5059109"><ele>112.0</ele><time>2026-04-09T15:49:00.963Z</time></trkpt><trkpt lat="45.6043564" lon="10.5059843"><ele>113.5</ele><time>2026-04-09T15:49:01.963Z</time></trkpt><trkpt lat="45.6042214" lon="10.5060653"><ele>115.0</ele><time>2026-04-09T15:49:02.963Z</time></trkpt><trkpt lat="45.6040875" lon="10.5061394"><ele>115.0</ele><time>2026-04-09T15:49:03.963Z</time></trkpt><trkpt lat="45.6039564" lon="10.5062195"><ele>115.0</ele><time>2026-04-09T15:49:04.963Z</time></trkpt><trkpt lat="45.6038292" lon="10.5062941"><ele>115.0</ele><time>2026-04-09T15:49:05.962Z</time></trkpt><trkpt lat="45.6037102" lon="10.5063614"><ele>115.0</ele><time>2026-04-09T15:49:06.963Z</time></trkpt><trkpt lat="45.603597" lon="10.5064296"><ele>114.0</ele><time>2026-04-09T15:49:07.963Z</time></trkpt><trkpt lat="45.6034938" lon="10.5064844"><ele>113.0</ele><time>2026-04-09T15:49:08.963Z</time></trkpt><trkpt lat="45.6033937" lon="10.5065368"><ele>112.0</ele><time>2026-04-09T15:49:09.963Z</time></trkpt><trkpt lat="45.6033006" lon="10.5065859"><ele>111.0</ele><time>2026-04-09T15:49:10.963Z</time></trkpt><trkpt lat="45.6032172" lon="10.5066385"><ele>110.0</ele><time>2026-04-09T15:49:11.963Z</time></trkpt><trkpt lat="45.6031375" lon="10.5066808"><ele>110.0</ele><time>2026-04-09T15:49:12.962Z</time></trkpt><trkpt lat="45.6030578" lon="10.5067151"><ele>110.0</ele><time>2026-04-09T15:49:13.963Z</time></trkpt><trkpt lat="45.6029556" lon="10.5067806"><ele>110.0</ele><time>2026-04-09T15:49:14.962Z</time></trkpt><trkpt lat="45.6028306" lon="10.5068726"><ele>110.0</ele><time>2026-04-09T15:49:15.963Z</time></trkpt><trkpt lat="45.6026953" lon="10.5069567"><ele>111.33333333333333</ele><time>2026-04-09T15:49:16.963Z</time></trkpt><trkpt lat="45.6025415" lon="10.5070638"><ele>112.66666666666666</ele><time>2026-04-09T15:49:17.963Z</time></trkpt><trkpt lat="45.6023912" lon="10.5071838"><ele>114.0</ele><time>2026-04-09T15:49:18.962Z</time></trkpt><trkpt lat="45.6022439" lon="10.5073069"><ele>114.0</ele><time>2026-04-09T15:49:19.962Z</time></trkpt><trkpt lat="45.6020849" lon="10.5074335"><ele>114.0</ele><time>2026-04-09T15:49:20.962Z</time></trkpt><trkpt lat="45.601911" lon="10.5075536"><ele>114.0</ele><time>2026-04-09T15:49:21.963Z</time></trkpt><trkpt lat="45.6017357" lon="10.5076874"><ele>113.66666666666666</ele><time>2026-04-09T15:49:22.963Z</time></trkpt><trkpt lat="45.6015727" lon="10.5078169"><ele>113.33333333333333</ele><time>2026-04-09T15:49:23.963Z</time></trkpt><trkpt lat="45.60141" lon="10.5079232"><ele>113.0</ele><time>2026-04-09T15:49:24.963Z</time></trkpt><trkpt lat="45.6012451" lon="10.5080064"><ele>113.0</ele><time>2026-04-09T15:49:25.963Z</time></trkpt><trkpt lat="45.6010715" lon="10.5080472"><ele>113.0</ele><time>2026-04-09T15:49:26.963Z</time></trkpt><trkpt lat="45.6008781" lon="10.5080636"><ele>113.0</ele><time>2026-04-09T15:49:27.963Z</time></trkpt><trkpt lat="45.6006899" lon="10.5080382"><ele>113.0</ele><time>2026-04-09T15:49:28.962Z</time></trkpt><trkpt lat="45.6005013" lon="10.5079653"><ele>113.0</ele><time>2026-04-09T15:49:29.963Z</time></trkpt><trkpt lat="45.6003101" lon="10.5078671"><ele>113.0</ele><time>2026-04-09T15:49:30.963Z</time></trkpt><trkpt lat="45.6001211" lon="10.5077534"><ele>116.33333333333333</ele><time>2026-04-09T15:49:31.963Z</time></trkpt><trkpt lat="45.5999348" lon="10.5076319"><ele>119.66666666666666</ele><time>2026-04-09T15:49:32.963Z</time></trkpt><trkpt lat="45.5997591" lon="10.5075495"><ele>123.0</ele><time>2026-04-09T15:49:33.963Z</time></trkpt><trkpt lat="45.5995938" lon="10.5074977"><ele>124.66666666666666</ele><time>2026-04-09T15:49:34.963Z</time></trkpt><trkpt lat="45.5994361" lon="10.5074988"><ele>126.33333333333333</ele><time>2026-04-09T15:49:35.963Z</time></trkpt><trkpt lat="45.5992724" lon="10.5075291"><ele>128.0</ele><time>2026-04-09T15:49:36.963Z</time></trkpt><trkpt lat="45.5991136" lon="10.5075798"><ele>128.0</ele><time>2026-04-09T15:49:37.962Z</time></trkpt><trkpt lat="45.5989505" lon="10.5076361"><ele>128.0</ele><time>2026-04-09T15:49:38.963Z</time></trkpt><trkpt lat="45.5987859" lon="10.5077027"><ele>128.0</ele><time>2026-04-09T15:49:39.963Z</time></trkpt><trkpt lat="45.5986253" lon="10.5077661"><ele>129.0</ele><time>2026-04-09T15:49:40.962Z</time></trkpt><trkpt lat="45.5984738" lon="10.5078235"><ele>130.0</ele><time>2026-04-09T15:49:41.962Z</time></trkpt><trkpt lat="45.5983225" lon="10.5078748"><ele>131.0</ele><time>2026-04-09T15:49:42.963Z</time></trkpt><trkpt lat="45.5981754" lon="10.5079249"><ele>128.66666666666666</ele><time>2026-04-09T15:49:43.963Z</time></trkpt><trkpt lat="45.5980303" lon="10.5079698"><ele>126.33333333333334</ele><time>2026-04-09T15:49:44.963Z</time></trkpt><trkpt lat="45.597883" lon="10.508017"><ele>124.0</ele><time>2026-04-09T15:49:45.963Z</time></trkpt><trkpt lat="45.5977215" lon="10.508077"><ele>124.0</ele><time>2026-04-09T15:49:46.962Z</time></trkpt><trkpt lat="45.5975635" lon="10.5081358"><ele>124.0</ele><time>2026-04-09T15:49:47.963Z</time></trkpt><trkpt lat="45.5974087" lon="10.5081819"><ele>124.0</ele><time>2026-04-09T15:49:48.962Z</time></trkpt><trkpt lat="45.5972562" lon="10.5082261"><ele>124.0</ele><time>2026-04-09T15:49:49.962Z</time></trkpt><trkpt lat="45.5971001" lon="10.5082699"><ele>124.0</ele><time>2026-04-09T15:49:50.963Z</time></trkpt><trkpt lat="45.5969396" lon="10.5083161"><ele>124.0</ele><time>2026-04-09T15:49:51.962Z</time></trkpt><trkpt lat="45.5967832" lon="10.5083651"><ele>124.25</ele><time>2026-04-09T15:49:52.962Z</time></trkpt><trkpt lat="45.596641" lon="10.508418"><ele>124.5</ele><time>2026-04-09T15:49:53.962Z</time></trkpt><trkpt lat="45.5965033" lon="10.5084723"><ele>124.75</ele><time>2026-04-09T15:49:54.962Z</time></trkpt><trkpt lat="45.5963726" lon="10.5085202"><ele>125.0</ele><time>2026-04-09T15:49:55.962Z</time></trkpt><trkpt lat="45.5962478" lon="10.5085838"><ele>126.5</ele><time>2026-04-09T15:49:56.962Z</time></trkpt><trkpt lat="45.5961261" lon="10.5086752"><ele>128.0</ele><time>2026-04-09T15:49:57.963Z</time></trkpt><trkpt lat="45.5960204" lon="10.5087775"><ele>129.5</ele><time>2026-04-09T15:49:58.962Z</time></trkpt><trkpt lat="45.5959308" lon="10.5088781"><ele>131.0</ele><time>2026-04-09T15:49:59.963Z</time></trkpt><trkpt lat="45.5958637" lon="10.5089729"><ele>131.0</ele><time>2026-04-09T15:50:00.963Z</time></trkpt><trkpt lat="45.5958065" lon="10.50906"><ele>131.0</ele><time>2026-04-09T15:50:01.963Z</time></trkpt><trkpt lat="45.5957486" lon="10.5091527"><ele>131.0</ele><time>2026-04-09T15:50:02.963Z</time></trkpt><trkpt lat="45.5956984" lon="10.5092573"><ele>131.0</ele><time>2026-04-09T15:50:03.963Z</time></trkpt><trkpt lat="45.5956483" lon="10.5093649"><ele>131.0</ele><time>2026-04-09T15:50:04.963Z</time></trkpt><trkpt lat="45.5955973" lon="10.5094781"><ele>131.0</ele><time>2026-04-09T15:50:05.963Z</time></trkpt><trkpt lat="45.5955455" lon="10.5096028"><ele>129.75</ele><time>2026-04-09T15:50:06.963Z</time></trkpt><trkpt lat="45.5954924" lon="10.5097431"><ele>128.5</ele><time>2026-04-09T15:50:07.962Z</time></trkpt><trkpt lat="45.5954284" lon="10.5098991"><ele>127.25</ele><time>2026-04-09T15:50:08.963Z</time></trkpt><trkpt lat="45.5953549" lon="10.5100727"><ele>126.0</ele><time>2026-04-09T15:50:09.963Z</time></trkpt><trkpt lat="45.5952745" lon="10.5102684"><ele>127.75</ele><time>2026-04-09T15:50:10.963Z</time></trkpt><trkpt lat="45.5951864" lon="10.5104517"><ele>129.5</ele><time>2026-04-09T15:50:11.963Z</time></trkpt><trkpt lat="45.5951024" lon="10.5106203"><ele>131.25</ele><time>2026-04-09T15:50:12.963Z</time></trkpt><trkpt lat="45.5950136" lon="10.5107653"><ele>133.0</ele><time>2026-04-09T15:50:13.962Z</time></trkpt><trkpt lat="45.5949036" lon="10.510898"><ele>133.0</ele><time>2026-04-09T15:50:14.962Z</time></trkpt><trkpt lat="45.5947813" lon="10.5110184"><ele>133.0</ele><time>2026-04-09T15:50:15.963Z</time></trkpt><trkpt lat="45.5946326" lon="10.511117"><ele>133.0</ele><time>2026-04-09T15:50:16.962Z</time></trkpt><trkpt lat="45.5944677" lon="10.5112145"><ele>133.33333333333334</ele><time>2026-04-09T15:50:17.963Z</time></trkpt><trkpt lat="45.5943007" lon="10.5113092"><ele>133.66666666666666</ele><time>2026-04-09T15:50:18.963Z</time></trkpt><trkpt lat="45.5941554" lon="10.5113947"><ele>134.0</ele><time>2026-04-09T15:50:19.963Z</time></trkpt><trkpt lat="45.5940207" lon="10.5114709"><ele>134.0</ele><time>2026-04-09T15:50:20.963Z</time></trkpt><trkpt lat="45.5938885" lon="10.5115527"><ele>134.0</ele><time>2026-04-09T15:50:21.963Z</time></trkpt><trkpt lat="45.593764" lon="10.5116216"><ele>134.0</ele><time>2026-04-09T15:50:22.962Z</time></trkpt><trkpt lat="45.5936419" lon="10.5116983"><ele>134.0</ele><time>2026-04-09T15:50:23.963Z</time></trkpt><trkpt lat="45.5935254" lon="10.5117879"><ele>134.25</ele><time>2026-04-09T15:50:24.963Z</time></trkpt><trkpt lat="45.593416" lon="10.5118905"><ele>134.5</ele><time>2026-04-09T15:50:25.963Z</time></trkpt><trkpt lat="45.593327" lon="10.5120084"><ele>134.75</ele><time>2026-04-09T15:50:26.963Z</time></trkpt><trkpt lat="45.5932499" lon="10.5121469"><ele>135.0</ele><time>2026-04-09T15:50:27.963Z</time></trkpt><trkpt lat="45.5931838" lon="10.5122944"><ele>135.0</ele><time>2026-04-09T15:50:28.961Z</time></trkpt><trkpt lat="45.5931326" lon="10.5124558"><ele>135.0</ele><time>2026-04-09T15:50:29.962Z</time></trkpt><trkpt lat="45.5930944" lon="10.5126238"><ele>135.0</ele><time>2026-04-09T15:50:30.962Z</time></trkpt><trkpt lat="45.5930768" lon="10.5128061"><ele>135.0</ele><time>2026-04-09T15:50:31.962Z</time></trkpt><trkpt lat="45.5930888" lon="10.5129989"><ele>135.66666666666666</ele><time>2026-04-09T15:50:32.961Z</time></trkpt><trkpt lat="45.5931182" lon="10.5132041"><ele>136.33333333333331</ele><time>2026-04-09T15:50:33.961Z</time></trkpt><trkpt lat="45.5931756" lon="10.5134481"><ele>137.0</ele><time>2026-04-09T15:50:34.962Z</time></trkpt><trkpt lat="45.5932507" lon="10.5137464"><ele>139.33333333333331</ele><time>2026-04-09T15:50:35.962Z</time></trkpt><trkpt lat="45.593303" lon="10.5140788"><ele>141.66666666666666</ele><time>2026-04-09T15:50:36.962Z</time></trkpt><trkpt lat="45.5933469" lon="10.5143541"><ele>144.0</ele><time>2026-04-09T15:50:37.962Z</time></trkpt><trkpt lat="45.5933926" lon="10.5146052"><ele>146.0</ele><time>2026-04-09T15:50:38.962Z</time></trkpt><trkpt lat="45.5934472" lon="10.5148497"><ele>148.0</ele><time>2026-04-09T15:50:39.961Z</time></trkpt><trkpt lat="45.5934943" lon="10.5150917"><ele>150.0</ele><time>2026-04-09T15:50:40.962Z</time></trkpt><trkpt lat="45.5935342" lon="10.5153231"><ele>151.33333333333334</ele><time>2026-04-09T15:50:41.962Z</time></trkpt><trkpt lat="45.5935643" lon="10.5155509"><ele>152.66666666666669</ele><time>2026-04-09T15:50:42.962Z</time></trkpt><trkpt lat="45.5935791" lon="10.5157733"><ele>154.0</ele><time>2026-04-09T15:50:43.962Z</time></trkpt><trkpt lat="45.5935744" lon="10.5159875"><ele>154.0</ele><time>2026-04-09T15:50:44.962Z</time></trkpt><trkpt lat="45.5935611" lon="10.5162068"><ele>154.0</ele><time>2026-04-09T15:50:45.962Z</time></trkpt><trkpt lat="45.5935312" lon="10.5164124"><ele>154.0</ele><time>2026-04-09T15:50:46.962Z</time></trkpt><trkpt lat="45.5934993" lon="10.5166082"><ele>154.0</ele><time>2026-04-09T15:50:47.962Z</time></trkpt><trkpt lat="45.5934683" lon="10.5167904"><ele>153.0</ele><time>2026-04-09T15:50:48.962Z</time></trkpt><trkpt lat="45.5934354" lon="10.5169663"><ele>152.0</ele><time>2026-04-09T15:50:49.961Z</time></trkpt><trkpt lat="45.5934054" lon="10.5171431"><ele>151.0</ele><time>2026-04-09T15:50:50.962Z</time></trkpt><trkpt lat="45.5933681" lon="10.5173299"><ele>150.0</ele><time>2026-04-09T15:50:51.961Z</time></trkpt><trkpt lat="45.5933332" lon="10.5175233"><ele>148.75</ele><time>2026-04-09T15:50:52.962Z</time></trkpt><trkpt lat="45.5932942" lon="10.5177257"><ele>147.5</ele><time>2026-04-09T15:50:53.961Z</time></trkpt><trkpt lat="45.5932554" lon="10.5179167"><ele>146.25</ele><time>2026-04-09T15:50:54.962Z</time></trkpt><trkpt lat="45.5932221" lon="10.5181036"><ele>145.0</ele><time>2026-04-09T15:50:55.961Z</time></trkpt><trkpt lat="45.5931899" lon="10.5182872"><ele>144.75</ele><time>2026-04-09T15:50:56.961Z</time></trkpt><trkpt lat="45.5931559" lon="10.5184719"><ele>144.5</ele><time>2026-04-09T15:50:57.961Z</time></trkpt><trkpt lat="45.5931224" lon="10.5186516"><ele>144.25</ele><time>2026-04-09T15:50:58.962Z</time></trkpt><trkpt lat="45.5930875" lon="10.5188308"><ele>144.0</ele><time>2026-04-09T15:50:59.962Z</time></trkpt><trkpt lat="45.5930543" lon="10.5190115"><ele>144.5</ele><time>2026-04-09T15:51:00.962Z</time></trkpt><trkpt lat="45.5930246" lon="10.5191887"><ele>145.0</ele><time>2026-04-09T15:51:01.962Z</time></trkpt><trkpt lat="45.5929946" lon="10.5193677"><ele>145.5</ele><time>2026-04-09T15:51:02.962Z</time></trkpt><trkpt lat="45.5929622" lon="10.5195435"><ele>146.0</ele><time>2026-04-09T15:51:03.961Z</time></trkpt><trkpt lat="45.592925" lon="10.5197165"><ele>147.0</ele><time>2026-04-09T15:51:04.962Z</time></trkpt><trkpt lat="45.5928735" lon="10.5199036"><ele>148.0</ele><time>2026-04-09T15:51:05.962Z</time></trkpt><trkpt lat="45.5928132" lon="10.5201101"><ele>149.0</ele><time>2026-04-09T15:51:06.962Z</time></trkpt><trkpt lat="45.592746" lon="10.5203112"><ele>151.5</ele><time>2026-04-09T15:51:07.961Z</time></trkpt><trkpt lat="45.5926756" lon="10.5204866"><ele>154.0</ele><time>2026-04-09T15:51:08.962Z</time></trkpt><trkpt lat="45.5925986" lon="10.5206508"><ele>156.5</ele><time>2026-04-09T15:51:09.962Z</time></trkpt><trkpt lat="45.5925228" lon="10.5208141"><ele>159.0</ele><time>2026-04-09T15:51:10.962Z</time></trkpt><trkpt lat="45.5924416" lon="10.5209691"><ele>159.0</ele><time>2026-04-09T15:51:11.962Z</time></trkpt><trkpt lat="45.5923583" lon="10.5211276"><ele>159.0</ele><time>2026-04-09T15:51:12.962Z</time></trkpt><trkpt lat="45.5922704" lon="10.5212918"><ele>159.0</ele><time>2026-04-09T15:51:13.962Z</time></trkpt><trkpt lat="45.592186" lon="10.5214599"><ele>159.0</ele><time>2026-04-09T15:51:14.962Z</time></trkpt><trkpt lat="45.5921009" lon="10.5216225"><ele>158.75</ele><time>2026-04-09T15:51:15.962Z</time></trkpt><trkpt lat="45.5920272" lon="10.521778"><ele>158.5</ele><time>2026-04-09T15:51:16.961Z</time></trkpt><trkpt lat="45.5919588" lon="10.5219156"><ele>158.25</ele><time>2026-04-09T15:51:17.961Z</time></trkpt><trkpt lat="45.5918925" lon="10.5220413"><ele>158.0</ele><time>2026-04-09T15:51:18.961Z</time></trkpt><trkpt lat="45.5918218" lon="10.5221632"><ele>158.0</ele><time>2026-04-09T15:51:19.962Z</time></trkpt><trkpt lat="45.5917545" lon="10.5222677"><ele>158.0</ele><time>2026-04-09T15:51:20.962Z</time></trkpt><trkpt lat="45.5917005" lon="10.5223378"><ele>158.0</ele><time>2026-04-09T15:51:21.961Z</time></trkpt><trkpt lat="45.5916297" lon="10.5224573"><ele>158.0</ele><time>2026-04-09T15:51:23.962Z</time></trkpt><trkpt lat="45.5915788" lon="10.522527"><ele>158.0</ele><time>2026-04-09T15:51:24.961Z</time></trkpt><trkpt lat="45.5915202" lon="10.5225958"><ele>158.0</ele><time>2026-04-09T15:51:25.962Z</time></trkpt><trkpt lat="45.5914505" lon="10.5226468"><ele>158.0</ele><time>2026-04-09T15:51:26.961Z</time></trkpt><trkpt lat="45.5913303" lon="10.5226859"><ele>158.0</ele><time>2026-04-09T15:51:28.962Z</time></trkpt><trkpt lat="45.591258" lon="10.5226957"><ele>158.0</ele><time>2026-04-09T15:51:29.962Z</time></trkpt><trkpt lat="45.5911844" lon="10.5226993"><ele>158.0</ele><time>2026-04-09T15:51:30.962Z</time></trkpt><trkpt lat="45.59112" lon="10.5227297"><ele>158.0</ele><time>2026-04-09T15:51:31.962Z</time></trkpt><trkpt lat="45.5910706" lon="10.522802"><ele>158.0</ele><time>2026-04-09T15:51:32.962Z</time></trkpt><trkpt lat="45.5910432" lon="10.5229042"><ele>159.66666666666666</ele><time>2026-04-09T15:51:33.962Z</time></trkpt><trkpt lat="45.5910497" lon="10.5230114"><ele>161.33333333333331</ele><time>2026-04-09T15:51:34.962Z</time></trkpt><trkpt lat="45.5910916" lon="10.5230871"><ele>163.0</ele><time>2026-04-09T15:51:35.962Z</time></trkpt><trkpt lat="45.5911524" lon="10.5231384"><ele>164.66666666666666</ele><time>2026-04-09T15:51:36.962Z</time></trkpt><trkpt lat="45.5912382" lon="10.5231603"><ele>166.33333333333334</ele><time>2026-04-09T15:51:37.962Z</time></trkpt><trkpt lat="45.5913548" lon="10.5231513"><ele>168.0</ele><time>2026-04-09T15:51:38.962Z</time></trkpt><trkpt lat="45.5914892" lon="10.5231268"><ele>168.0</ele><time>2026-04-09T15:51:39.962Z</time></trkpt><trkpt lat="45.5916282" lon="10.5230814"><ele>168.0</ele><time>2026-04-09T15:51:40.962Z</time></trkpt><trkpt lat="45.5917498" lon="10.5230102"><ele>168.0</ele><time>2026-04-09T15:51:41.962Z</time></trkpt><trkpt lat="45.5918699" lon="10.5229404"><ele>168.0</ele><time>2026-04-09T15:51:42.962Z</time></trkpt><trkpt lat="45.5919792" lon="10.5228981"><ele>165.6</ele><time>2026-04-09T15:51:43.961Z</time></trkpt><trkpt lat="45.5920916" lon="10.5228836"><ele>163.20000000000002</ele><time>2026-04-09T15:51:44.961Z</time></trkpt><trkpt lat="45.5921961" lon="10.5229162"><ele>160.8</ele><time>2026-04-09T15:51:45.962Z</time></trkpt><trkpt lat="45.5922942" lon="10.522969"><ele>158.4</ele><time>2026-04-09T15:51:46.962Z</time></trkpt><trkpt lat="45.592375" lon="10.5230476"><ele>156.0</ele><time>2026-04-09T15:51:47.962Z</time></trkpt><trkpt lat="45.5924386" lon="10.5231602"><ele>156.0</ele><time>2026-04-09T15:51:48.962Z</time></trkpt><trkpt lat="45.5924982" lon="10.5233156"><ele>156.0</ele><time>2026-04-09T15:51:49.962Z</time></trkpt><trkpt lat="45.5925409" lon="10.5234959"><ele>156.0</ele><time>2026-04-09T15:51:50.962Z</time></trkpt><trkpt lat="45.5925607" lon="10.5237079"><ele>156.0</ele><time>2026-04-09T15:51:51.962Z</time></trkpt><trkpt lat="45.5925705" lon="10.5239379"><ele>157.0</ele><time>2026-04-09T15:51:52.962Z</time></trkpt><trkpt lat="45.5925754" lon="10.5241781"><ele>158.0</ele><time>2026-04-09T15:51:53.962Z</time></trkpt><trkpt lat="45.5925661" lon="10.5244212"><ele>159.0</ele><time>2026-04-09T15:51:54.962Z</time></trkpt><trkpt lat="45.5925605" lon="10.5246475"><ele>159.0</ele><time>2026-04-09T15:51:55.962Z</time></trkpt><trkpt lat="45.5925606" lon="10.5248718"><ele>159.0</ele><time>2026-04-09T15:51:56.961Z</time></trkpt><trkpt lat="45.5925637" lon="10.5250836"><ele>159.0</ele><time>2026-04-09T15:51:57.961Z</time></trkpt><trkpt lat="45.5925621" lon="10.5252948"><ele>158.75</ele><time>2026-04-09T15:51:58.962Z</time></trkpt><trkpt lat="45.5925501" lon="10.5254997"><ele>158.5</ele><time>2026-04-09T15:51:59.962Z</time></trkpt><trkpt lat="45.5925365" lon="10.5257002"><ele>158.25</ele><time>2026-04-09T15:52:00.962Z</time></trkpt><trkpt lat="45.5925153" lon="10.5258913"><ele>158.0</ele><time>2026-04-09T15:52:01.962Z</time></trkpt><trkpt lat="45.5925054" lon="10.5260927"><ele>158.0</ele><time>2026-04-09T15:52:02.962Z</time></trkpt><trkpt lat="45.5925405" lon="10.5263007"><ele>158.0</ele><time>2026-04-09T15:52:03.961Z</time></trkpt><trkpt lat="45.5925889" lon="10.5264952"><ele>158.0</ele><time>2026-04-09T15:52:04.962Z</time></trkpt><trkpt lat="45.5926495" lon="10.5267054"><ele>158.0</ele><time>2026-04-09T15:52:05.962Z</time></trkpt><trkpt lat="45.5927137" lon="10.5269561"><ele>158.0</ele><time>2026-04-09T15:52:06.962Z</time></trkpt><trkpt lat="45.5927637" lon="10.5272238"><ele>158.0</ele><time>2026-04-09T15:52:07.961Z</time></trkpt><trkpt lat="45.5928124" lon="10.5274903"><ele>156.66666666666666</ele><time>2026-04-09T15:52:08.962Z</time></trkpt><trkpt lat="45.5928604" lon="10.5277608"><ele>155.33333333333334</ele><time>2026-04-09T15:52:09.962Z</time></trkpt><trkpt lat="45.5929096" lon="10.5280239"><ele>154.0</ele><time>2026-04-09T15:52:10.961Z</time></trkpt><trkpt lat="45.5929521" lon="10.528267"><ele>154.0</ele><time>2026-04-09T15:52:11.961Z</time></trkpt><trkpt lat="45.5929982" lon="10.5284896"><ele>154.0</ele><time>2026-04-09T15:52:12.962Z</time></trkpt><trkpt lat="45.5930386" lon="10.5287054"><ele>154.0</ele><time>2026-04-09T15:52:13.961Z</time></trkpt><trkpt lat="45.593077" lon="10.528908"><ele>154.33333333333334</ele><time>2026-04-09T15:52:14.961Z</time></trkpt><trkpt lat="45.5931168" lon="10.5291098"><ele>154.66666666666666</ele><time>2026-04-09T15:52:15.962Z</time></trkpt><trkpt lat="45.5931515" lon="10.5293303"><ele>155.0</ele><time>2026-04-09T15:52:16.962Z</time></trkpt><trkpt lat="45.5931773" lon="10.5295649"><ele>155.0</ele><time>2026-04-09T15:52:17.962Z</time></trkpt><trkpt lat="45.5931887" lon="10.5298038"><ele>155.0</ele><time>2026-04-09T15:52:18.962Z</time></trkpt><trkpt lat="45.5931876" lon="10.5300362"><ele>155.0</ele><time>2026-04-09T15:52:19.962Z</time></trkpt><trkpt lat="45.5931823" lon="10.5302614"><ele>155.0</ele><time>2026-04-09T15:52:20.962Z</time></trkpt><trkpt lat="45.5931605" lon="10.5304683"><ele>155.0</ele><time>2026-04-09T15:52:21.962Z</time></trkpt><trkpt lat="45.5931344" lon="10.5306646"><ele>155.0</ele><time>2026-04-09T15:52:22.961Z</time></trkpt><trkpt lat="45.5931043" lon="10.5308537"><ele>155.0</ele><time>2026-04-09T15:52:23.961Z</time></trkpt><trkpt lat="45.593076" lon="10.5310273"><ele>155.0</ele><time>2026-04-09T15:52:24.962Z</time></trkpt><trkpt lat="45.5930537" lon="10.5311925"><ele>155.0</ele><time>2026-04-09T15:52:25.962Z</time></trkpt><trkpt lat="45.5930317" lon="10.5313408"><ele>155.0</ele><time>2026-04-09T15:52:26.962Z</time></trkpt><trkpt lat="45.5930095" lon="10.5314799"><ele>155.0</ele><time>2026-04-09T15:52:27.962Z</time></trkpt><trkpt lat="45.5929895" lon="10.5316129"><ele>155.0</ele><time>2026-04-09T15:52:28.961Z</time></trkpt><trkpt lat="45.592973" lon="10.5317375"><ele>154.83333333333331</ele><time>2026-04-09T15:52:29.961Z</time></trkpt><trkpt lat="45.5929586" lon="10.5318598"><ele>154.66666666666666</ele><time>2026-04-09T15:52:30.962Z</time></trkpt><trkpt lat="45.5929379" lon="10.5319731"><ele>154.5</ele><time>2026-04-09T15:52:31.962Z</time></trkpt><trkpt lat="45.5928987" lon="10.5320744"><ele>154.33333333333334</ele><time>2026-04-09T15:52:32.962Z</time></trkpt><trkpt lat="45.5928603" lon="10.5321664"><ele>154.16666666666669</ele><time>2026-04-09T15:52:33.962Z</time></trkpt><trkpt lat="45.592846" lon="10.5322693"><ele>154.0</ele><time>2026-04-09T15:52:34.961Z</time></trkpt><trkpt lat="45.5928675" lon="10.532393"><ele>154.0</ele><time>2026-04-09T15:52:35.962Z</time></trkpt><trkpt lat="45.5929039" lon="10.5325344"><ele>154.0</ele><time>2026-04-09T15:52:36.962Z</time></trkpt><trkpt lat="45.5929369" lon="10.5327142"><ele>154.0</ele><time>2026-04-09T15:52:37.962Z</time></trkpt><trkpt lat="45.5929395" lon="10.5329258"><ele>154.0</ele><time>2026-04-09T15:52:38.962Z</time></trkpt><trkpt lat="45.5929321" lon="10.5331504"><ele>154.0</ele><time>2026-04-09T15:52:39.962Z</time></trkpt><trkpt lat="45.5929264" lon="10.5334012"><ele>154.0</ele><time>2026-04-09T15:52:40.961Z</time></trkpt><trkpt lat="45.5929161" lon="10.5336829"><ele>154.0</ele><time>2026-04-09T15:52:41.962Z</time></trkpt><trkpt lat="45.5929105" lon="10.5339608"><ele>155.0</ele><time>2026-04-09T15:52:42.962Z</time></trkpt><trkpt lat="45.5929078" lon="10.5342422"><ele>156.0</ele><time>2026-04-09T15:52:43.962Z</time></trkpt><trkpt lat="45.592907" lon="10.53452"><ele>157.0</ele><time>2026-04-09T15:52:44.962Z</time></trkpt><trkpt lat="45.5928981" lon="10.5347797"><ele>157.0</ele><time>2026-04-09T15:52:45.962Z</time></trkpt><trkpt lat="45.5928708" lon="10.5350296"><ele>157.0</ele><time>2026-04-09T15:52:46.961Z</time></trkpt><trkpt lat="45.5928245" lon="10.5352758"><ele>157.0</ele><time>2026-04-09T15:52:47.962Z</time></trkpt><trkpt lat="45.5927663" lon="10.5355215"><ele>157.0</ele><time>2026-04-09T15:52:48.962Z</time></trkpt><trkpt lat="45.5927067" lon="10.5357668"><ele>157.0</ele><time>2026-04-09T15:52:49.962Z</time></trkpt><trkpt lat="45.5926662" lon="10.5360141"><ele>157.0</ele><time>2026-04-09T15:52:50.962Z</time></trkpt><trkpt lat="45.5926602" lon="10.5362887"><ele>157.0</ele><time>2026-04-09T15:52:51.962Z</time></trkpt><trkpt lat="45.5926614" lon="10.5365846"><ele>157.0</ele><time>2026-04-09T15:52:52.962Z</time></trkpt><trkpt lat="45.5926727" lon="10.5368937"><ele>157.0</ele><time>2026-04-09T15:52:53.962Z</time></trkpt><trkpt lat="45.5926855" lon="10.5371982"><ele>156.66666666666669</ele><time>2026-04-09T15:52:54.962Z</time></trkpt><trkpt lat="45.592696" lon="10.5374874"><ele>156.33333333333334</ele><time>2026-04-09T15:52:55.962Z</time></trkpt><trkpt lat="45.5927075" lon="10.5377561"><ele>156.0</ele><time>2026-04-09T15:52:56.962Z</time></trkpt><trkpt lat="45.5927111" lon="10.5380114"><ele>155.25</ele><time>2026-04-09T15:52:57.962Z</time></trkpt><trkpt lat="45.5927145" lon="10.5382412"><ele>154.5</ele><time>2026-04-09T15:52:58.962Z</time></trkpt><trkpt lat="45.5927145" lon="10.5384493"><ele>153.75</ele><time>2026-04-09T15:52:59.962Z</time></trkpt><trkpt lat="45.5927152" lon="10.5386205"><ele>153.0</ele><time>2026-04-09T15:53:00.962Z</time></trkpt><trkpt lat="45.592712" lon="10.5387642"><ele>152.6</ele><time>2026-04-09T15:53:01.961Z</time></trkpt><trkpt lat="45.5926996" lon="10.538872"><ele>152.20000000000002</ele><time>2026-04-09T15:53:02.962Z</time></trkpt><trkpt lat="45.5927143" lon="10.5390328"><ele>151.8</ele><time>2026-04-09T15:53:04.962Z</time></trkpt><trkpt lat="45.5927737" lon="10.5390998"><ele>151.4</ele><time>2026-04-09T15:53:05.962Z</time></trkpt><trkpt lat="45.5928446" lon="10.5392125"><ele>151.0</ele><time>2026-04-09T15:53:06.961Z</time></trkpt><trkpt lat="45.5929073" lon="10.539391"><ele>149.33333333333334</ele><time>2026-04-09T15:53:07.962Z</time></trkpt><trkpt lat="45.5929671" lon="10.5396081"><ele>147.66666666666666</ele><time>2026-04-09T15:53:08.962Z</time></trkpt><trkpt lat="45.5930239" lon="10.5398339"><ele>146.0</ele><time>2026-04-09T15:53:09.962Z</time></trkpt><trkpt lat="45.5930911" lon="10.5400656"><ele>146.0</ele><time>2026-04-09T15:53:10.962Z</time></trkpt><trkpt lat="45.5931577" lon="10.5402847"><ele>146.0</ele><time>2026-04-09T15:53:11.961Z</time></trkpt><trkpt lat="45.5932304" lon="10.5404885"><ele>146.0</ele><time>2026-04-09T15:53:12.962Z</time></trkpt><trkpt lat="45.5932922" lon="10.5406819"><ele>145.4</ele><time>2026-04-09T15:53:13.962Z</time></trkpt><trkpt lat="45.5933584" lon="10.5408389"><ele>144.8</ele><time>2026-04-09T15:53:14.962Z</time></trkpt><trkpt lat="45.5934253" lon="10.5409775"><ele>144.20000000000002</ele><time>2026-04-09T15:53:15.962Z</time></trkpt><trkpt lat="45.5934851" lon="10.5410817"><ele>143.6</ele><time>2026-04-09T15:53:16.962Z</time></trkpt><trkpt lat="45.5935467" lon="10.5411475"><ele>143.0</ele><time>2026-04-09T15:53:17.962Z</time></trkpt><trkpt lat="45.5936185" lon="10.5411668"><ele>142.0</ele><time>2026-04-09T15:53:18.961Z</time></trkpt><trkpt lat="45.5936967" lon="10.541131"><ele>141.0</ele><time>2026-04-09T15:53:19.962Z</time></trkpt><trkpt lat="45.5937944" lon="10.5410552"><ele>140.0</ele><time>2026-04-09T15:53:20.961Z</time></trkpt><trkpt lat="45.5938818" lon="10.5409534"><ele>139.0</ele><time>2026-04-09T15:53:21.962Z</time></trkpt><trkpt lat="45.5939601" lon="10.5408912"><ele>138.0</ele><time>2026-04-09T15:53:22.962Z</time></trkpt><trkpt lat="45.5940408" lon="10.5408741"><ele>138.0</ele><time>2026-04-09T15:53:23.961Z</time></trkpt><trkpt lat="45.5941353" lon="10.5409109"><ele>138.0</ele><time>2026-04-09T15:53:24.962Z</time></trkpt><trkpt lat="45.5941976" lon="10.5410041"><ele>138.0</ele><time>2026-04-09T15:53:25.962Z</time></trkpt><trkpt lat="45.5942203" lon="10.5411406"><ele>138.0</ele><time>2026-04-09T15:53:26.962Z</time></trkpt><trkpt lat="45.5942026" lon="10.541301"><ele>138.0</ele><time>2026-04-09T15:53:27.962Z</time></trkpt><trkpt lat="45.5941587" lon="10.5415125"><ele>136.33333333333334</ele><time>2026-04-09T15:53:28.961Z</time></trkpt><trkpt lat="45.5941067" lon="10.5417223"><ele>134.66666666666669</ele><time>2026-04-09T15:53:29.962Z</time></trkpt><trkpt lat="45.5940539" lon="10.5419534"><ele>133.0</ele><time>2026-04-09T15:53:30.962Z</time></trkpt><trkpt lat="45.5940069" lon="10.5421683"><ele>132.0</ele><time>2026-04-09T15:53:31.962Z</time></trkpt><trkpt lat="45.5939808" lon="10.5423696"><ele>131.0</ele><time>2026-04-09T15:53:32.962Z</time></trkpt><trkpt lat="45.5940023" lon="10.5425496"><ele>130.0</ele><time>2026-04-09T15:53:33.962Z</time></trkpt><trkpt lat="45.5940412" lon="10.5427391"><ele>129.0</ele><time>2026-04-09T15:53:34.962Z</time></trkpt><trkpt lat="45.5940886" lon="10.542927"><ele>128.5</ele><time>2026-04-09T15:53:35.962Z</time></trkpt><trkpt lat="45.5941415" lon="10.5431174"><ele>128.0</ele><time>2026-04-09T15:53:36.962Z</time></trkpt><trkpt lat="45.5941948" lon="10.5432903"><ele>127.5</ele><time>2026-04-09T15:53:37.962Z</time></trkpt><trkpt lat="45.5942446" lon="10.5434613"><ele>127.0</ele><time>2026-04-09T15:53:38.962Z</time></trkpt><trkpt lat="45.5942921" lon="10.5436131"><ele>126.5</ele><time>2026-04-09T15:53:39.962Z</time></trkpt><trkpt lat="45.5943404" lon="10.5437593"><ele>126.0</ele><time>2026-04-09T15:53:40.962Z</time></trkpt><trkpt lat="45.5943861" lon="10.5439136"><ele>125.5</ele><time>2026-04-09T15:53:41.962Z</time></trkpt><trkpt lat="45.5944314" lon="10.5440723"><ele>125.0</ele><time>2026-04-09T15:53:42.961Z</time></trkpt><trkpt lat="45.5944631" lon="10.5442489"><ele>125.0</ele><time>2026-04-09T15:53:43.961Z</time></trkpt><trkpt lat="45.5944732" lon="10.5444449"><ele>125.0</ele><time>2026-04-09T15:53:44.962Z</time></trkpt><trkpt lat="45.5944732" lon="10.5446658"><ele>125.0</ele><time>2026-04-09T15:53:45.962Z</time></trkpt><trkpt lat="45.5944752" lon="10.5448764"><ele>125.0</ele><time>2026-04-09T15:53:46.96Z</time></trkpt><trkpt lat="45.5944808" lon="10.5450611"><ele>124.0</ele><time>2026-04-09T15:53:47.961Z</time></trkpt><trkpt lat="45.5944862" lon="10.5452382"><ele>123.0</ele><time>2026-04-09T15:53:48.96Z</time></trkpt><trkpt lat="45.5944911" lon="10.5454102"><ele>122.0</ele><time>2026-04-09T15:53:49.961Z</time></trkpt><trkpt lat="45.5944936" lon="10.5455709"><ele>121.0</ele><time>2026-04-09T15:53:50.961Z</time></trkpt><trkpt lat="45.5944975" lon="10.5457325"><ele>120.25</ele><time>2026-04-09T15:53:51.961Z</time></trkpt><trkpt lat="45.5944984" lon="10.5459029"><ele>119.5</ele><time>2026-04-09T15:53:52.961Z</time></trkpt><trkpt lat="45.5944986" lon="10.5460895"><ele>118.75</ele><time>2026-04-09T15:53:53.961Z</time></trkpt><trkpt lat="45.5944887" lon="10.5462834"><ele>118.0</ele><time>2026-04-09T15:53:54.96Z</time></trkpt><trkpt lat="45.5944615" lon="10.5464888"><ele>118.0</ele><time>2026-04-09T15:53:55.961Z</time></trkpt><trkpt lat="45.5944245" lon="10.5467065"><ele>118.0</ele><time>2026-04-09T15:53:56.961Z</time></trkpt><trkpt lat="45.5943874" lon="10.546939"><ele>118.0</ele><time>2026-04-09T15:53:57.96Z</time></trkpt><trkpt lat="45.5943518" lon="10.5471845"><ele>117.33333333333334</ele><time>2026-04-09T15:53:58.96Z</time></trkpt><trkpt lat="45.5943304" lon="10.5474382"><ele>116.66666666666666</ele><time>2026-04-09T15:53:59.96Z</time></trkpt><trkpt lat="45.5943294" lon="10.5477221"><ele>116.0</ele><time>2026-04-09T15:54:00.961Z</time></trkpt><trkpt lat="45.5943387" lon="10.5480207"><ele>114.66666666666666</ele><time>2026-04-09T15:54:01.961Z</time></trkpt><trkpt lat="45.5943538" lon="10.5483257"><ele>113.33333333333334</ele><time>2026-04-09T15:54:02.961Z</time></trkpt><trkpt lat="45.5943553" lon="10.5486136"><ele>112.0</ele><time>2026-04-09T15:54:03.961Z</time></trkpt><trkpt lat="45.5943423" lon="10.5488772"><ele>111.0</ele><time>2026-04-09T15:54:04.96Z</time></trkpt><trkpt lat="45.5943203" lon="10.5491208"><ele>110.0</ele><time>2026-04-09T15:54:05.96Z</time></trkpt><trkpt lat="45.5942773" lon="10.5493504"><ele>109.0</ele><time>2026-04-09T15:54:06.96Z</time></trkpt><trkpt lat="45.5942191" lon="10.5495731"><ele>108.33333333333334</ele><time>2026-04-09T15:54:07.961Z</time></trkpt><trkpt lat="45.5941479" lon="10.5497957"><ele>107.66666666666666</ele><time>2026-04-09T15:54:08.961Z</time></trkpt><trkpt lat="45.5940541" lon="10.5500041"><ele>107.0</ele><time>2026-04-09T15:54:09.96Z</time></trkpt><trkpt lat="45.5939653" lon="10.5502026"><ele>107.5</ele><time>2026-04-09T15:54:10.96Z</time></trkpt><trkpt lat="45.5939009" lon="10.5503946"><ele>108.0</ele><time>2026-04-09T15:54:11.961Z</time></trkpt><trkpt lat="45.5938738" lon="10.5505987"><ele>108.5</ele><time>2026-04-09T15:54:12.96Z</time></trkpt><trkpt lat="45.59387" lon="10.5508164"><ele>109.0</ele><time>2026-04-09T15:54:13.961Z</time></trkpt><trkpt lat="45.5939027" lon="10.5510476"><ele>110.33333333333334</ele><time>2026-04-09T15:54:14.961Z</time></trkpt><trkpt lat="45.5939519" lon="10.5512726"><ele>111.66666666666666</ele><time>2026-04-09T15:54:15.961Z</time></trkpt><trkpt lat="45.594022" lon="10.5514693"><ele>113.0</ele><time>2026-04-09T15:54:16.961Z</time></trkpt><trkpt lat="45.594091" lon="10.551637"><ele>113.0</ele><time>2026-04-09T15:54:17.96Z</time></trkpt><trkpt lat="45.5941427" lon="10.5517565"><ele>113.0</ele><time>2026-04-09T15:54:18.961Z</time></trkpt><trkpt lat="45.5941656" lon="10.5518648"><ele>113.0</ele><time>2026-04-09T15:54:19.96Z</time></trkpt><trkpt lat="45.5941392" lon="10.5519589"><ele>113.0</ele><time>2026-04-09T15:54:20.961Z</time></trkpt><trkpt lat="45.5941021" lon="10.5520453"><ele>113.0</ele><time>2026-04-09T15:54:21.961Z</time></trkpt><trkpt lat="45.5940748" lon="10.5521267"><ele>113.0</ele><time>2026-04-09T15:54:22.961Z</time></trkpt><trkpt lat="45.5940892" lon="10.5522147"><ele>113.0</ele><time>2026-04-09T15:54:23.961Z</time></trkpt><trkpt lat="45.5941351" lon="10.5522994"><ele>114.0</ele><time>2026-04-09T15:54:24.961Z</time></trkpt><trkpt lat="45.5941929" lon="10.5524026"><ele>115.0</ele><time>2026-04-09T15:54:25.961Z</time></trkpt><trkpt lat="45.5942178" lon="10.552575"><ele>116.0</ele><time>2026-04-09T15:54:26.961Z</time></trkpt><trkpt lat="45.5942243" lon="10.5527612"><ele>117.0</ele><time>2026-04-09T15:54:27.961Z</time></trkpt><trkpt lat="45.5942175" lon="10.5529431"><ele>117.0</ele><time>2026-04-09T15:54:28.96Z</time></trkpt><trkpt lat="45.5942234" lon="10.5531011"><ele>116.99999999999999</ele><time>2026-04-09T15:54:29.961Z</time></trkpt><trkpt lat="45.5942351" lon="10.5532456"><ele>116.99999999999999</ele><time>2026-04-09T15:54:30.961Z</time></trkpt><trkpt lat="45.5942403" lon="10.5533667"><ele>117.0</ele><time>2026-04-09T15:54:31.961Z</time></trkpt><trkpt lat="45.5942485" lon="10.553506"><ele>117.0</ele><time>2026-04-09T15:54:33.961Z</time></trkpt><trkpt lat="45.5942805" lon="10.5536128"><ele>117.0</ele><time>2026-04-09T15:54:36.96Z</time></trkpt><trkpt lat="45.5943854" lon="10.5536188"><ele>116.99999999999999</ele><time>2026-04-09T15:54:38.961Z</time></trkpt><trkpt lat="45.5945003" lon="10.5536197"><ele>116.99999999999999</ele><time>2026-04-09T15:54:40.961Z</time></trkpt><trkpt lat="45.5946184" lon="10.5536104"><ele>117.0</ele><time>2026-04-09T15:54:42.961Z</time></trkpt><trkpt lat="45.5947183" lon="10.5536115"><ele>117.0</ele><time>2026-04-09T15:54:44.961Z</time></trkpt><trkpt lat="45.5947899" lon="10.553626"><ele>115.0</ele><time>2026-04-09T15:54:46.961Z</time></trkpt><trkpt lat="45.5948749" lon="10.5536262"><ele>115.0</ele><time>2026-04-09T15:54:49.96Z</time></trkpt></trkseg></trk></gpx>